     2.11           OBSERVATION DATA    G (GPS)             RINEX VERSION / TYPE
teqc 2010Oct21 OPUS Account 20111026 21:37:42UTC            PGM / RUN BY / DATE
H 1524                                                      MARKER NAME
1212                                                        MARKER NUMBER
CSMIDDLETON NGS                                             OBSERVER / AGENCY
0220390627 TRIMBLE R7 2.32                                  REC # / TYPE / VERS
60124849 TRM41249.00 NONE                                   ANT # / TYPE
  -756951.1038 -5528158.7321  3079643.7129                  APPROX POSITION XYZ
        2.0010        0.0000        0.0000                  ANTENNA: DELTA H/E/N
     1     1                                                WAVELENGTH FACT L1/2
     5    L1    L2    C1    P1    P2                        # / TYPES OF OBSERV
    15                                                      LEAP SECONDS
  2011     8    12    17    54    0.0000000     GPS         TIME OF FIRST OBS
                                                            END OF HEADER
 11  8 12 17 54  0.0000000  0  8G03G07G08G23G13G19G28G11
    246754.09057    187038.68453  23274789.7194                   23274788.6484
   -289489.12158   -208396.83256  20887975.9454                   20887974.1724
   -419062.64857   -301664.88755  22265505.3054                   22265504.2664
    268690.52357    203931.77754  22898422.3444                   22898420.7504
    164197.82458    117924.55556  21158915.3674                   21158913.8674
     71325.21558     51664.77356  21510306.8444                   21510303.0744
   -282145.19557   -214575.18454  23203161.6414                   23203159.5434
   -416908.18457   -299008.89854  22906021.4844                   22906020.6254
 11  8 12 17 54 30.0000000  0  9G03G07G08G23G13G19G28G24G11
    315299.67246    240450.74243  23287832.6884                   23287833.0084
   -361966.78148   -264872.94546  20874183.9224                   20874181.9534
   -524508.55147   -383830.52745  22245439.0784                   22245438.6954
    343326.55147    262089.57844  22912625.2034                   22912623.2504
    206060.89148    150545.05946  21166881.6174                   21166880.1054
     90104.07048     66297.61746  21513880.2034                   21513876.8164
   -360397.59047   -275551.06644  23188269.9924                   23188268.3404
   -189937.56256   -122896.05553  24397322.9614                   24397325.3204
   -521191.58647   -380268.66044  22886177.0084                   22886176.0044
 11  8 12 17 55  0.0000000  0  9G03G07G08G23G13G19G28G24G11
    383963.49646    293954.91843  23300899.1724                   23300899.1254
   -434320.70348   -321252.63746  20860415.5554                   20860413.6174
   -630017.34047   -466045.16845  22225361.6414                   22225360.8794
    418045.10547    320311.69144  22926843.5474                   22926842.0314
    248269.23448    183434.62146  21174913.3204                   21174911.9534
    109303.24248     81257.97746  21517533.8444                   21517530.2814
   -438570.32047   -336464.86344  23173394.1174                   23173392.3364
   -297666.75846   -206840.71943  24376820.9924                   24376825.6954
   -625352.41847   -461432.91444  22866356.3364                   22866355.4344
 11  8 12 17 55 30.0000000  0  9G03G07G08G23G13G19G28G24G11
    452738.84446    347546.00443  23313987.0634                   23313986.2114
   -506552.35948   -377537.06646  20846669.9224                   20846668.2234
   -735590.59847   -548310.04745  22205271.9384                   22205270.5474
    492840.02747    378593.33244  22941076.9844                   22941074.9454
    290817.23048    216588.82446  21183010.4384                   21183008.7194
    128917.24248     96541.56646  21521266.0784                   21521262.9454
   -516667.67647   -397319.92244  23158532.4534                   23158531.0124
   -405555.30946   -290909.58243  24356290.4384                   24356295.1684
   -729391.05547   -542501.93044  22846558.2344                   22846557.3444
 11  8 12 17 56  0.0000000  0  9G03G07G08G23G13G19G28G24G11
    521624.14846    401222.77043  23327095.0864                   23327095.1844
   -578658.94148   -433724.02746  20832948.9064                   20832947.0234
   -841225.96947   -630623.31245  22185170.1884                   22185169.0434
    567709.10247    436932.72344  22955324.2814                   22955322.6564
    333703.17648    250006.37946  21191170.9694                   21191169.5084
    148944.81648    112147.43846  21525077.3524                   21525073.8984
   -594689.91847   -458116.48844  23143685.7034                   23143684.1884
   -513599.70746   -375099.85543  24335730.4064                   24335734.8134
   -833303.77047   -623472.84844  22826784.4774                   22826783.5434
 11  8 12 17 56 30.0000000  0  9G03G07G08G23G13G19G28G24G11
    590637.52746    454999.35243  23340228.2974                   23340228.0824
   -650617.59848   -489795.71546  20819255.6414                   20819253.7274
   -946900.71547   -712967.27745  22165060.9534                   22165059.7034
    642670.49647    495344.03944  22969589.0864                   22969586.9104
    376945.85548    283701.90246  21199399.9224                   21199398.3444
    169405.02748    128090.42246  21528971.0234                   21528967.6054
   -672615.85247   -518837.96144  23128856.8674                   23128854.9024
   -621775.95346   -459392.91043  24315145.4614                   24315148.9024
   -937065.96947   -704326.48044  22807038.8054                   22807037.5864
 11  8 12 17 57  0.0000000  0  9G03G07G08G23G13G19G28G24G11
    659776.05947    508873.42243  23353385.7424                   23353385.2734
   -722426.31248   -545750.56646  20805590.7584                   20805588.8984
  -1052613.43047   -795340.82045  22144944.1414                   22144942.7774
    717721.21147    553824.98844  22983871.0314                   22983868.7584
    420542.55148    317673.28546  21207696.2584                   21207694.7194
    190295.66048    144368.80546  21532946.2274                   21532942.8754
   -750446.41847   -579485.15244  23114045.9224                   23114044.8404
   -730081.11346   -543786.43043  24294535.1884                   24294538.4454
  -1040674.98447   -785060.74644  22787322.4924                   22787321.4224
 11  8 12 17 57 30.0000000  0  9G03G07G08G23G13G19G28G24G11
    729034.05547    562840.60944  23366565.3364                   23366564.4454
   -794086.98448   -601590.06246  20791954.0944                   20791952.0824
  -1158365.51247   -877745.03945  22124820.6484                   22124819.1994
    792855.31647    612370.90244  22998168.0784                   22998166.5984
    464487.48848    351916.02746  21216058.8444                   21216057.3094
    211611.50048    160978.50846  21537002.7344                   21536998.8674
   -828185.80547   -640061.28544  23099252.7034                   23099251.0204
   -838515.65646   -628280.77043  24273900.3914                   24273904.3794
  -1144130.62547   -865675.48044  22767635.7274                   22767634.8054
 11  8 12 17 58  0.0000000  0  9G03G07G08G23G13G19G28G24G11
    798413.23047    616902.23444  23379767.3754                   23379766.8914
   -865592.23448   -657308.44946  20778347.4064                   20778345.1914
  -1264150.18047   -960174.64145  22104689.9144                   22104688.6764
    868074.96547    670983.44944  23012482.3284                   23012480.8364
    508783.36748    386432.21946  21224487.9614                   21224486.6414
    233355.23048    177921.64846  21541140.3134                   21541137.0594
   -905829.71947   -700563.02344  23084478.1804                   23084475.9844
   -947071.68446   -712869.78543  24253244.0004                   24253246.9654
  -1247425.45347   -946164.91845  22747979.1334                   22747978.2814
 11  8 12 17 58 30.0000000  0  9G03G07G08G23G13G19G28G24G11
    867916.44547    671060.53144  23392993.2034                   23392993.0044
   -936935.03548   -712900.25446  20764771.4064                   20764769.0864
  -1369960.74647  -1042624.42245  22084554.9694                   22084554.1174
    943382.23447    729664.30144  23026813.0634                   23026811.6524
    553432.68448    421223.82046  21232984.6094                   21232983.5164
    255529.85547    195200.53546  21545359.7194                   21545356.6724
   -983373.67647   -760986.86744  23069721.6414                   23069719.8284
  -1055741.15646   -797547.19943  24232564.3754                   24232567.5204
  -1350550.94547  -1026522.42244  22728355.4774                   22728354.2154
 11  8 12 17 59  0.0000000  0  9G03G07G08G23G13G19G28G24G11
    937534.61347    725308.36344  23406241.3364                   23406241.1484
  -1008119.77748   -768368.89146  20751225.3914                   20751222.8754
  -1475801.94547  -1125098.09445  22064414.3364                   22064412.6564
   1018768.30147    788406.52744  23041158.8524                   23041156.7464
    598426.94948    456284.21946  21241546.8674                   21241545.5904
    278127.11748    212808.75846  21549660.0554                   21549656.6484
  -1060824.41447   -821338.07045  23054983.1174                   23054982.0434
  -1164527.36347   -882315.58244  24211863.2584                   24211866.1294
  -1453510.36747  -1106750.52744  22708763.0704                   22708761.5664
 11  8 12 17 59 30.0000000  0  9G03G07G08G23G13G19G28G24G11
   1007266.63747    779644.94544  23419511.0394                   23419510.8984
  -1079142.48448   -823711.27346  20737709.8914                   20737707.7464
  -1581669.76647  -1207592.47345  22044268.3524                   22044267.2894
   1094232.24247    847209.44544  23055519.5634                   23055517.2154
    643765.82048    491613.14846  21250174.0634                   21250173.0314
    301146.85948    230746.19546  21554040.9614                   21554037.3594
  -1138180.61747   -881615.61744  23040263.3674                   23040261.5634
  -1273425.74647   -967171.39843  24191140.0084                   24191143.4304
  -1556298.14547  -1186844.86344  22689202.7664                   22689201.7034
 11  8 12 18  0  0.0000000  0  9G03G07G08G23G13G19G28G24G11
   1077094.65647    834056.33243  23432799.2814                   23432798.5084
  -1150016.43048   -878937.73446  20724223.4454                   20724220.8714
  -1687578.14847  -1290118.46145  22024114.5314                   22024113.1724
   1169755.62547    906058.68444  23069890.9534                   23069888.9264
    689431.13348    527196.44146  21258864.5234                   21258862.8914
    324571.60248    248999.20746  21558498.5164                   21558494.6374
  -1215458.54747   -941832.17245  23025557.0864                   23025555.7704
  -1382448.61347  -1052124.20343  24170393.9844                   24170396.7814
  -1658927.01247  -1266815.39144  22669673.1024                   22669672.2894
 11  8 12 18  0 30.0000000  0  9G03G07G08G23G13G19G28G24G11
   1147027.12146    888549.10943  23446106.3284                   23446106.7894
  -1220728.93448   -934038.39546  20710767.1564                   20710764.7664
  -1793514.26247  -1372666.09445  22003955.6334                   22003954.0984
   1245346.52347    964960.51644  23084275.2814                   23084273.8324
    735431.44148    563040.76646  21267618.1804                   21267616.8404
    348410.16848    267574.68046  21563034.6254                   21563031.0124
  -1292647.86747  -1001979.66844  23010868.5004                   23010866.9344
  -1491581.73047  -1137162.95744  24149626.4924                   24149629.0784
  -1761382.56647  -1346650.86345  22650176.6644                   22650175.6994
 11  8 12 18  1  0.0000000  0  9G03G07G08G23G13G19G28G24G11
   1217059.38346    943119.67643  23459433.2194                   23459432.8364
  -1291279.74248   -989013.06246  20697341.7894                   20697339.1414
  -1899478.34847  -1455235.50045  21983791.1254                   21983789.7584
   1321000.47747   1023911.49644  23098671.8674                   23098670.0944
    781762.52748    599142.83646  21276434.9304                   21276433.2234
    372658.39148    286469.36746  21567648.8914                   21567645.1334
  -1369750.88347  -1062059.92645  22996196.1804                   22996194.7814
  -1600824.08247  -1222286.82443  24128838.0234                   24128841.2624
  -1863663.68047  -1426350.41444  22630713.0944                   22630712.3634
 11  8 12 18  1 30.0000000  0  9G03G07G08G23G13G19G28G24G11
   1287187.57446    997764.94543  23472778.1174                   23472777.6214
  -1361668.05148  -1043861.11346  20683947.0474                   20683944.9224
  -2005469.48047  -1537825.98045  21963621.8284                   21963620.7114
   1396713.69147   1082908.64844  23113079.8674                   23113078.2234
    828420.57848    635499.69146  21285313.2424                   21285311.6024
    397313.25048    305680.91846  21572340.5784                   21572337.0744
  -1446769.48447  -1122074.39145  22981540.0554                   22981539.0594
  -1710173.71147  -1307494.31644  24108030.3754                   24108032.5704
  -1965768.41847  -1505912.53145  22611283.2424                   22611282.5084
 11  8 12 18  2  0.0000000  0  9G03G07G08G23G13G19G28G24G11
   1357417.48046   1052489.50843  23486141.5004                   23486141.9184
  -1431883.59848  -1098574.52746  20670585.6954                   20670582.9574
  -2111477.78547  -1620429.85945  21943448.8674                   21943447.4264
   1472491.39147   1141956.04744  23127500.1804                   23127498.0984
    875411.34847    672115.80145  21294255.5864                   21294253.8244
    422380.39148    325213.72346  21577110.8204                   21577107.3634
  -1523695.93747  -1182017.05145  22966901.3364                   22966899.8284
  -1819619.86747  -1392777.00843  24087202.3284                   24087205.4264
  -2067685.38747  -1585328.34844  22591889.0474                   22591887.9064
 11  8 12 18  2 30.0000000  0  9G03G07G08G23G13G19G28G24G11
   1427733.98446   1107281.51643  23499523.1564                   23499523.7734
  -1501936.87948  -1153161.52046  20657254.8754                   20657252.8054
  -2217514.14847  -1703055.58245  21923270.7274                   21923269.5984
   1548318.50047   1201041.94544  23141929.7974                   23141928.3284
    922719.77047    708979.43846  21303258.1644                   21303256.6484
    447845.37148    345056.52746  21581956.6954                   21581953.1094
  -1600543.74247  -1241898.43745  22952278.2274                   22952276.6374
  -1929171.73047  -1478142.12943  24066355.5634                   24066358.7274
  -2169423.89547  -1664605.11344  22572528.7114                   22572527.8134
 11  8 12 18  3  0.0000000  0  9G03G07G08G23G13G19G28G24G11
   1498140.90246   1162144.02043  23512922.0004                   23512920.7734
  -1571819.22348  -1207615.30146  20643956.7664                   20643954.3714
  -2323569.72748  -1785696.28945  21903089.1484                   21903088.2734
   1624198.63747   1260169.17644  23156369.0554                   23156367.7274
    970350.21948    746094.01246  21312321.4224                   21312320.3874
    473712.77348    365212.91446  21586878.8054                   21586875.4774
  -1677306.69947  -1301713.70345  22937670.1724                   22937668.8674
  -2038819.69147  -1563582.08243  24045490.3984                   24045493.0704
  -2270974.34447  -1743735.32845  22553204.3524                   22553203.0164
 11  8 12 18  3 30.0000000  0  9G03G07G08G23G13G19G28G24G11
   1568635.81346   1217075.02043  23526335.9064                   23526336.1994
  -1641527.94148  -1261933.78546  20630691.6484                   20630689.3014
  -2429641.77048  -1868349.81645  21882903.9384                   21882903.2734
   1700129.96147   1319336.27044  23170818.9844                   23170816.7974
   1018301.15248    783458.29745  21321446.7344                   21321445.6524
    499980.89548    385681.55546  21591877.4454                   21591874.4884
  -1753984.79747  -1361462.84445  22923078.8524                   22923077.7584
  -2148559.82846  -1649093.89143  24024607.0164                   24024610.5434
  -2372332.75047  -1822715.90644  22533916.0864                   22533915.1134
 11  8 12 18  4  0.0000000  0  9G03G07G08G23G13G19G28G24G11
   1639217.71146   1272073.87143  23539767.2664                   23539767.5474
  -1711059.86748  -1316114.52046  20617460.1954                   20617457.8954
  -2535727.74248  -1951014.21945  21862716.7664                   21862715.2854
   1776110.38347   1378541.64144  23185277.3914                   23185275.5704
   1066570.38348    821070.60945  21330631.8914                   21330630.7934
    526648.63348    406461.57446  21596952.4774                   21596949.1094
  -1830577.91847  -1421145.78145  22908503.8134                   22908502.4064
  -2258388.21146  -1734674.46943  24003707.1644                   24003710.5314
  -2473494.79747  -1901543.46544  22514665.6484                   22514664.7854
 11  8 12 18  4 30.0000000  0  9G03G07G08G23G13G19G28G24G11
   1709887.09446   1327140.84443  23553215.3754                   23553215.2274
  -1780410.28148  -1370153.80546  20604263.4384                   20604261.1054
  -2641822.68448  -2033685.59445  21842527.9384                   21842526.9734
   1852140.12146   1437785.41444  23199745.1564                   23199743.8284
   1115158.63747    858931.52046  21339878.0164                   21339876.9344
    553716.53548    427553.42246  21602103.3284                   21602099.8754
  -1907083.36347  -1480760.38345  22893945.1484                   22893943.7624
  -2368298.72746  -1820319.05943  23982792.7424                   23982795.5474
  -2574454.67247  -1980213.49644  22495454.1644                   22495452.5824
 11  8 12 18  5  0.0000000  0  9G03G07G08G23G13G19G28G24G11
   1780636.51646   1382270.24643  23566678.4384                   23566677.7544
  -1849581.48448  -1424053.45746  20591100.5944                   20591098.5044
  -2747929.34848  -2116366.10245  21822336.0784                   21822335.4144
   1928212.33247   1497062.29744  23214221.0784                   23214219.7814
   1164058.97348    897035.60246  21349183.6564                   21349182.1294
    581178.04748    448951.98045  21607328.9454                   21607325.6954
  -1983506.19547  -1540310.61745  22879402.6804                   22879400.8204
  -2478292.99247  -1906028.91443  23961861.5864                   23961863.9774
  -2675213.63347  -2058726.96944  22476280.3754                   22476279.2584
 11  8 12 18  5 30.0000000  0  9G03G07G08G23G13G19G28G24G11
   1851468.74646   1437464.14143  23580157.2114                   23580157.0274
  -1918566.01648  -1477807.64146  20577973.0784                   20577970.8594
  -2854040.53148  -2199050.14845  21802144.2894                   21802143.0634
   2004329.34046   1556374.07444  23228705.9224                   23228704.6414
   1213274.22347    935385.07045  21358548.8524                   21358547.5784
    609036.34448    470659.70746  21612629.9534                   21612626.7034
  -2059842.05547  -1599793.08645  22864876.3914                   22864874.8794
  -2588362.34846  -1991797.22343  23940915.9384                   23940918.1804
  -2775763.33247  -2137077.38344  22457146.2974                   22457144.9494
 11  8 12 18  6  0.0000000  0  9G03G07G08G23G13G19G28G24G11
   1922373.05546   1492714.16443  23593650.3754                   23593649.6094
  -1987370.27348  -1531421.35546  20564880.1334                   20564878.2074
  -2960162.47748  -2281742.56645  21781949.4774                   21781948.7234
   2080480.02047   1615712.08644  23243197.0634                   23243196.1724
   1262793.50447    973971.44545  21367972.2504                   21367970.7504
    637280.75848    492668.30946  21618005.1414                   21618001.5944
  -2136100.02047  -1659214.85245  22850364.9774                   22850363.0234
  -2698512.02046  -2077628.15243  23919955.6804                   23919958.1644
  -2876108.82847  -2215268.67645  22438051.0784                   22438050.3674
 11  8 12 18  6 30.0000000  0  9G03G07G08G23G13G19G28G24G11
   1993345.69546   1548017.48443  23607155.9774                   23607155.5394
  -2055992.99648  -1584893.60246  20551821.7114                   20551819.6454
  -3066293.98448  -2364442.43045  21761753.9614                   21761752.1884
   2156660.91046   1675073.62144  23257694.2664                   23257692.8094
   1312613.09048   1012791.83645  21377452.7034                   21377451.5904
    665907.94948    514975.19146  21623452.6804                   21623449.5004
  -2212281.13747  -1718576.74244  22835867.8524                   22835866.8794
  -2808740.04346  -2163520.14543  23898979.4224                   23898982.3164
  -2976247.83647  -2293299.07445  22418995.5234                   22418994.2854
 11  8 12 18  7  0.0000000  0  9G03G07G08G23G13G19G28G24G11
   2064389.96946   1603376.57043  23620674.9614                   23620675.2464
  -2124426.87548  -1638218.71146  20538799.1644                   20538796.8524
  -3172427.65248  -2447143.98045  21741556.8524                   21741555.7504
   2232874.34047   1734460.53544  23272197.0474                   23272195.6414
   1362735.61748   1051848.27045  21386990.7974                   21386989.3094
    694921.40248    537583.04746  21628973.5704                   21628970.4184
  -2288381.05947  -1777875.36345  22821386.7734                   22821385.0044
  -2919038.02346  -2249466.60943  23877990.2894                   23877993.3364
  -3076172.08647  -2371162.13745  22399980.1024                   22399979.1414
 11  8 12 18  7 30.0000000  0  9G03G07G08G23G13G19G28G24G11
   2135499.79346   1658786.79343  23634207.7814                   23634206.0984
  -2192673.29748  -1691397.74246  20525812.1414                   20525809.8094
  -3278564.92648  -2529848.33645  21721359.6094                   21721358.7934
   2309114.41047   1793868.19944  23286705.4224                   23286704.6094
   1413155.60248   1091136.49646  21396585.5234                   21396584.2304
    724315.46548    560487.47746  21634567.5634                   21634563.6454
  -2364403.71147  -1837113.77345  22806919.4064                   22806918.2464
  -3029406.04346  -2335467.64143  23856988.1484                   23856990.8874
  -3175881.50447  -2448857.78545  22381006.8594                   22381005.3634
 11  8 12 18  8  0.0000000  0  9G03G07G08G23G13G19G28G24G11
   2206669.28946   1714243.48043  23647750.3524                   23647750.4654
  -2260733.10948  -1744431.36746  20512861.0784                   20512858.5474
  -3384706.71548  -2612556.21545  21701161.2814                   21701160.4454
   2385375.36347   1853292.14844  23301217.8444                   23301216.4844
   1463867.19548   1130651.94545  21406235.8364                   21406234.5514
    754084.37548    583683.98846  21640232.2194                   21640228.7464
  -2440353.09847  -1896295.10245  22792466.7974                   22792465.8594
  -3139844.16447  -2421523.28943  23835972.3984                   23835974.9574
  -3275376.16047  -2526386.08245  22362073.0394                   22362071.7234
 11  8 12 18  8 30.0000000  0  9G03G07G08G23G13G19G28G24G11
   2277900.43446   1769748.27743  23661304.8134                   23661304.2114
  -2328599.90248  -1797314.58646  20499946.2274                   20499944.1884
  -3490847.18448  -2695263.07445  21680963.5164                   21680962.3444
   2461658.46547   1912733.35244  23315733.5864                   23315732.6884
   1514871.93048   1170395.81645  21415941.3134                   21415940.1454
    784229.98448    607174.05146  21645968.5004                   21645965.2544
  -2516225.35247  -1955416.32844  22778029.0704                   22778027.2624
  -3250345.02346  -2507627.82043  23814945.1954                   23814946.6914
  -3374649.09047  -2603741.60545  22343181.8594                   22343180.9654
 11  8 12 18  9  0.0000000  0  9G03G07G08G23G13G19G28G24G11
   2349183.93846   1825293.83643  23674870.1724                   23674869.3674
  -2396278.57848  -1850051.22346  20487067.6644                   20487065.0124
  -3596990.93448  -2777972.48445  21660765.1334                   21660763.9384
   2537954.55947   1972184.66444  23330252.4384                   23330251.7304
   1566160.88348   1210361.14845  21425701.5234                   21425700.3794
    814743.80948    630951.02346  21651775.5234                   21651772.1174
  -2592027.61747  -2014483.02045  22763604.4384                   22763602.7704
  -3360912.03946  -2593783.89143  23793904.5784                   23793906.8984
  -3473703.66047  -2680926.97745  22324332.4144                   22324331.2384
 11  8 12 18  9 30.0000000  0  9G03G07G08G23G13G19G28G24G11
   2420524.67646   1880883.95343  23688445.5554                   23688445.3594
  -2463759.95748  -1902634.12546  20474226.1884                   20474223.6294
  -3703129.09048  -2860677.53945  21640567.4774                   21640566.5824
   2614268.01247   2031649.51244  23344774.5944                   23344773.1994
   1617738.75848   1250551.62145  21435516.3204                   21435515.5864
    845630.51648    655018.56346  21657652.9534                   21657649.7544
  -2667753.82447  -2073490.44944  22749194.3054                   22749192.5744
  -3471534.86346  -2679983.44543  23772853.2504                   23772856.4024
  -3572529.34047  -2757934.00045  22305526.8524                   22305525.3484
 11  8 12 18 10  0.0000000  0  9G03G07G08G23G13G19G28G24G11
   2491909.96546   1936508.82443  23702030.0634                   23702029.4384
  -2531051.60248  -1955069.17646  20461420.9454                   20461418.5904
  -3809268.90248  -2943383.88345  21620369.9774                   21620368.7384
   2690586.44947   2091118.23444  23359297.7034                   23359296.7304
   1669592.54748   1290957.09445  21445383.6334                   21445382.5704
    876878.06348    679367.27046  21663599.2814                   21663596.1994
  -2743413.96547  -2132446.38745  22734796.2344                   22734794.6684
  -3582220.08246  -2766231.58243  23751790.4304                   23751793.8634
  -3671133.02747  -2834768.03545  22286762.9844                   22286762.0864
 11  8 12 18 10 30.0000000  0  9G03G07G08G23G13G19G28G24G11
   2563336.11346   1992165.50043  23715621.7664                   23715621.6054
  -2598152.63748  -2007355.70746  20448652.0084                   20448649.7304
  -3915409.57048  -3026090.89145  21600171.7664                   21600170.7814
   2766905.64547   2150587.55944  23373820.7734                   23373820.2814
   1721718.39547   1331574.55945  21455303.2894                   21455302.0474
    908482.63348    703994.16846  21669612.9844                   21669609.8834
  -2819010.35247  -2191352.64844  22720410.9774                   22720409.2664
  -3692965.78147  -2852526.87943  23730716.6564                   23730719.2814
  -3769512.84847  -2911427.61345  22268041.8284                   22268040.6414
 11  8 12 18 11  0.0000000  0  9G03G07G08G23G13G19G28G24G11
   2634798.85546   2047850.69143  23729221.1254                   23729220.7814
  -2665063.37548  -2059493.94946  20435919.6804                   20435916.8444
  -4021551.48448  -3108798.87145  21579973.8364                   21579972.2704
   2843220.66447   2210053.62944  23388343.6414                   23388342.4614
   1774111.43847   1372400.21545  21465273.3284                   21465272.3404
    940439.59048    728895.66446  21675694.5314                   21675691.4654
  -2894545.86747  -2250211.48445  22706036.8054                   22706035.4344
  -3803771.29347  -2938868.78143  23709630.8134                   23709633.5084
  -3867667.98047  -2987912.12545  22249363.4694                   22249363.0164
 11  8 12 18 11 30.0000000  0  9G03G07G08G23G13G19G28G24G11
   2706294.29346   2103561.38743  23742826.2894                   23742825.8284
  -2731782.17648  -2111482.62946  20423223.3834                   20423220.7544
  -4127693.14148  -3191506.65245  21559775.8754                   21559774.2504
   2919528.35247   2269513.95743  23402864.4454                   23402863.3984
   1826768.52748   1413431.62945  21475293.2894                   21475292.6454
    972746.12948    754069.55146  21681842.3364                   21681838.8444
  -2970021.78947  -2309023.88345  22691674.7734                   22691672.5554
  -3914633.91447  -3025255.14843  23688534.5474                   23688537.2384
  -3965595.74647  -3064219.46545  22230728.2584                   22230727.4964
 11  8 12 18 12  0.0000000  0  9G03G07G08G23G13G19G28G24G11
   2777820.16046   2159295.73443  23756436.4304                   23756436.8364
  -2798307.38348  -2163320.46546  20410563.8284                   20410561.3324
  -4233832.46548  -3274212.60945  21539578.2504                   21539576.5904
   2995825.73047   2328966.30143  23417383.1884                   23417382.8484
   1879686.86748   1454666.61345  21485363.8834                   21485362.8014
   1005399.49648    779513.71146  21688055.8054                   21688052.5164
  -3045438.67647  -2367790.27045  22677323.1804                   22677321.2074
  -4025550.68447  -3111683.73043  23667427.7424                   23667430.2624
  -4063293.76647  -3140347.77045  22212136.9694                   22212135.9774
 11  8 12 18 12 30.0000000  0  9G03G07G08G23G13G19G28G24G11
   2849369.10546   2215048.08243  23770052.1414                   23770052.5944
  -2864642.09848  -2215009.85946  20397940.8524                   20397938.1954
  -4339972.55148  -3356919.16845  21519380.1174                   21519379.1254
   3072104.75447   2388404.28544  23431898.6484                   23431897.9924
   1932858.87948   1496099.27345  21495482.4144                   21495480.9924
   1038392.35548    805222.38746  21694334.2274                   21694330.9454
  -3120802.57047  -2426515.35245  22662981.6724                   22662980.0084
  -4136523.68747  -3198156.11343  23646310.3364                   23646312.8634
  -4160763.88747  -3216298.49645  22193589.7194                   22193588.0784
 11  8 12 18 13  0.0000000  0  9G03G07G08G23G13G19G28G24G11
   2920943.58246   2270820.31643  23783672.0004                   23783672.4774
  -2930778.94148  -2266545.08246  20385355.4534                   20385353.1334
  -4446106.48448  -3439620.92645  21499183.4454                   21499182.4344
   3148368.25047   2447830.18043  23446411.2424                   23446410.2384
   1986286.98848   1537731.48045  21505649.1174                   21505648.2894
   1071727.40248    831197.72346  21700677.9064                   21700674.1414
  -3196108.85247  -2485195.55545  22648651.7114                   22648649.8094
  -4247544.42246  -3284665.69543  23625183.2424                   23625186.4184
  -4257997.66047  -3292065.05545  22175086.3984                   22175084.7274
 11  8 12 18 13 30.0000000  0  9G03G07G08G23G13G19G28G24G11
   2992540.63746   2326610.18043  23797296.7814                   23797296.9734
  -2996716.57447  -2317925.07046  20372808.1174                   20372805.5474
  -4552232.50448  -3522316.52045  21478988.6254                   21478987.5124
   3224612.77747   2507241.30543  23460920.1884                   23460919.5904
   2039967.57047   1579560.42645  21515864.2274                   21515863.2584
   1105401.82048    857437.50046  21707085.6564                   21707082.0984
  -3271359.05547  -2543832.04745  22634331.7274                   22634330.3094
  -4358610.24647  -3371210.43743  23604048.6094                   23604051.1564
  -4354992.65247  -3367645.54345  22156628.9064                   22156627.6334
 11  8 12 18 14  0.0000000  0  9G03G07G08G23G13G19G28G24G11
   4639558.40246   3610000.57843  24110714.5704                   24110714.6024
  -1487047.79748  -1141559.79746  20660088.1334                   20660085.9924
  -3082941.94948  -2377414.78546  21758585.5084                   21758583.7344
   4876236.04346   3794220.25843  23775213.8524                   23775212.9144
   3669299.14848   2849169.35945  21825915.8754                   21825914.8594
   2714814.59848   2111525.34445  22013346.8834                   22013344.1024
  -1771148.03547  -1374836.43445  22919812.6484                   22919810.8554
  -2894311.34847  -2230198.25843  23882694.9144                   23882697.6914
  -2876339.86347  -2215448.55945  22438007.3284                   22438006.1524
 11  8 12 18 14 30.0000000  0  9G03G07G08G23G13G19G28G24G11
   4711167.28146   3665799.59843  24124340.6334                   24124340.4534
  -1552606.68048  -1192644.64846  20647612.7734                   20647610.5004
  -3189071.57448  -2460113.18045  21738389.7194                   21738388.4344
   4952408.64547   3853575.32043  23789709.0944                   23789709.0824
   3723450.87547   2891365.42245  21836220.7974                   21836219.7034
   2749134.05548   2138267.74245  22019878.0004                   22019873.9344
  -1846313.82847  -1433407.15245  22905508.8754                   22905507.3634
  -3005484.03547  -2316826.28544  23861539.3834                   23861542.5984
  -2972874.43047  -2290670.26645  22419637.3054                   22419635.8914
 11  8 12 18 15  0.0000000  0  9G03G07G08G23G13G19G28G24G11
   4782784.98046   3721605.56643  24137969.6804                   24137969.5204
  -1617966.42248  -1243574.33646  20635175.5784                   20635173.1644
  -3295193.37148  -2542805.49245  21718195.1334                   21718193.8484
   5028547.58247   3912904.11744  23804198.8524                   23804197.7344
   3777840.68048   2933747.00045  21846570.7504                   21846569.8794
   2783779.03948   2165263.81345  22026470.4844                   22026466.8914
  -1921431.69147  -1491940.55145  22891214.7894                   22891212.8404
  -3116698.77347  -2403487.05544  23840376.1254                   23840378.8284
  -3069167.69547  -2365703.97345  22401312.8914                   22401311.6524
 11  8 12 18 15 30.0000000  0  9G03G07G08G23G13G19G28G24G11
   4854399.10246   3777408.68443  24151597.0704                   24151597.1024
  -1683134.85548  -1294354.94546  20622774.2734                   20622771.9104
  -3401314.96548  -2625497.63345  21698000.6724                   21697999.5744
   5104640.59047   3972197.15244  23818679.0004                   23818677.9104
   3832456.07848   2976304.36345  21856964.0164                   21856962.8914
   2818737.17648   2192503.87945  22033122.5634                   22033119.6884
  -1996512.19147  -1550444.81645  22876927.1484                   22876925.3134
  -3227962.14547  -2490185.71144  23819202.9224                   23819206.1764
  -3165226.71547  -2440555.12945  22383033.4924                   22383032.1414
 11  8 12 18 16  0.0000000  0  9G03G07G08G23G13G19G28G24G11
   4926008.75446   3833208.38343  24165224.0634                   24165224.6454
  -1748109.05148  -1344984.19946  20610410.3674                   20610407.7384
  -3507433.28948  -2708187.23445  21677806.8524                   21677805.6724
   5180685.92647   4031453.00844  23833150.0004                   23833149.3834
   3887295.20747   3019036.06345  21867399.5474                   21867398.6914
   2854007.00048   2219986.84446  22039834.1804                   22039831.1054
  -2071555.03147  -1608919.73445  22862647.0784                   22862645.4344
  -3339269.84447  -2576918.92244  23798022.2424                   23798024.5784
  -3261047.15247  -2515220.39145  22364799.5314                   22364798.0004
 11  8 12 18 16 30.0000000  0  9G03G07G08G23G13G19G28G24G11
   4997610.09846   3889001.59842  24178850.3984                   24178849.7774
  -1812888.12948  -1395461.40646  20598083.1954                   20598080.4654
  -3613547.01648  -2790873.23846  21657614.6174                   21657613.2034
   5256679.96947   4090668.92244  23847610.9844                   23847610.4184
   3942354.53147   3061939.34045  21877877.0944                   21877876.0554
   2889585.18848   2247710.08245  22046604.8754                   22046601.2774
  -2146561.93747  -1667366.65245  22848373.6884                   22848371.6884
  -3450619.81647  -2663685.05944  23776833.2734                   23776835.6134
  -3356627.01647  -2589698.18045  22346610.9454                   22346609.8364
 11  8 12 18 17  0.0000000  0  9G03G07G08G23G13G19G28G24G11
   5069198.87546   3944785.00043  24192472.7034                   24192473.1294
  -1877471.40248  -1445786.05546  20585793.1024                   20585790.8984
  -3719655.91848  -2873555.50446  21637422.3914                   21637421.1174
   5332618.40647   4149841.50044  23862062.2734                   23862061.4064
   3997629.43047   3105010.59045  21888395.7424                   21888394.8874
   2925467.38348   2275670.19945  22053432.8594                   22053429.5944
  -2221535.40647  -1725787.53545  22834106.5164                   22834104.6724
  -3562010.50847  -2750482.92244  23755636.1174                   23755638.5634
  -3451965.27047  -2663987.71945  22328469.2584                   22328467.6254
 11  8 12 18 17 30.0000000  0  9G03G07G08G23G13G19G28G24G11
   5140769.09046   4000553.97343  24206092.0554                   24206092.4264
  -1941860.77748  -1495959.60246  20573540.4144                   20573537.9224
  -3825761.66848  -2956235.29746  21617231.3364                   21617230.2624
   5408494.46947   4208965.48844  23876500.9224                   23876500.4494
   4053113.33647   3148244.71545  21898953.9844                   21898952.9734
   2961647.40647   2303862.38745  22060317.9694                   22060314.3524
  -2296480.26247  -1784186.10245  22819845.3054                   22819843.3874
  -3673442.57447  -2837313.03143  23734431.2664                   23734433.4344
  -3547062.57047  -2738089.50045  22310372.3054                   22310371.3674
 11  8 12 18 18  0.0000000  0  9G03G07G08G23G13G19G28G24G11
   5212321.45746   4056309.09443  24219707.9844                   24219707.4964
  -2006051.53948  -1545978.38746  20561325.4144                   20561323.2854
  -3931858.51248  -3038908.15646  21597041.9614                   21597040.5514
   5484308.75847   4268041.32043  23890928.3524                   23890927.5984
   4108806.65647   3191642.00845  21909552.0704                   21909550.9694
   2998125.69948   2332287.00845  22067259.4774                   22067255.6844
  -2371393.77047  -1842560.25445  22805588.9454                   22805587.6644
  -3784909.61747  -2924170.39144  23713219.3834                   23713222.2344
  -3641912.83647  -2811998.77345  22292323.2894                   22292321.7194
 11  8 12 18 18 30.0000000  0  9G03G07G08G23G13G19G28G24G11
   5283846.28946   4112042.68843  24233318.7194                   24233318.3954
  -2070048.23048  -1595845.95746  20549146.9304                   20549144.8794
  -4037951.62948  -3121578.10546  21576853.0474                   21576851.8094
   5560051.18846   4327061.17243  23905341.6954                   23905341.1054
   4164699.46148   3235194.75045  21920188.0394                   21920187.3834
   3034892.82048   2360936.68445  22074255.7664                   22074252.6724
  -2446283.87547  -1900916.16445  22791338.7114                   22791336.6214
  -3896415.58247  -3011058.07043  23692000.7814                   23692003.2384
  -3736520.41047  -2885718.95345  22274319.6414                   22274318.1214
 11  8 12 18 19  0.0000000  0  9G03G07G08G23G13G19G28G24G11
   5355328.41046   4167742.99243  24246921.1804                   24246921.1484
  -2133861.81248  -1645570.83646  20537003.7734                   20537001.6644
  -4144051.89548  -3204253.63346  21556662.5944                   21556661.6134
   5635706.32046   4386012.97743  23919738.2584                   23919738.3244
   4220776.10948   3278890.74245  21930859.2424                   21930858.1454
   3071933.30148   2389799.37945  22081304.4924                   22081301.4574
  -2521163.99247  -1959264.28545  22777089.0474                   22777087.2384
  -4007970.22346  -3097983.69943  23670771.9144                   23670774.8984
  -3830895.04347  -2959257.60545  22256361.3594                   22256359.6994
 11  8 12 18 19 30.0000000  0  8G07G08G23G13G19G28G24G11
  -2197476.02348  -1695140.35946  20524898.3444                   20524896.2464
  -4250142.68048  -3286921.77346  21536474.3204                   21536473.0394
   5711286.05546   4444906.03943  23934121.0944                   23934120.6994
   4277048.11748   3322738.97345  21941567.6254                   21941566.2894
   3109258.89548   2418884.23445  22088407.3364                   22088403.6524
  -2596020.64147  -2017594.13745  22762844.2114                   22762842.1214
  -4119555.85946  -3184933.46144  23649538.4694                   23649540.9614
  -3925019.49647  -3032601.31245  22238449.6024                   22238448.4964
 11  8 12 18 20  0.0000000  0  8G07G08G23G13G19G28G24G11
  -2260877.25848  -1744543.92646  20512833.3134                   20512830.9384
  -4356209.69948  -3369571.39146  21516290.4774                   21516289.0634
   5786799.22347   4503747.21943  23948490.8054                   23948490.3164
   4333524.35548   3366746.33245  21952314.9534                   21952313.9224
   3146878.64148   2448198.30145  22095566.3444                   22095563.1764
  -2670842.94947  -2075897.22345  22748606.0704                   22748604.1804
  -4231157.69147  -3271895.82843  23628301.1804                   23628303.4494
  -4018879.39147  -3105738.86345  22220588.5314                   22220587.4144
 11  8 12 18 20 30.0000000  0  8G07G08G23G13G19G28G24G11
  -2324074.80948  -1793788.78146  20500807.5944                   20500805.3244
  -4462262.87548  -3452210.21546  21496109.0864                   21496107.4264
   5862231.84046   4562525.64843  23962845.1024                   23962845.0824
   4390190.55947   3410901.71545  21963098.2344                   21963097.2274
   3184778.58248   2477730.69945  22102778.1334                   22102774.8674
  -2745643.12147  -2134183.07045  22734372.0864                   22734369.9884
  -4342783.97747  -3358877.27343  23607059.4534                   23607061.5944
  -4112483.42647  -3178677.05545  22202776.7974                   22202774.9654
 11  8 12 18 21  0.0000000  0  8G07G08G23G13G19G28G24G11
  -2387064.24648  -1842871.47746  20488820.6094                   20488818.9694
  -4568297.44148  -3534834.54346  21475931.5394                   21475930.0824
   5937583.37546   4621240.87543  23977184.4454                   23977184.6484
   4447046.41448   3455204.88745  21973917.1334                   21973916.4924
   3222958.87548   2507481.54345  22110044.1024                   22110040.7034
  -2820419.20747  -2192450.13745  22720142.3594                   22720140.7974
  -4454428.80147  -3445873.15643  23585814.1724                   23585816.0664
  -4205826.02747  -3251411.53545  22185014.2974                   22185012.8834
 11  8 12 18 21 30.0000000  0  8G07G08G23G13G19G28G24G11
  -2449842.50048  -1891789.60946  20476874.7194                   20476872.2074
  -4674309.40248  -3617441.26246  21455758.0944                   21455756.6454
   6012852.63346   4679891.96543  23991507.8054                   23991507.3364
   4504090.34448   3499654.60545  21984772.6094                   21984772.1524
   3261417.96147   2537449.64145  22117362.3754                   22117358.8484
  -2895170.77747  -2250698.10245  22705917.6564                   22705916.1684
  -4566087.85947  -3532880.11343  23564565.5554                   23564567.8444
  -4298903.32448  -3323939.27045  22167301.9304                   22167300.6414
 11  8 12 18 22  0.0000000  0  8G07G08G23G13G19G28G24G11
  -2512406.64148  -1940540.88346  20464968.9144                   20464966.7154
  -4780295.83648  -3700028.07846  21435589.1804                   21435588.5594
   6088037.93846   4738477.66043  24005815.1484                   24005815.5634
   4561320.37947   3544249.33645  21995662.9224                   21995662.1214
   3300154.05147   2567633.57845  22124733.5784                   22124730.2074
  -2969897.74647  -2308926.90645  22691697.8524                   22691695.8554
  -4677757.22747  -3619895.14144  23543315.5784                   23543317.8364
  -4391711.15248  -3396257.03945  22149641.2424                   22149640.1564
 11  8 12 18 22 30.0000000  0  8G07G08G23G13G19G28G24G11
  -2574755.98448  -1989124.80546  20453104.1724                   20453101.9654
  -4886255.83648  -3782594.31246  21415426.0164                   21415424.8674
   6163135.17246   4796994.73043  24020106.4064                   24020106.2074
   4618732.09047   3588985.63745  22006588.0234                   22006587.4694
   3339163.16047   2598030.25445  22132156.7894                   22132153.7304
  -3044602.27047  -2367138.19545  22677481.7894                   22677480.0084
  -4789434.96547  -3706916.69543  23522063.7814                   23522066.2504
  -4484248.37547  -3468363.95345  22132032.1024                   22132030.6884
 11  8 12 18 23  0.0000000  0  8G07G08G23G13G19G28G24G11
  -2636887.46948  -2037538.95346  20441281.2424                   20441279.1724
  -4992186.03948  -3865137.31246  21395268.2974                   21395266.4924
   6238142.95746   4855442.09043  24034380.1174                   24034380.2934
   4676324.01648   3633862.33645  22017547.8914                   22017547.0944
   3378444.14847   2628638.77745  22139631.6094                   22139628.3754
  -3119283.99247  -2425331.73445  22663270.2504                   22663268.9064
  -4901116.44547  -3793941.15243  23500811.7814                   23500813.3014
  -4576510.73448  -3540256.68045  22114474.7814                   22114473.8364
 11  8 12 18 23 30.0000000  0  8G07G08G23G13G19G28G24G11
  -2698802.18448  -2085784.19546  20429499.3524                   20429497.3634
  -5098087.32448  -3947657.79346  21375115.6024                   21375114.3164
   6313055.69546   4913815.39543  24048635.0554                   24048635.6174
   4734089.93847   3678874.64845  22028540.5234                   22028539.4024
   3417990.97347   2659454.43445  22147157.3134                   22147154.1914
  -3193946.80947  -2483510.54345  22649062.6564                   22649060.8714
  -5012802.00847  -3880968.82444  23479558.8444                   23479560.6524
  -4668498.85248  -3611935.72745  22096970.1484                   22096968.9384
 11  8 12 18 24  0.0000000  0  8G07G08G23G13G19G28G24G11
  -2760493.23848  -2133855.16446  20417759.6884                   20417757.4104
  -5203952.44148  -4030150.09046  21354970.2894                   21354969.0594
   6387875.00447   4972115.87543  24062872.8674                   24062872.8204
   4792032.28147   3724024.41845  22039566.2274                   22039565.3204
   3457806.41447   2690479.42245  22154733.7894                   22154730.7854
  -3268586.18747  -2541671.07845  22634858.8984                   22634857.1644
  -5124483.13347  -3967993.03144  23458306.8674                   23458308.4414
  -4760204.71947  -3683394.82445  22079519.1724                   22079517.8954
 11  8 12 18 24 30.0000000  0  8G07G08G23G13G19G28G24G11
  -2821952.23848  -2181745.29346  20406064.3914                   20406062.5904
  -5309772.64848  -4112607.37146  21334833.4614                   21334832.0004
   6462604.87547   5030346.67243  24077093.6954                   24077094.0204
   4850154.30548   3769314.20345  22050626.8284                   22050626.3954
   3497894.04747   2721716.50045  22162362.3444                   22162359.3094
  -3343196.66847  -2599809.09045  22620661.3364                   22620659.9064
  -5236150.29347  -4055006.34844  23437056.7814                   23437058.7584
  -4851619.15647  -3754626.84445  22062123.4534                   22062122.2974
 11  8 12 18 25  0.0000000  0  8G07G08G23G13G19G28G24G11
  -2883172.39848  -2229449.32846  20394414.7114                   20394412.5164
  -5415540.72348  -4195024.05146  21314706.3284                   21314705.0204
   6537247.61347   5088509.54843  24091298.0004                   24091299.0314
   4908458.38347   3814745.84445  22061721.4774                   22061721.0084
   3538256.09447   2753167.41045  22170043.1884                   22170040.0004
  -3417774.10947  -2657921.37145  22606469.7424                   22606467.8324
  -5347795.41447  -4142002.49244  23415811.4534                   23415813.6604
  -4942734.59447  -3825625.85945  22044784.8834                   22044783.3164
 11  8 12 18 25 30.0000000  0  8G07G08G23G13G19G28G24G11
  -2944160.17248  -2276972.27746  20382809.3204                   20382807.1914
  -5521262.77748  -4277404.85546  21294588.3204                   21294587.2424
   6611792.33647   5146596.05143  24105483.4304                   24105484.5044
   4966932.96547   3860310.34445  22072848.9534                   22072848.0944
   3578881.37947   2784823.43445  22177774.2584                   22177771.2384
  -3492327.44547  -2716014.86745  22592282.3984                   22592280.5314
  -5459423.55547  -4228985.41044  23394569.6644                   23394571.4144
  -5033556.59048  -3896396.22745  22027501.9694                   22027500.8754
 11  8 12 18 26  0.0000000  0  8G07G08G23G13G19G28G24G11
  -3004911.35948  -2324310.87546  20371248.8444                   20371246.4924
  -5626934.25448  -4359746.25446  21274479.6484                   21274478.2734
   6686238.56647   5204605.83243  24119651.3594                   24119650.9694
   5025577.44148   3906007.23845  22084009.0394                   22084008.0274
   3619769.78547   2816684.50045  22185554.5704                   22185551.5044
  -3566855.57847  -2774088.73445  22578100.2034                   22578098.6764
  -5571029.28947  -4315950.85944  23373331.1024                   23373333.6684
  -5124080.07047  -3966934.00045  22010275.8674                   22010274.3794
 11  8 12 18 26 30.0000000  0  8G07G08G23G13G19G28G24G11
  -3065433.65248  -2371471.11346  20359731.5394                   20359729.4774
  -5732563.03148  -4442054.38346  21254379.0474                   21254377.8444
   6760573.81646   5262529.10543  24133796.6174                   24133797.2384
   5084379.12948   3951826.62545  22095198.9384                   22095197.8054
   3660908.70747   2848740.75045  22193383.4384                   22193379.7734
  -3641368.97747  -2832151.10945  22563920.7274                   22563919.4454
  -5682619.19947  -4402904.02344  23352096.6884                   23352098.6484
  -5214312.22748  -4037244.75445  21993105.3594                   21993104.2114
 11  8 12 18 27  0.0000000  0  8G07G08G23G13G19G28G24G11
  -3125725.44548  -2418451.73446  20348258.6254                   20348256.2704
  -5838146.84448  -4524327.47346  21234287.1884                   21234285.9884
   6834795.43846   5320363.81643  24147920.8674                   24147921.5164
   5143334.92647   3997766.11745  22106417.9454                   22106416.9304
   3702295.48847   2880990.15645  22201259.2734                   22201255.7384
  -3715868.58647  -2890202.76245  22549744.1644                   22549742.8404
  -5794190.14847  -4489842.38744  23330864.9454                   23330867.3204
  -5304250.68748  -4107326.66045  21975990.4304                   21975989.0234
 11  8 12 18 27 30.0000000  0  8G07G08G23G13G19G28G24G11
  -3185786.00048  -2465252.17646  20336829.6254                   20336827.2704
  -5943684.57848  -4606564.66846  21214204.2034                   21214202.7074
   6908899.73447   5378107.11743  24162022.8914                   24162023.9804
   5202440.93047   4043822.63745  22117665.0864                   22117664.4104
   3743926.16047   2913429.60945  22209181.1094                   22209177.5124
  -3790356.37147  -2948245.18045  22535569.6954                   22535568.0864
  -5905740.05947  -4576764.33244  23309637.8444                   23309639.8914
  -5393894.00847  -4177178.57845  21958931.9384                   21958930.5704
 11  8 12 18 28  0.0000000  0  9G17G07G08G23G13G19G28G24G11
   1295923.27755   1056908.57852  24452257.2584                   24452261.9264
  -3245607.37948  -2511866.25046  20325445.8524                   20325443.7154
  -6049167.55548  -4688759.17646  21194131.0394                   21194129.9964
   6982889.73846   5435761.36343  24176102.3754                   24176103.5904
   5261700.19547   4089998.58245  22128941.7734                   22128940.8284
   3785804.11347   2946061.75045  22217150.3754                   22217146.9694
  -3864826.84847  -3006274.11345  22521398.1414                   22521396.6914
  -6017259.73447  -4663662.74644  23288416.4064                   23288418.8754
  -5483232.89847  -4246793.28545  21941931.3594                   21941930.3634
 11  8 12 18 28 30.0000000  0  9G17G07G08G23G13G19G28G24G11
   1150852.10545    943866.30142  24424651.7274                   24424656.7894
  -3305196.32448  -2558299.19146  20314106.2274                   20314104.0824
  -6154602.31648  -4770916.13746  21174067.8754                   21174066.3204
   7056754.71146   5493318.19943  24190158.8364                   24190159.7424
   5321100.97347   4136284.79745  22140245.1094                   22140244.8914
   3827917.69947   2978877.50045  22225164.2584                   22225160.9454
  -3939289.38747  -3064296.85545  22507228.1564                   22507226.3954
  -6128754.58647  -4750541.78944  23267199.6724                   23267201.8524
  -5572273.72747  -4316175.73045  21924987.3204                   21924986.2854
 11  8 12 18 29  0.0000000  0  9G17G07G08G23G13G19G28G24G11
   1005783.13346    830825.66442  24397046.5004                   24397049.8484
  -3364539.99648  -2604541.02746  20302813.7894                   20302811.6024
  -6259975.51248  -4853025.09846  21154015.5394                   21154014.6024
   7130502.37946   5550783.59443  24204192.8364                   24204193.8484
   5380651.50047   4182687.69545  22151577.3674                   22151577.1214
   3870275.69947   3011883.71145  22233224.5634                   22233221.1254
  -4013734.01647  -3122305.64845  22493062.6484                   22493060.7194
  -6240210.40647  -4837390.42244  23245989.8444                   23245992.5164
  -5661002.66447  -4385315.14545  21908103.0164                   21908101.1914
 11  8 12 18 29 30.0000000  0  9G17G07G08G23G13G19G28G24G11
    860711.94546    717783.28143  24369440.2974                   24369443.1604
  -3423643.09048  -2650595.39546  20291566.7584                   20291564.5274
  -6365291.20348  -4935089.27346  21133975.1334                   21133973.6094
   7204123.89846   5608150.68443  24218202.9694                   24218203.5004
   5440342.14147   4229199.75845  22162936.4614                   22162935.9414
   3912868.50047   3045072.88345  22241329.4774                   22241326.3834
  -4088168.32847  -3180306.38745  22478898.1414                   22478895.9734
  -6351630.76247  -4924211.44144  23224787.4844                   23224789.7894
  -5749424.00447  -4454214.86745  21891276.7584                   21891275.5354
 11  8 12 18 30  0.0000000  0  9G17G07G08G23G13G19G28G24G11
    715642.34847    604742.16043  24341834.6024                   24341836.6954
  -3482501.65248  -2696459.21547  20280366.2504                   20280364.0514
  -6470545.20348  -5017105.35946  21113945.5314                   21113944.6764
   7277618.69546   5665419.03143  24232188.8754                   24232189.7664
   5500172.00047   4275820.31645  22174321.9844                   22174321.4414
   3955695.74647   3078444.73845  22249479.6414                   22249476.0084
  -4162590.87947  -3238297.96545  22464735.7274                   22464733.6844
  -6463010.55547  -5011000.84044  23203592.8834                   23203594.7344
  -5837532.86747  -4522871.10545  21874510.2114                   21874509.0434
 11  8 12 18 30 30.0000000  0  9G17G07G08G23G13G19G28G24G11
    570578.17247    491705.25844  24314229.8364                   24314232.3554
  -3541112.69148  -2742130.17246  20269212.7814                   20269210.9774
  -6575733.87548  -5099070.56246  21093929.0004                   21093927.4384
   7350985.08246   5722587.28143  24246149.6804                   24246151.5554
   5560139.53147   4322548.13745  22185733.3754                   22185733.1804
   3998755.98847   3111998.14845  22257673.7814                   22257670.0824
  -4237000.89547  -3296279.77745  22450575.6884                   22450574.1174
  -6574345.05547  -5097754.94144  23182406.4454                   23182408.5594
  -5925325.49247  -4591280.92645  21857803.6094                   21857801.9884
 11  8 12 18 31  0.0000000  0  9G17G07G08G23G13G19G28G24G11
    425534.08247    378684.00044  24286628.8984                   24286631.1454
  -3599461.77748  -2787597.00447  20258109.3364                   20258107.1954
  -6680842.52748  -5180973.40246  21073927.5554                   21073925.6644
   7424233.33246   5779663.56343  24260088.5864                   24260090.3914
   5620254.17647   4369390.60945  22197172.5084                   22197172.3874
   4042058.66447   3145740.48045  22265913.6484                   22265910.4694
  -4311386.85247  -3354242.85245  22436420.4144                   22436419.0474
  -6685618.28547  -5184461.29744  23161231.4694                   23161233.7074
  -6012786.81247  -4659432.58645  21841160.9064                   21841159.2304
 11  8 12 18 31 30.0000000  0  9G17G07G08G23G13G19G28G24G11
    280509.55947    265677.97744  24259031.4304                   24259034.0124
  -3657549.66048  -2832860.30547  20247055.5944                   20247053.7344
  -6785871.32448  -5262814.02046  21053940.7734                   21053939.6684
   7497357.93046   5836643.43443  24274004.3444                   24274005.9224
   5680510.25847   4416343.28545  22208639.4694                   22208639.1254
   4085598.77747   3179667.79745  22274199.5394                   22274195.8634
  -4385752.22747  -3412189.87145  22422269.6644                   22422267.6564
  -6796829.99647  -5271119.72343  23140068.9614                   23140070.4654
  -6099916.69947  -4727325.98845  21824580.3674                   21824578.7034
 11  8 12 18 32  0.0000000  0  9G17G07G08G23G13G19G28G24G11
    135524.37546    152702.60244  24231441.4384                   24231443.6414
  -3715356.82448  -2877904.86746  20236055.3134                   20236053.2074
  -6890800.27748  -5344576.84046  21033973.6804                   21033972.4804
   7570374.32446   5893539.00443  24287899.0554                   24287900.6994
   5740922.77747   4463417.86745  22220135.5474                   22220134.9024
   4129391.37547   3213791.86345  22282532.6334                   22282529.6564
  -4460079.98447  -3470107.59445  22408125.2344                   22408123.8914
  -6907959.14547  -5357713.81644  23118921.6254                   23118923.8594
  -6186695.01247  -4794945.41845  21808066.9774                   21808065.4964
 11  8 12 18 32 30.0000000  0  9G17G07G08G23G13G19G28G24G11
     -9425.84846     39754.47344  24203858.1954                   24203860.7464
  -3772888.04348  -2922734.40246  20225107.4844                   20225105.2304
  -6995633.73848  -5426265.25046  21014024.3984                   21014023.0784
   7643272.99646   5950342.83643  24301770.5864                   24301773.1604
   5801481.63747   4510606.46545  22231659.4224                   22231659.2584
   4173426.82047   3248105.16045  22290912.2814                   22290909.1684
  -4534377.94947  -3528002.08645  22393986.7974                   22393984.9804
  -7019009.22747  -5444246.31244  23097789.5474                   23097790.8634
  -6273125.94147  -4862294.17245  21791619.4694                   21791618.2504
 11  8 12 18 33  0.0000000  0  8G17G07G08G13G19G28G24G11
   -154334.30546    -73161.07843  24176282.7584                   24176285.4614
  -3830137.02348  -2967344.01246  20214213.4304                   20214211.5084
  -7100364.51248  -5507873.63746  20994094.9924                   20994093.8874
   5862188.82047   4557910.64845  22243212.0634                   22243211.2234
   4217707.04347   3282609.19145  22299338.2664                   22299335.2894
  -4608641.75047  -3585869.97345  22379854.6884                   22379852.5394
  -7129972.41047  -5530711.08244  23076674.1334                   23076675.9844
  -6359202.23048  -4929366.58245  21775239.8364                   21775238.1024
 11  8 12 18 33 30.0000000  0  8G17G07G08G13G19G28G24G11
   1276227.02045   1041562.16843  24448509.2814                   24448512.6484
  -2311678.76248  -1784129.79746  20503166.6954                   20503164.3714
  -5629565.51248  -4361796.48446  21273978.9304                   21273977.3164
   7498460.80547   5832927.67245  22554584.0634                   22554583.9884
   5837648.68047   4544901.33245  22607603.2504                   22607600.8594
  -3107448.93747  -2416109.32845  22665522.3594                   22665520.9614
  -5665420.70747  -4389501.92244  23355369.3984                   23355370.5044
  -4869497.59048  -3768557.74245  22058721.0474                   22058719.6764
 11  8 12 18 34  0.0000000  0  8G17G07G08G13G19G28G24G11
   1131417.32046    928723.59443  24420952.6644                   24420955.7974
  -2368348.55948  -1828288.09446  20492382.7114                   20492380.7304
  -5734074.55548  -4443232.10546  21254091.5314                   21254090.1254
   7559464.80147   5880463.13744  22566193.3204                   22566192.6684
   5882419.10947   4579787.32445  22616123.1094                   22616119.8674
  -3181638.75047  -2473919.55545  22651404.4694                   22651402.8134
  -5776191.59847  -4475816.86744  23334289.9534                   23334291.2974
  -4954848.34447  -3835064.80945  22042479.2584                   22042478.1914
 11  8 12 18 34 30.0000000  0  8G17G07G08G13G19G28G24G11
    986675.67646    815937.98043  24393409.6954                   24393411.9184
  -2424710.77748  -1872206.72346  20481656.9064                   20481655.0944
  -5838454.03948  -4524566.75446  21234228.6024                   21234227.1884
   7620628.00047   5928122.64844  22577831.8834                   22577831.8594
   5927446.29347   4614873.39845  22624691.3594                   22624688.6294
  -3255777.19547  -2531689.75845  22637296.1334                   22637294.5904
  -5886846.27347  -4562041.23844  23313232.9924                   23313234.7584
  -5039817.21947  -3901274.30145  22026310.6094                   22026308.7664
 11  8 12 18 35  0.0000000  0  8G17G07G08G13G19G28G24G11
    841994.36746    703199.40643  24365877.7734                   24365879.9924
  -2480773.44148  -1915891.92246  20470988.7034                   20470986.9844
  -5942711.05948  -4605805.97746  21214389.3444                   21214387.6484
   7681937.77347   5975896.36744  22589499.1254                   22589498.3244
   5972717.62547   4650149.70345  22633306.0314                   22633303.6804
  -3329874.68447  -2589428.04745  22623196.1564                   22623194.4964
  -5997391.07447  -4648179.99244  23292197.1564                   23292198.3284
  -5124411.46548  -3967191.86345  22010212.6414                   22010210.6374
 11  8 12 18 35 30.0000000  0  8G17G07G08G13G19G28G24G11
    697378.97747    590512.15243  24338358.5394                   24338359.7384
  -2536531.54748  -1959339.81246  20460378.5554                   20460376.2424
  -6046840.49248  -4686945.79346  21194574.0704                   21194572.6374
   7743393.91447   6023784.15244  22601194.1954                   22601193.3284
   6018233.23847   4685616.35245  22641967.4144                   22641964.9384
  -3403929.20347  -2647132.86345  22609104.2114                   22609101.8594
  -6107819.93747  -4734228.42244  23271182.9384                   23271184.3284
  -5208625.74248  -4032813.35545  21994186.7664                   21994185.0434
 11  8 12 18 36  0.0000000  0  8G17G07G08G13G19G28G24G11
    552838.34847    477883.10543  24310853.5784                   24310854.0864
  -2591975.96548  -2002543.25846  20449827.4304                   20449825.4654
  -6150832.48848  -4767978.50046  21174784.5864                   21174783.2424
   7805001.21547   6071789.70744  22612917.0634                   22612917.1524
   6063997.67247   4721276.90645  22650676.4224                   22650673.4534
  -3477933.85247  -2704798.80545  22595021.3984                   22595019.5434
  -6218122.10947  -4820178.11344  23250192.9774                   23250194.7234
  -5292450.18047  -4098131.07445  21978235.4064                   21978234.1024
 11  8 12 18 36 30.0000000  0  8G17G07G08G13G19G28G24G11
    408373.75447    365313.30143  24283362.5944                   24283363.6094
  -2647106.05548  -2045501.78546  20439337.1414                   20439334.5594
  -6254685.50848  -4848902.92646  21155022.1724                   21155020.7384
   7866755.61347   6119909.88344  22624668.7734                   22624668.5594
   6110007.29347   4757128.51245  22659432.0004                   22659428.5044
  -3551890.90247  -2762427.66845  22580947.9774                   22580945.9614
  -6328295.51247  -4906027.46144  23229227.2974                   23229229.3284
  -5375883.46147  -4163143.98445  21962358.7734                   21962357.6484
 11  8 12 18 37  0.0000000  0  9G17G07G08G26G13G19G28G24G11
    263975.48847    252795.23843  24255884.0704                   24255885.7074
  -2701932.27048  -2088223.52746  20428903.7974                   20428901.5314
  -6358409.35548  -4929726.69546  21135284.2504                   21135282.5704
   2896448.85955   2324334.99252  24305399.6644                   24305400.3444
   7928641.64547   6168132.62545  22636445.8444                   22636445.3714
   6156247.24647   4793159.59445  22668231.3134                   22668227.6914
  -3625813.24647  -2820029.48445  22566880.4454                   22566878.8674
  -6438349.06647  -4991783.42644  23208285.4774                   23208287.0354
  -5458935.14548  -4227859.55945  21946554.7274                   21946553.0744
 11  8 12 18 37 30.0000000  0  9G17G07G08G26G13G19G28G24G11
    119646.89147    140331.49244  24228419.8134                   24228421.4804
  -2756451.47748  -2130706.03947  20418529.1484                   20418527.0274
  -6462000.21548  -5010446.84446  21115571.5234                   21115570.1334
   2765887.85246   2222599.18443  24280555.1254                   24280555.5744
   7990657.80147   6216456.78544  22648247.0864                   22648247.1024
   6202716.02047   4829369.01245  22677073.8444                   22677070.6294
  -3699700.17648  -2877603.69545  22552820.4924                   22552818.8794
  -6548278.18447  -5077442.41444  23187366.8754                   23187368.0164
  -5541601.82847  -4292275.12545  21930823.7114                   21930822.3364
 11  8 12 18 38  0.0000000  0  9G17G07G08G26G13G19G28G24G11
    -24613.20347     27921.14544  24200967.2274                   24200969.3714
  -2810665.05948  -2172950.39147  20408212.3364                   20408210.5274
  -6565458.90248  -5091063.99246  21095883.8284                   21095882.6094
   2635627.22345   2121097.52042  24255766.7424                   24255767.8954
   8052797.98447   6264877.57444  22660071.6334                   22660072.2274
   6249407.94547   4865752.27345  22685958.8754                   22685955.3874
  -3773555.49247  -2935153.28145  22538766.3524                   22538764.8364
  -6658082.84847  -5163004.44144  23166471.0474                   23166472.8204
  -5623883.97347  -4356391.05545  21915165.9774                   21915164.6844
 11  8 12 18 38 30.0000000  0  9G17G07G08G26G13G19G28G24G11
   -168807.22346    -84437.69144  24173527.5864                   24173529.9774
  -2864575.82848  -2214958.80546  20397953.6564                   20397951.6334
  -6668787.62548  -5171579.89146  21076221.2114                   21076219.6884
   2505665.68446   2019828.85943  24231035.9384                   24231037.0904
   8115055.10247   6313389.45744  22671919.3914                   22671919.5004
   6296315.44547   4902303.53145  22694885.3524                   22694882.3134
  -3847384.66047  -2992682.51245  22524717.3204                   22524715.1724
  -6767764.36747  -5248470.49644  23145599.4534                   23145601.1454
  -5705784.07047  -4420209.28945  21899580.8284                   21899579.4924
 11  8 12 18 39  0.0000000  0  9G17G07G08G26G13G19G28G24G11
   -312909.19946   -196724.80144  24146106.1024                   24146108.2734
  -2918158.23448  -2256711.34446  20387757.1174                   20387755.4494
  -6771959.55548  -5251973.60546  21056588.3524                   21056587.1134
   2376029.85946   1918813.93443  24206367.4384                   24206368.4184
   8177449.31647   6362008.19944  22683792.4924                   22683792.4064
   6343459.75447   4939039.32045  22703856.4614                   22703853.2384
  -3921164.78547  -3050173.50445  22510677.2274                   22510675.3444
  -6877296.03547  -5333819.80144  23124755.6564                   23124757.4884
  -5787275.91847  -4483709.41045  21884073.5164                   21884072.0084
 11  8 12 18 39 30.0000000  0  9G17G07G08G26G13G19G28G24G11
   -456936.66446   -308953.81244  24118698.5634                   24118700.7934
  -2971429.99648  -2298221.82047  20377620.0944                   20377618.1454
  -6874992.21148  -5332258.78546  21036981.6174                   21036980.0084
   2246702.78146   1818039.66442  24181756.4384                   24181758.2704
   8239958.44947   6410716.47744  22695688.3284                   22695687.9414
   6390818.78147   4975942.43045  22712868.6644                   22712865.5474
  -3994916.09047  -3107642.04745  22496642.7504                   22496641.0704
  -6986693.99247  -5419064.91444  23103938.3204                   23103939.8204
  -5868376.68747  -4546904.78945  21868640.4304                   21868638.9774
 11  8 12 18 40  0.0000000  0  9G17G07G08G26G13G19G28G24G11
   -600885.91846   -421121.91044  24091305.2114                   24091308.2894
  -3024388.23448  -2339487.99246  20367542.5394                   20367540.6724
  -6977881.73448  -5412432.43746  21017402.2034                   21017401.3834
   2117689.03946   1717509.51643  24157206.6094                   24157207.5824
   8302580.95747   6459513.09844  22707604.2114                   22707604.5984
   6438391.04747   5013011.69145  22721921.1564                   22721918.2114
  -4068637.64547  -3165087.40245  22482614.2424                   22482612.1884
  -7095953.70347  -5504202.30944  23083146.7664                   23083148.7114
  -5949082.42647  -4609792.35945  21853282.6024                   21853280.9304
 11  8 12 18 40 30.0000000  0  9G17G07G08G26G13G19G28G24G11
   -744737.98447   -533214.30144  24063931.4844                   24063933.8524
  -3077014.12948  -2380495.19546  20357527.9534                   20357525.8404
  -7080608.60248  -5492479.34446  20997854.1954                   20997852.5944
   1989008.31346   1617238.91043  24132719.7814                   24132720.2624
   8365330.50047   6508408.70344  22719545.3054                   22719545.5514
   6486190.63747   5050258.10545  22731017.4924                   22731013.3954
  -4142313.87947  -3222497.46145  22468593.9454                   22468592.0664
  -7205055.12947  -5589216.35244  23062385.3284                   23062387.1644
  -6029374.37547  -4672357.50045  21838003.4224                   21838001.8404
 11  8 12 18 41  0.0000000  0  9G17G07G08G26G13G19G28G24G11
   -888506.37547   -645241.48844  24036573.7344                   24036575.4454
  -3129321.76648  -2421254.41447  20347574.2734                   20347572.4694
  -7183186.10248  -5572409.86746  20978334.3594                   20978333.1914
   1860647.79746   1517217.71542  24108293.5704                   24108294.5664
   8428188.53547   6557388.85244  22731507.0004                   22731507.0984
   6534199.52347   5087667.60245  22740153.1254                   22740149.9184
  -4215960.89547  -3279884.73445  22454579.7814                   22454577.5904
  -7314010.64847  -5674116.69944  23041651.6884                   23041653.7464
  -6109265.97747  -4734610.67645  21822800.8754                   21822799.4454
 11  8 12 18 41 30.0000000  0  9G17G07G08G26G13G19G28G24G11
  -1032176.39847   -757192.01644  24009234.3054                   24009236.0274
  -3181296.41048  -2461754.15247  20337683.7894                   20337682.0664
  -7285598.82448  -5652211.98846  20958846.1334                   20958844.2974
   1732623.27746   1417458.39543  24083930.8914                   24083932.2504
   8491165.08247   6606461.34444  22743491.0634                   22743491.1094
   6582427.53147   5125247.84045  22749330.7974                   22749327.1954
  -4289566.21147  -3337239.51245  22440572.7504                   22440571.0204
  -7422804.00447  -5758890.69544  23020949.1334                   23020950.6054
  -6188741.73848  -4796539.82445  21807677.1644                   21807675.5234
 11  8 12 18 42  0.0000000  0  9G17G07G08G26G13G19G28G24G11
  -1175746.21147   -869064.50844  23981913.6484                   23981915.4454
  -3232937.02748  -2501993.61746  20327857.0944                   20327855.0744
  -7387844.79348  -5731884.16846  20939389.4924                   20939388.0394
   1604937.00046   1317962.66842  24059633.4224                   24059634.6804
   8554256.89547   6655623.64144  22755497.1334                   22755497.2704
   6630871.39547   5162996.28945  22758549.2194                   22758545.9304
  -4363131.59047  -3394563.16845  22426573.7274                   22426571.8714
  -7531432.87147  -5843536.50844  23000278.0864                   23000279.2664
  -6267800.17248  -4858143.77345  21792632.4454                   21792631.0864
 11  8 12 18 42 30.0000000  0  9G17G07G08G26G13G19G28G24G11
  -1319207.67247   -980852.55944  23954612.3134                   23954614.9924
  -3284235.68748  -2541966.61347  20318095.0164                   20318093.2234
  -7489915.09448  -5811419.46946  20919965.9614                   20919964.1024
   1477597.97746   1218737.49642  24035401.5704                   24035403.2194
   8617466.90647   6704878.03144  22767525.4304                   22767526.0904
   6679534.65247   5200915.68845  22767809.1884                   22767806.2114
  -4436651.41447  -3451851.32445  22412583.0474                   22412581.4804
  -7639887.68447  -5928046.69544  22979639.5314                   22979641.3714
  -6346432.64847  -4919415.82045  21777669.7274                   21777667.5784
 11  8 12 18 43  0.0000000  0  9G17G07G08G26G13G19G28G24G11
  -1462559.40646  -1092555.10244  23927334.3754                   23927335.6954
  -3335191.46148  -2581672.43047  20308398.9064                   20308396.5824
  -7591808.10948  -5890816.62146  20900576.3444                   20900575.0514
   1350608.69546   1119784.91042  24011236.9144                   24011238.3594
   8680791.29747   6754221.56344  22779575.7344                   22779576.5744
   6728413.87147   5239003.35245  22777111.0864                   22777107.4184
  -4510127.30947  -3509105.24645  22398601.0784                   22398599.8284
  -7748165.94147  -6012419.31644  22959034.8284                   22959036.6134
  -6424638.00047  -4980355.02745  21762787.0634                   21762785.5594
 11  8 12 18 43 30.0000000  0  9G17G07G08G26G13G19G28G24G11
  -1605799.75047  -1204170.85544  23900076.6254                   23900078.1024
  -3385803.07848  -2621110.07046  20298767.6564                   20298765.8524
  -7693521.90648  -5970074.12946  20881220.9694                   20881218.9694
   1223971.06346   1021106.32843  23987138.0234                   23987138.8874
   8744226.82047   6803651.67244  22791647.4144                   22791647.9264
   6777505.80147   5277256.79345  22786452.6954                   22786449.9804
  -4583560.60947  -3566325.98045  22384627.2664                   22384625.9454
  -7856265.02747  -6096652.31244  22938464.5554                   22938465.6604
  -6502414.55547  -5040960.11745  21747986.6094                   21747985.3954
 11  8 12 18 44  0.0000000  0  9G17G07G08G26G13G19G28G24G11
  -1748907.09446  -1315682.96943  23872843.8054                   23872844.7854
  -3436049.62148  -2660263.23847  20289206.0634                   20289204.0004
  -7795034.64148  -6049174.95746  20861903.5394                   20861902.0594
   1097707.38846    922719.15343  23963110.2194                   23963111.7854
   8807789.93047   6853181.21144  22803743.5084                   22803743.5864
   6826827.05947   5315688.89545  22795838.2344                   22795835.7154
  -4656932.26247  -3623498.69145  22370664.9144                   22370663.8014
  -7964162.06647  -6180727.88344  22917931.7584                   22917933.7274
  -6579740.45747  -5101214.04745  21733272.3984                   21733270.7774
 11  8 12 18 44 30.0000000  0  9G17G07G08G26G13G19G28G24G11
  -1891877.77746  -1427088.58644  23845636.6954                   23845638.5784
  -3485927.48848  -2699129.12147  20279714.6334                   20279712.6214
  -7896341.71148  -6128115.53546  20842625.6724                   20842624.1644
    971822.27046    824626.87943  23939155.4614                   23939156.1374
   8871479.32847   6902809.16044  22815863.0554                   22815863.8014
   6876377.15247   5354299.32045  22805267.4144                   22805264.7194
  -4730241.21947  -3680622.53545  22356715.0784                   22356713.3794
  -8071852.45747  -6264642.41844  22897439.3444                   22897440.6484
  -6656611.83248  -5161113.78945  21718644.0784                   21718642.4024
 11  8 12 18 45  0.0000000  0  9G17G07G08G26G13G19G28G24G11
  -2034719.18447  -1538393.44944  23818455.4144                   23818457.5594
  -3535444.57848  -2737713.87546  20270291.8204                   20270290.0204
  -7997450.23048  -6206901.39846  20823385.2034                   20823384.2704
    846308.93046    726824.36343  23915270.4534                   23915271.2304
   8935282.73047   6952525.93844  22828004.4694                   22828004.9064
   6926143.59847   5393078.32445  22814738.0234                   22814734.3134
  -4803497.97347  -3737705.69945  22342774.8204                   22342773.0354
  -8179342.47747  -6348400.81644  22876984.8984                   22876985.9734
  -6733036.21947  -5220665.22745  21704101.0234                   21704099.3634
 11  8 12 18 45 30.0000000  0  9G17G07G08G26G13G19G28G24G11
  -2177430.24247  -1649596.75444  23791298.4304                   23791300.0234
  -3584600.76648  -2776017.41847  20260937.9774                   20260935.8364
  -8098358.96148  -6285531.57446  20804182.9614                   20804181.2114
    721168.96947    629312.76643  23891457.4534                   23891458.2774
   8999195.81647   7002328.17644  22840167.1254                   22840167.5164
   6976122.51247   5432022.89845  22824248.4844                   22824245.4534
  -4876704.66847  -3794749.87145  22328844.4064                   22328842.4344
  -8286630.05947  -6432001.46944  22856568.0234                   22856569.9534
  -6809012.78147  -5279867.71945  21689643.1094                   21689641.5204
 11  8 12 18 46  0.0000000  0  9G17G07G08G26G13G19G28G24G11
  -2320009.46946  -1760697.34444  23764166.4774                   23764167.9924
  -3633394.25848  -2814038.34047  20251652.7504                   20251650.7194
  -8199065.11748  -6364003.90646  20785019.0864                   20785017.8404
    596405.15647    532094.28143  23867715.2584                   23867716.3834
   9063215.50847   7052213.49644  22852350.0084                   22852350.4264
   7026310.98847   5471130.75445  22833798.8284                   22833795.7814
  -4949861.79347  -3851755.42245  22314922.7504                   22314920.9144
  -8393712.14147  -6515442.00044  22836191.2194                   22836192.8634
  -6884539.29348  -5338719.52345  21675270.7894                   21675269.3054
 11  8 12 18 46 30.0000000  0  9G17G07G08G26G13G19G28G24G11
  -2462442.93447  -1871684.31644  23737062.1644                   23737063.9694
  -3681811.89848  -2851766.38347  20242439.1254                   20242437.0664
  -8299554.46148  -6442307.28946  20765896.6884                   20765894.7274
    472031.79347    435180.04344  23844047.6644                   23844049.0124
   9127350.72747   7102188.80944  22864554.3204                   22864555.1844
   7076717.85947   5510408.77745  22843391.1414                   22843388.0784
  -5022958.52047  -3908713.89145  22301012.6334                   22301011.3714
  -8500573.90647  -6598710.84044  22815856.2974                   22815857.2114
  -6959602.19547  -5397210.07045  21660986.6884                   21660985.2034
 11  8 12 18 47  0.0000000  0  9G17G07G08G26G13G19G28G24G11
  -2604717.41447  -1982547.42244  23709988.5394                   23709990.4144
  -3729841.09448  -2889191.75046  20233299.2584                   20233297.3484
  -8399813.86348  -6520431.49246  20746817.7274                   20746816.6764
    348062.81647    338580.88744  23820457.4534                   23820459.0904
   9191609.44547   7152260.37544  22876782.7034                   22876783.6024
   7127352.01647   5549863.90645  22853026.6884                   22853023.3094
  -5095984.31647  -3965617.10945  22287116.3054                   22287114.9384
  -8607201.21547  -6681796.99644  22795565.3834                   22795567.1374
  -7034188.31247  -5455329.10245  21646793.5634                   21646791.8324
 11  8 12 18 47 30.0000000  0  9G17G07G08G26G13G19G28G24G11
  -2746840.16847  -2093292.31644  23682942.9064                   23682944.9304
  -3777489.24648  -2926320.19947  20224232.3984                   20224230.2424
  -8499849.68448  -6598381.47346  20727781.9844                   20727779.6764
    224491.66847    242291.72344  23796942.2894                   23796944.1134
   9255979.87547   7202418.95344  22889032.1644                   22889032.9414
   7178201.25047   5589486.62945  22862703.3054                   22862699.7504
  -5168949.46547  -4022473.06245  22273231.1884                   22273230.1024
  -8713599.91847  -6764705.03144  22775317.8054                   22775319.5084
  -7108304.88748  -5513082.25045  21632689.2344                   21632687.9344
 11  8 12 18 48  0.0000000  0  9G17G07G08G26G13G19G28G24G11
  -2888801.65647  -2203911.54344  23655928.7664                   23655930.4654
  -3824747.57448  -2963144.88747  20215239.1954                   20215237.3054
  -8599651.86748  -6676149.40646  20708789.6724                   20708788.7194
    101328.39847    146320.39843  23773505.1484                   23773506.2344
   9320465.90247   7252667.62944  22901303.6414                   22901304.7544
   7229270.12547   5629280.51245  22872421.0864                   22872418.0394
  -5241847.17247  -4079276.46145  22259359.9144                   22259358.0004
  -8819759.69547  -6847426.86744  22755117.2034                   22755117.8284
  -7181942.41447  -5570462.12545  21618677.0314                   21618675.5594
 11  8 12 18 48 30.0000000  0  9G17G07G08G26G13G19G28G24G11
  -3030610.67647  -2314411.94544  23628942.8284                   23628944.5594
  -3871625.29748  -2999672.99647  20206318.8054                   20206317.1564
  -8699229.05948  -6753742.00846  20689841.0704                   20689839.4924
    -21435.04747     50660.62543  23750144.4694                   23750144.7504
   9385054.30547   7302996.06344  22913594.2664                   22913595.5744
   7280545.29347   5669235.12944  22882178.1884                   22882175.3054
  -5314688.71147  -4136036.09045  22245498.3444                   22245496.2194
  -8925688.01246  -6929968.35544  22734958.7584                   22734960.8134
  -7255109.95347  -5627475.77045  21604753.6174                   21604751.6804
 11  8 12 18 49  0.0000000  0  9G17G07G08G26G13G19G28G24G11
  -3172257.78947  -2424786.21544  23601987.9384                   23601989.9264
  -3918113.51248  -3035897.59047  20197472.6174                   20197470.5984
  -8798570.75048  -6831151.12146  20670937.0704                   20670935.4224
   -143788.33247    -44679.53543  23726861.2894                   23726861.9184
   9449748.97347   7353407.31344  22925905.2664                   22925906.1844
   7332031.45747   5709354.17644  22891975.7584                   22891972.6604
  -5387467.53147  -4192746.85545  22231649.3444                   22231647.1724
  -9031374.23446  -7012321.22344  22714847.5474                   22714849.7384
  -7327797.94547  -5684115.74245  21590921.4384                   21590919.4844
 11  8 12 18 49 30.0000000  0  9G17G07G08G26G13G19G28G24G11
  -3313739.34047  -2535031.47344  23575065.0554                   23575066.4344
  -3964208.80548  -3071816.02047  20188700.8984                   20188698.7664
  -8897673.18748  -6908373.79346  20652078.3674                   20652076.6214
   -265727.34046   -139696.87543  23703656.7034                   23703657.2424
   9514548.89547   7403900.57444  22938236.2114                   22938236.9414
   7383727.63347   5749636.86745  22901813.1484                   22901810.0594
  -5460182.82847  -4249408.12545  22217812.0634                   22217809.8834
  -9136813.62547  -7094481.71544  22694783.2664                   22694784.6764
  -7400002.80547  -5740379.24645  21577181.2504                   21577179.6454
 11  8 12 18 50  0.0000000  0  9G17G07G08G26G13G19G28G24G11
  -3455041.65647  -2645137.07844  23548175.5084                   23548177.6804
  -4009898.51248  -3107418.41447  20180006.2274                   20180004.2934
  -8996522.05548  -6985398.87946  20633267.9064                   20633266.5744
   -387237.72346   -234380.23043  23680534.1254                   23680535.1524
   9579462.76647   7454482.62144  22950589.4924                   22950590.4024
   7435642.87947   5790090.25444  22911692.8054                   22911689.7154
  -5532823.57847  -4306011.30145  22203988.5784                   22203986.4694
  -9241991.74247  -7176438.64544  22674768.2504                   22674769.7034
  -7471710.92647  -5796255.69945  21563536.0784                   21563534.3484
 11  8 12 18 50 30.0000000  0  9G17G07G08G26G13G19G28G24G11
  -3596156.48047  -2755096.56244  23521322.6024                   23521323.6954
  -4055174.16448  -3142698.15647  20171390.9694                   20171388.8524
  -9095108.08248  -7062219.16846  20614507.8754                   20614505.9924
   -508310.25446   -328722.39543  23657494.7734                   23657495.7424
   9644494.09447   7505156.19944  22962964.3594                   22962965.2704
   7487780.71947   5830717.08644  22921614.2664                   22921611.0634
  -5605383.75847  -4362551.69945  22190181.0314                   22190179.1054
  -9346898.73047  -7258184.30144  22654805.2664                   22654806.9774
  -7542913.96147  -5851738.56245  21549986.1954                   21549984.5634
 11  8 12 18 51  0.0000000  0  9G17G07G08G26G13G19G28G24G11
  -3737097.50847  -2864920.65244  23494502.4224                   23494503.7034
  -4100050.34848  -3177666.62547  20162851.0634                   20162848.7384
  -9193445.01248  -7138845.34046  20595794.8054                   20595793.5394
   -628958.12546   -422733.66443  23634535.7894                   23634537.0704
   9709624.23047   7555906.77044  22975358.3444                   22975359.1454
   7540122.62947   5871502.95345  22931574.7584                   22931571.1294
  -5677880.13347  -4419042.38345  22176385.2584                   22176383.4064
  -9451547.22747  -7339728.52044  22634891.2584                   22634892.8954
  -7613626.17247  -5906838.95745  21536530.0394                   21536528.1414
 11  8 12 18 51 30.0000000  0  9G17G07G08G26G13G19G28G24G11
  -3877868.23447  -2974612.00844  23467714.7274                   23467715.8094
  -4144530.95348  -3212326.86347  20154386.6804                   20154384.4614
  -9291535.63348  -7215279.59446  20577128.7664                   20577127.0634
   -749184.66446   -516416.62143  23611657.9304                   23611658.6604
   9774844.59047   7606727.63343  22987769.7344                   22987770.8484
   7592660.74247   5912441.71544  22941572.1804                   22941569.2114
  -5750319.12947  -4475488.35245  22162600.5784                   22162598.5084
  -9555939.75847  -7421073.28944  22615025.7034                   22615027.3634
  -7683850.82847  -5961559.46545  21523166.8984                   21523165.2384
 11  8 12 18 52  0.0000000  0  9G17G07G08G26G13G19G28G24G11
  -2443024.84447  -1856552.09844  23740756.4224                   23740757.5704
  -2613175.69548  -2019063.04747  20445793.9304                   20445792.1374
  -7813936.57848  -6063903.69146  20858306.3204                   20858305.0514
    706454.60946    617847.78143  23888656.3984                   23888656.8834
  11415587.40647   8885228.34844  23299992.9304                   23299994.1054
   9220827.66847   7181143.17245  23251402.1804                   23251399.5434
  -4247261.48447  -3304274.59445  22448623.1724                   22448620.8674
  -8084632.35547  -6274599.92644  22895006.7114                   22895008.1604
  -6178146.46147  -4788283.31645  21809692.9774                   21809691.2384
 11  8 12 18 52 30.0000000  0  9G17G07G08G26G13G19G28G24G11
  -2583438.50847  -1965965.25044  23714035.9534                   23714037.8634
  -2656850.12948  -2053095.09446  20437482.9144                   20437481.2034
  -7911515.66848  -6139939.34446  20839738.1484                   20839736.4574
    587090.27046    524836.65643  23865942.1484                   23865942.4264
  11480990.44147   8936191.58243  23312439.1094                   23312440.1414
   9273760.18847   7222389.25445  23261475.0314                   23261471.8714
  -4319576.95347  -3360624.30545  22434861.7344                   22434859.5664
  -8188492.98847  -6355530.23044  22875242.3754                   22875243.4534
  -6247380.09447  -4842231.58245  21796517.8754                   21796516.4654
 11  8 12 18 53  0.0000000  0  9G17G07G08G26G13G19G28G24G11
  -2723673.41847  -2075239.09844  23687350.6334                   23687351.5044
  -2700122.14848  -2086813.57447  20429248.6724                   20429246.4614
  -8008837.61748  -6215774.61746  20821218.4534                   20821216.7624
    468158.23847    432162.41843  23843310.5704                   23843310.2384
  11546477.88747   8987220.58244  23324900.9144                   23324901.5554
   9326883.47747   7263783.99645  23271584.1884                   23271580.9924
  -4391834.36347  -3416928.77345  22421111.4454                   22421109.5784
  -8292085.51247  -6436251.61344  22855529.9304                   22855531.2424
  -6316118.25847  -4895793.76645  21783437.5164                   21783436.0274
 11  8 12 18 53 30.0000000  0  9G17G07G08G26G13G19G28G24G11
  -2863702.59447  -2184352.64144  23660703.7274                   23660705.1764
  -2742965.62148  -2120198.11747  20421095.7344                   20421093.7074
  -8105875.22748  -6291388.32846  20802752.4614                   20802750.8874
    349685.62947    339846.15643  23820765.6564                   23820765.8404
  11612071.14147   9038332.00844  23337383.0004                   23337383.9344
   9380219.48047   7305344.46145  23281733.6484                   23281730.5234
  -4464009.23047  -3473168.92645  22407377.0474                   22407375.5274
  -8395382.20347  -6516742.49244  22835872.4454                   22835873.6254
  -6384334.03147  -4948948.88745  21770456.5234                   21770454.9144
 11  8 12 18 54  0.0000000  0  9G17G07G08G26G13G19G28G24G11
  -3003516.95747  -2293298.79744  23634098.1094                   23634098.7734
  -2785371.46148  -2153241.65647  20413026.1024                   20413024.2544
  -8202618.85248  -6366772.96546  20784343.0944                   20784341.4184
    231682.22747    247895.44943  23798310.3674                   23798310.7034
  11677774.41847   9089529.18043  23349885.9144                   23349887.4924
   9433773.09047   7347074.48845  23291924.2664                   23291921.7274
  -4536095.45347  -3529340.00045  22393659.5944                   22393657.8444
  -8498372.80547  -6596994.84844  22816274.1884                   22816275.3754
  -6452019.07848  -5001690.46145  21757576.4774                   21757574.9144
 11  8 12 18 54 30.0000000  0  9G17G07G08G26G13G19G28G24G11
  -3143140.06247  -2402095.93044  23607528.0474                   23607529.4264
  -2827363.75848  -2185962.94147  20405035.3524                   20405033.3594
  -8299091.44948  -6441946.40246  20765984.6254                   20765983.1414
    114125.13347    156292.59044  23775939.8524                   23775940.3484
  11743559.64147   9140790.20344  23362404.3834                   23362405.8634
   9487515.84447   7388951.90645  23302151.3364                   23302148.4924
  -4608118.98048  -3585462.21945  22379954.0394                   22379952.4064
  -8601079.85547  -6677026.25844  22796729.7584                   22796731.0784
  -6519197.02348  -5054036.87945  21744792.8054                   21744791.3134
 11  8 12 18 55  0.0000000  0  9G17G07G08G26G13G19G28G24G11
  -3282573.09847  -2510744.93744  23580994.8444                   23580996.3634
  -2868944.46148  -2218363.51247  20397122.8834                   20397120.8364
  -8395293.41448  -6516908.97746  20747677.9064                   20747676.5784
     -2986.12947     65037.06644  23753654.0554                   23753654.8874
  11809420.78147   9192110.36344  23374937.8594                   23374939.1804
   9541442.22347   7430972.41444  23312412.6334                   23312410.7074
  -4680083.69548  -3641538.61745  22366259.3914                   22366257.7774
  -8703503.13347  -6756836.53544  22777239.2344                   22777240.5354
  -6585869.02748  -5105989.06645  21732105.5314                   21732104.0554
 11  8 12 18 55 30.0000000  0  9G17G07G08G26G13G19G28G24G11
  -3421806.33647  -2619238.28144  23554499.9924                   23554500.9574
  -2910104.53948  -2250436.32846  20389290.4144                   20389288.6644
  -8491214.22748  -6591652.46546  20729425.0864                   20729423.1564
   -119641.19947    -25862.93744  23731455.2194                   23731456.0394
  11875362.53947   9243493.34044  23387486.3984                   23387487.7854
   9595557.30147   7473139.95744  23322710.4614                   23322708.4884
  -4751982.38747  -3697563.54745  22352577.8364                   22352576.4224
  -8805631.75847  -6836417.22744  22757804.8834                   22757805.9064
  -6652025.35948  -5157539.43045  21719516.6884                   21719514.8524
 11  8 12 18 56  0.0000000  0  9G17G07G08G26G13G19G28G24G11
  -3560849.99647  -2727583.88744  23528040.8984                   23528041.9884
  -2950854.94148  -2282189.91047  20381535.8754                   20381534.0274
  -8586864.01648  -6666184.75846  20711223.1564                   20711221.6914
   -235850.37947   -116415.53144  23709341.7424                   23709342.0744
  11941369.47347   9294927.10944  23400047.0634                   23400048.4304
   9649846.05947   7515442.80544  23333042.0004                   23333039.2814
  -4823828.20747  -3753547.30145  22338906.0784                   22338903.8594
  -8907475.45747  -6915775.88344  22738424.7344                   22738425.3404
  -6717677.26248  -5208696.73845  21707023.3754                   21707021.6954
 11  8 12 18 56 30.0000000  0  9G17G07G08G26G13G19G28G24G11
  -3699693.02347  -2835773.18744  23501620.1094                   23501620.5204
  -2991184.94548  -2313615.91047  20373861.3984                   20373859.2934
  -8682230.71148  -6740496.46946  20693075.4454                   20693074.3014
   -351601.25447   -206610.96544  23687315.3364                   23687315.6764
  12007448.71147   9346417.20744  23412621.3364                   23412623.2974
   9704315.04747   7557886.11744  23343407.1174                   23343403.9144
  -4895612.12147  -3809482.80145  22325246.0004                   22325244.3554
  -9009021.55947  -6994902.66444  22719101.0084                   22719102.0664
  -6782813.63347  -5259452.33245  21694628.3984                   21694626.5164
 11  8 12 18 57  0.0000000  0  9G17G07G08G26G13G19G28G24G11
  -3838327.72747  -2943800.16044  23475238.3834                   23475239.2774
  -3031087.23048  -2344708.62547  20366268.1484                   20366266.4384
  -8777305.73448  -6814580.88746  20674983.3834                   20674981.8674
   -466885.48047   -296442.79744  23665377.0084                   23665378.2894
  12073603.15247   9397965.89543  23425210.4144                   23425211.9264
   9758967.77347   7600472.59444  23353806.4614                   23353804.1764
  -4967329.31647  -3865366.30945  22311598.7194                   22311597.2424
  -9110260.98847  -7073790.46544  22699835.6254                   22699836.6174
  -6847426.71548  -5309800.16445  21682333.2274                   21682331.2234
 11  8 12 18 57 30.0000000  0  9G17G07G08G26G13G19G28G24G11
  -3976751.64547  -3051662.86745  23448896.9144                   23448898.0824
  -3070560.07848  -2375466.70347  20358756.8914                   20358754.6484
  -8872086.06648  -6888435.68746  20656947.5784                   20656946.0864
   -581700.52347   -385909.02344  23643527.9534                   23643529.5084
  12139829.93047   9449570.96543  23437813.1564                   23437815.0784
   9813801.52047   7643200.13744  23364241.8834                   23364239.0784
  -5038980.04347  -3921198.02745  22297963.6564                   22297962.2114
  -9211190.50847  -7152436.78544  22680629.5704                   22680631.0594
  -6911515.01248  -5359739.09045  21670137.1094                   21670135.4534
 11  8 12 18 58  0.0000000  0  9G17G07G08G26G13G19G28G24G11
  -4114954.29347  -3159353.15244  23422597.7814                   23422598.9144
  -3109593.46148  -2405882.35247  20351328.7344                   20351326.7854
  -8966560.54748  -6962052.16446  20638969.5554                   20638967.4884
   -696035.15247   -475000.89144  23621771.1804                   23621771.8444
  12206134.85247   9501236.95743  23450430.5554                   23450432.9064
   9868823.07847   7686074.05544  23374711.5944                   23374709.4104
  -5110556.10547  -3976971.57045  22284343.2974                   22284341.4414
  -9311798.46147  -7230832.52744  22661483.9774                   22661484.9264
  -6975067.87148  -5409260.77345  21658043.9534                   21658042.3164
 11  8 12 18 58 30.0000000  0  9G17G07G08G26G13G19G28G24G11
  -4252928.70747  -3266865.60544  23396341.8754                   23396342.8674
  -3148181.30948  -2435950.83246  20343986.0234                   20343983.8404
  -9060721.54348  -7035424.36746  20621050.9774                   20621049.5164
   -809882.00446   -563712.67643  23600106.4534                   23600107.4804
  12272520.20747   9552965.58244  23463063.5394                   23463065.5394
   9924034.30547   7729095.73844  23385218.0314                   23385215.9454
  -5182053.42247  -4032683.75445  22270737.6644                   22270735.9614
  -9412076.85547  -7308971.48044  22642401.4774                   22642402.5784
  -7038079.10948  -5458360.41845  21646052.6174                   21646051.0904
 11  8 12 18 59  0.0000000  0  9G17G07G08G26G13G19G28G24G11
  -4390686.52747  -3374209.27745  23370127.5944                   23370128.8134
  -3186335.65648  -2465681.50447  20336725.6564                   20336723.5784
  -9154579.73048  -7108560.62146  20603190.5004                   20603189.0514
   -923252.08246   -652052.94543  23578533.1254                   23578534.1804
  12338969.22747   9604743.84843  23475709.0944                   23475710.2154
   9979419.37947   7772252.90644  23395757.6954                   23395754.9654
  -5253485.94147  -4088345.44945  22257144.8524                   22257143.0124
  -9512036.18047  -7386861.78544  22623379.9224                   22623381.1644
  -7100560.41448  -5507047.13345  21634162.8204                   21634161.4534
 11  8 12 18 59 30.0000000  0  9G17G07G08G26G13G19G28G24G11
  -4528223.24247  -3481380.68444  23343954.9454                   23343956.4304
  -3224052.71548  -2495071.45346  20329548.2344                   20329546.1484
  -9248130.09048  -7181457.00446  20585388.4534                   20585387.0474
  -1036140.38746   -740017.77743  23557051.3754                   23557052.2584
  12405482.00447   9656571.76643  23488366.1644                   23488367.8714
  10034977.93847   7815545.25044  23406330.2424                   23406327.5004
  -5324851.74647  -4143955.15645  22243564.0944                   22243562.5234
  -9611670.78147  -7464499.07444  22604419.9064                   22604420.9184
  -7162507.69948  -5555317.73045  21622374.8984                   21622373.1214
 11  8 12 19  0  0.0000000  0  9G17G07G08G26G13G19G28G24G11
  -4665526.06247  -3588369.81244  23317827.5314                   23317828.4264
  -3261320.42248  -2524111.23846  20322456.4614                   20322454.5004
  -9341359.39848  -7254103.22346  20567647.6254                   20567646.1604
  -1148533.80147   -827597.00843  23535663.2664                   23535664.2304
  12472066.59847   9708455.65243  23501036.9144                   23501038.5704
  10090718.48446   7858979.38344  23416937.3674                   23416934.9454
  -5396140.57448  -4199504.89145  22229998.5004                   22229996.5744
  -9710966.83247  -7541872.56645  22585524.4454                   22585525.3634
  -7223908.63347  -5603162.59445  21610690.3204                   21610688.9614
 11  8 12 19  0 30.0000000  0  9G17G07G08G26G13G19G28G24G11
  -4802596.86347  -3695178.16044  23291743.3674                   23291744.0354
  -3298141.14548  -2552802.74246  20315449.8364                   20315447.8794
  -9434268.37148  -7326499.82446  20549967.6564                   20549966.2974
  -1260433.50447   -914791.52743  23514369.5704                   23514370.3554
  12538716.32847   9760390.29743  23513720.3204                   23513721.7194
  10146634.76646   7902550.46144  23427578.2894                   23427575.6454
  -5467356.58247  -4254997.86745  22216446.5704                   22216444.7624
  -9809924.91047  -7618982.69544  22566693.0864                   22566694.4884
  -7284765.64548  -5650583.63345  21599110.2114                   21599108.5864
 11  8 12 19  1  0.0000000  0  9G17G07G08G26G13G19G28G24G11
  -4939433.78547  -3801804.26244  23265704.0084                   23265705.0664
  -3334513.42248  -2581144.79347  20308528.5164                   20308526.6024
  -9526854.02348  -7398644.48446  20532349.2584                   20532347.4344
  -1371836.97747  -1001599.42643  23493170.0554                   23493170.8324
  12605428.27047   9812373.41443  23526415.3674                   23526416.9924
  10202724.64147   7946256.82444  23438251.8444                   23438249.1604
  -5538500.21947  -4310434.46545  22202908.2974                   22202906.4494
  -9908542.03947  -7695827.14144  22547927.3134                   22547928.1914
  -7345076.85948  -5697579.36345  21587632.7194                   21587631.4494
 11  8 12 19  1 30.0000000  0  9G17G07G08G26G13G19G28G24G11
  -5076032.28147  -3908244.59044  23239710.1094                   23239711.1954
  -3370433.38348  -2609134.39846  20301692.9614                   20301691.0234
  -9619111.42248  -7470533.36746  20514793.2424                   20514791.5354
  -1482739.37147  -1088016.84043  23472065.9534                   23472066.5474
  12672202.38747   9864405.00043  23539121.9144                   23539123.5904
  10258987.19146   7990097.75044  23448957.9924                   23448955.2624
  -5609569.80148  -4365813.34445  22189384.1954                   22189382.3834
 -10006812.69947  -7772401.64544  22529226.9224                   22529227.9144
  -7404838.46548  -5744146.83245  21576260.7814                   21576259.0164
 11  8 12 19  2  0.0000000  0  9G17G07G08G26G13G19G28G24G11
  -5212387.79747  -4014495.57844  23213762.8834                   23213763.5594
  -3405897.59448  -2636768.86746  20294944.0004                   20294942.1414
  -9711035.85948  -7542162.78946  20497300.2974                   20497298.7704
  -1593136.01647  -1174040.18043  23451057.9924                   23451058.5354
  12739038.18447   9916484.63343  23551839.9384                   23551842.2074
  10315423.36746   8034073.96544  23459696.7424                   23459694.6374
  -5680563.41848  -4421133.04345  22175874.5704                   22175872.6094
 -10104731.49647  -7848701.94144  22510593.2734                   22510594.3134
  -7464046.82448  -5790283.19945  21564993.5864                   21564992.3094
 11  8 12 19  2 30.0000000  0  9G17G07G08G26G13G19G28G24G11
  -5348512.21947  -4120566.47345  23187859.5554                   23187859.9344
  -3440918.28548  -2664057.74647  20288279.8594                   20288278.0824
  -9802638.24648  -7613541.27746  20479868.9304                   20479867.2464
  -1703038.03147  -1259678.09044  23430144.8134                   23430145.0784
  12805919.09047   9968599.36343  23564567.3054                   23564569.6214
  10372016.69946   8078172.60244  23470467.0634                   23470464.0084
  -5751495.24248  -4476404.58645  22162376.5164                   22162374.6994
 -10202309.07847  -7924736.35544  22492024.8754                   22492025.8634
  -7522713.83648  -5835997.73445  21553829.7734                   21553828.3984
 11  8 12 19  3  0.0000000  0  9G17G07G08G26G13G19G28G24G11
  -5484407.04747  -4226458.46544  23161998.8444                   23162000.0594
  -3475497.56648  -2691002.65646  20281699.9924                   20281697.9184
  -9893919.19948  -7684669.28146  20462499.1564                   20462497.5084
  -1812446.36347  -1344931.30944  23409325.0704                   23409325.8634
  12872839.57047  10020744.98443  23577302.3914                   23577304.0744
  10428761.46946   8122389.27344  23481265.4844                   23481262.1604
  -5822368.87148  -4531630.78945  22148889.6884                   22148888.0394
 -10299545.62147  -8000505.03544  22473521.6724                   22473522.5314
  -7580841.39148  -5881291.92645  21542768.3364                   21542766.8554
 11  8 12 19  3 30.0000000  0  9G17G07G08G26G13G19G28G24G11
  -5620064.59047  -4332165.55945  23136183.9694                   23136184.8874
  -3509628.43448  -2717598.16046  20275205.3674                   20275202.9494
  -9984869.98848  -7755540.02346  20445191.6804                   20445190.0234
  -1921353.01647  -1429793.59843  23388600.3834                   23388601.2234
  12939802.31647  10072923.51643  23590045.1174                   23590047.1254
  10485660.81346   8166726.37144  23492092.5164                   23492090.3204
  -5893178.90648  -4586807.43445  22135414.7974                   22135413.1484
 -10396432.12947  -8076000.96144  22455085.2584                   22455085.8754
  -7638422.25848  -5926160.12545  21531811.2344                   21531809.3244
 11  8 12 19  4  0.0000000  0  9G17G07G08G26G13G19G28G24G11
  -5755468.08647  -4437674.70745  23110417.4614                   23110418.5474
  -3543294.80148  -2743831.71147  20268798.7664                   20268796.4024
 -10075472.99648  -7826139.76646  20427950.4144                   20427948.7504
  -2029740.56647  -1514251.37943  23367974.9534                   23367976.3444
  13006819.72747  10125144.67643  23602798.2664                   23602800.5664
  10542727.14146   8211193.61744  23502951.4694                   23502949.7664
  -5963911.23848  -4641923.53545  22121954.8054                   22121953.3204
 -10492950.96147  -8151210.37144  22436717.6884                   22436718.3244
  -7695440.54748  -5970589.94145  21520961.2584                   21520959.4144
 11  8 12 19  4 30.0000000  0  9G17G07G08G26G13G19G28G24G11
  -5890612.42647  -4542981.89545  23084700.6094                   23084701.2894
  -3576491.98048  -2769699.66447  20262481.3524                   20262479.4224
 -10165722.30948  -7896463.90246  20410776.5474                   20410775.1644
  -2137603.37547  -1598300.28544  23347449.9454                   23347450.3244
  13073892.01647  10177408.56643  23615561.1094                   23615563.8324
  10599961.21546   8255791.54344  23513843.4694                   23513840.7464
  -6034563.03548  -4696976.87145  22108510.5554                   22108508.6914
 -10589095.76647  -8226128.33644  22418422.3134                   22418423.3484
  -7751891.13348  -6014577.41045  21510218.8134                   21510217.2274
 11  8 12 19  5  0.0000000  0  9G17G07G08G26G13G19G28G24G11
  -6025495.80147  -4648085.72345  23059032.9384                   23059033.9614
  -3609219.44948  -2795201.60547  20256253.7194                   20256251.8324
 -10255615.87948  -7966510.84046  20393670.4614                   20393668.8134
  -2244939.80947  -1681939.05944  23327024.1954                   23327024.3794
  13141016.19146  10229712.90643  23628335.4304                   23628337.6374
  10657360.66446   8300518.32044  23524766.5864                   23524763.3094
  -6105135.16448  -4751968.12545  22095081.5554                   22095079.3674
 -10684864.07047  -8300752.93045  22400197.7734                   22400198.5704
  -7807773.10948  -6058121.80145  21499584.7664                   21499583.0824
 11  8 12 19  5 30.0000000  0  9G17G07G08G26G13G19G28G24G11
  -6160121.80547  -4752989.01245  23033414.7734                   23033415.4344
  -3641481.61348  -2820340.97347  20250114.2274                   20250112.3794
 -10345156.43748  -8036282.70346  20376631.3754                   20376629.7464
  -2351753.13346  -1765170.16843  23306697.9844                   23306698.7384
  13208183.78547  10282051.03543  23641116.4144                   23641119.5044
  10714917.13746   8345367.46544  23535718.3984                   23535716.0164
  -6175633.70748  -4806902.05145  22081665.9304                   22081663.9884
 -10780258.32847  -8375086.04744  22382044.8754                   22382045.6804
  -7863091.17248  -6101226.77745  21489058.0164                   21489056.3364
 11  8 12 19  6  0.0000000  0  9G17G07G08G26G13G19G28G24G11
  -6294487.25047  -4857689.27745  23007845.9064                   23007846.5594
  -3673275.39548  -2845115.36346  20244064.1564                   20244062.1134
 -10434339.42248  -8105775.94146  20359660.3984                   20359658.8954
  -2458039.29747  -1847990.54344  23286472.8204                   23286472.3404
  13275393.98847  10334422.37143  23653906.7664                   23653909.1054
  10772629.90646   8390338.41444  23546700.8524                   23546698.9024
  -6246057.68748  -4861777.88345  22068264.5864                   22068262.3204
 -10875273.88347  -8449124.07045  22363964.4064                   22363964.8204
  -7917842.07048  -6143889.80945  21478639.5004                   21478637.4024
 11  8 12 19  6 30.0000000  0  9G17G07G08G26G13G19G28G24G11
  -6428599.60947  -4962192.34445  22982325.1484                   22982325.1524
  -3704609.16848  -2869531.30946  20238101.5944                   20238099.3834
 -10523171.78948  -8174995.96946  20342756.3674                   20342754.9024
  -2563805.64546  -1930405.84844  23266345.5704                   23266345.7234
  13342634.72747  10386817.50844  23666703.1804                   23666705.0084
  10830487.31347   8435422.06644  23557711.0554                   23557708.5634
  -6316416.45748  -4916602.89145  22054875.7114                   22054873.3634
 -10969917.35247  -8522872.18045  22345953.3834                   22345954.3634
  -7972034.19548  -6186117.42245  21468326.7664                   21468325.3404
 11  8 12 19  7  0.0000000  0  9G17G07G08G26G13G19G28G24G11
  -6562455.77747  -5066495.74245  22956852.2424                   22956853.2034
  -3735480.18048  -2893586.65246  20232227.0864                   20232225.2704
 -10611649.61348  -8243939.71946  20325919.3834                   20325917.9344
  -2669048.32846  -2012413.10944  23246318.8984                   23246319.0594
  13409904.43447  10439235.23043  23679503.7344                   23679506.4774
  10888488.22346   8480617.53144  23568747.8594                   23568746.3554
  -6386709.60248  -4971376.76645  22041499.2034                   22041497.3014
 -11064184.58647  -8596327.09445  22328014.9384                   22328016.5004
  -8025664.68748  -6227907.40245  21458121.2584                   21458119.6844
 11  8 12 19  7 30.0000000  0  9G17G07G08G26G13G19G28G24G11
  -6696063.75847  -5170605.75845  22931427.5944                   22931428.6914
  -3765897.62148  -2917288.57847  20226439.0164                   20226436.9304
 -10699779.90248  -8312612.66846  20309148.9614                   20309146.8874
  -2773775.15346  -2094018.39744  23226389.7734                   23226390.0044
  13477190.62147  10491665.74244  23692308.3914                   23692310.1954
  10946620.08647   8525915.01644  23579811.2814                   23579808.3874
  -6456947.13348  -5026107.30145  22028133.8674                   22028131.4494
 -11158082.30147  -8669494.06645  22310146.7734                   22310147.7734
  -8078742.50048  -6269266.73045  21448021.0554                   21448019.5554
 11  8 12 19  8  0.0000000  0  9G17G07G08G26G13G19G28G24G11
  -6829424.29747  -5274522.95745  22906050.3134                   22906051.0204
  -3795862.89848  -2940638.16047  20220736.6094                   20220734.8204
 -10787562.93048  -8381015.02346  20292444.3364                   20292442.5594
  -2877986.84046  -2175222.29344  23206559.0634                   23206559.1294
  13544487.82447  10544104.87143  23705114.6254                   23705117.2154
  11004877.86347   8571310.63344  23590897.3364                   23590894.2114
  -6527132.32848  -5080797.05945  22014777.7034                   22014775.8054
 -11251610.35247  -8742372.99645  22292349.0474                   22292349.9024
  -8131268.98448  -6310196.44545  21438025.3524                   21438023.9184
 11  8 12 19  8 30.0000000  0  9G17G07G08G26G13G19G28G24G11
  -6962522.89847  -5378236.07445  22880722.1954                   22880722.7074
  -3825362.13748  -2963624.60246  20215123.0164                   20215121.2774
 -10874983.09448  -8449134.64146  20275808.6024                   20275807.1954
  -2981668.43446  -2256013.09444  23186829.2274                   23186829.2274
  13611805.79347  10596560.18043  23717924.9844                   23717927.4614
  11063272.13347   8616812.62144  23602009.0864                   23602006.1294
  -6597253.15648  -5135436.66845  22001434.0394                   22001432.2774
 -11344753.09447  -8814951.69144  22274624.8134                   22274625.1604
  -8183230.22748  -6350685.71945  21428137.8134                   21428135.4574
 11  8 12 19  9  0.0000000  0  9G17G07G08G26G13G19G28G24G11
  -7095365.67247  -5481749.81644  22855442.9614                   22855443.3134
  -3854402.11748  -2986253.16846  20209597.2664                   20209595.2154
 -10962045.70748  -8516975.63746  20259241.1024                   20259239.6524
  -3084825.36747  -2336395.08244  23167198.4774                   23167199.2234
  13679134.64547  10649023.94543  23730737.5634                   23730739.8914
  11121792.85947   8662413.16844  23613144.9694                   23613142.0084
  -6667317.66448  -5190032.37945  21988101.2894                   21988098.8164
 -11437515.49647  -8887234.01244  22256972.3834                   22256973.4144
  -8234633.01248  -6390739.82845  21418356.4694                   21418354.6054
 11  8 12 19  9 30.0000000  0  9G17G07G08G26G13G19G28G24G11
  -5652531.26247  -4357463.18045  23130005.3984                   23130005.6374
  -2307565.89848  -1780926.26646  20503950.2194                   20503948.2074
  -9473330.10548  -7356937.50446  20542534.4844                   20542532.7194
  -1612037.23446  -1188767.94144  23447460.8674                   23447462.0634
  15321884.28546  11929088.34843  24043342.8204                   24043345.0044
  12755850.48847   9935704.79344  23924095.3674                   23924093.0664
  -5161908.83647  -4016986.53145  22274571.1724                   22274569.0594
  -9954476.21947  -7731618.93744  22539185.5944                   22539186.1214
  -6710059.43448  -5202760.40245  21708472.6564                   21708470.7544
 11  8 12 19 10  0.0000000  0  9G17G07G08G26G13G19G28G24G11
  -5784858.22347  -4460575.01245  23104824.1564                   23104824.3554
  -2335685.87948  -1802837.96146  20498599.1174                   20498596.9494
  -9559670.68748  -7424215.87946  20526104.3364                   20526102.8164
  -1714140.05946  -1268328.55944  23428031.8204                   23428032.2274
  15389224.98846  11981561.35943  24056156.7664                   24056159.6604
  12814615.11747   9981495.37544  23935278.6024                   23935276.1724
  -5231863.16448  -4071496.40645  22261259.2034                   22261257.1884
 -10046470.34847  -7803302.61345  22521679.7034                   22521680.3954
  -6760343.18748  -5241942.54345  21698904.0634                   21698902.5864
 11  8 12 19 10 30.0000000  0  9G17G07G08G26G13G19G28G24G11
  -5916917.55947  -4563478.32045  23079694.4224                   23079694.4104
  -2363337.43448  -1824384.65246  20493337.2584                   20493335.2074
  -9645639.66848  -7491204.70746  20509744.8834                   20509743.3284
  -1815705.95747  -1347470.79744  23408704.5234                   23408704.9304
  15456574.34046  12034041.10243  24068973.1644                   24068976.4144
  12873504.82046  10027383.41444  23946485.7114                   23946482.1764
  -5301756.50047  -4125958.75045  22247959.1024                   22247957.0474
 -10138069.39547  -7874678.43744  22504248.7424                   22504249.3404
  -6810059.28148  -5280682.34845  21689443.1254                   21689441.8244
 11  8 12 19 11  0.0000000  0  9G17G07G08G26G13G19G28G24G11
  -6048723.73847  -4666184.34045  23054612.0944                   23054612.6334
  -2390535.41848  -1845577.91046  20488161.7114                   20488159.5474
  -9731250.29748  -7557914.27746  20493453.8134                   20493452.4654
  -1916748.92647  -1426205.55144  23389476.4064                   23389477.0234
  15523913.71946  12086513.09043  24081787.6884                   24081790.7114
  12932501.30547  10073354.64844  23957711.5634                   23957708.8794
  -5371605.18748  -4180386.28945  22234667.2584                   22234665.1174
 -10229286.47347  -7945756.62544  22486890.8204                   22486891.2624
  -6859222.52748  -5318991.35245  21680088.1024                   21680086.1374
 11  8 12 19 11 30.0000000  0  9G17G07G08G26G13G19G28G24G11
  -6180261.00847  -4768680.83245  23029581.2344                   23029581.8984
  -2417265.34448  -1866406.44946  20483075.1094                   20483072.9104
  -9816485.98848  -7624331.71146  20477233.9774                   20477232.7544
  -2017253.01647  -1504520.37544  23370351.5004                   23370351.9224
  15591254.35246  12138986.02343  24094601.9924                   24094605.6564
  12991616.27347  10119418.21544  23968960.4614                   23968958.5784
  -5441395.80948  -4234768.58645  22221386.4144                   22221384.4614
 -10320104.94547  -8016524.20745  22469608.4064                   22469609.2384
  -6907817.91848  -5356857.87545  21670840.4384                   21670838.7034
 11  8 12 19 12  0.0000000  0  9G17G07G08G26G13G19G28G24G11
  -6311546.41047  -4870981.05545  23004598.8834                   23004599.1374
  -2443544.58248  -1886883.80146  20478074.4144                   20478072.1644
  -9901362.95348  -7690469.60246  20461082.3284                   20461080.8754
  -2117234.67647  -1582428.12544  23351325.5084                   23351326.4494
  15658575.10246  12191443.44943  24107413.2584                   24107416.5984
  13050828.77747  10165557.78943  23980228.7344                   23980226.0474
  -5511147.25848  -4289120.35945  22208113.5864                   22208110.8794
 -10410540.68447  -8086993.55145  22452399.1094                   22452399.8834
  -6955863.39148  -5394295.88745  21661697.7114                   21661695.5824
 11  8 12 19 12 30.0000000  0  9G17G07G08G26G13G19G28G24G11
  -6442571.81247  -4973078.69545  22979665.0084                   22979666.0474
  -2469366.07448  -1907004.46546  20473160.8754                   20473158.8954
  -9985872.25848  -7756321.00846  20445000.7424                   20444999.3674
  -2216686.13347  -1659922.72344  23332399.7974                   23332401.2974
  15725879.19546  12243887.90843  24120221.0084                   24120224.5204
  13110142.38746  10211776.14144  23991515.6884                   23991513.3874
  -5580853.86348  -4343437.19945  22194848.5314                   22194846.7464
 -10500584.92247  -8157157.84445  22435264.2034                   22435264.9654
  -7003351.59047  -5431299.66045  21652661.0234                   21652659.3874
 11  8 12 19 13  0.0000000  0  9G17G07G08G26G13G19G28G24G11
  -6573336.52747  -5074973.16845  22954781.6414                   22954781.9844
  -2494729.66448  -1926768.32846  20468334.4614                   20468332.5434
 -10070011.81248  -7821884.30546  20428989.7584                   20428988.0824
  -2315605.89547  -1737003.06644  23313576.5234                   23313576.9804
  15793163.10246  12296316.62143  24133025.4844                   24133028.6024
  13169553.96147  10258070.83244  24002821.8054                   24002819.1524
  -5650516.59848  -4397719.85945  22181592.3364                   22181590.1294
 -10590235.50047  -8227015.37945  22418204.0004                   22418204.6254
  -7050282.59848  -5467869.26645  21643730.2974                   21643728.4064
 11  8 12 19 13 30.0000000  0  9G17G07G08G26G13G19G28G24G11
  -6703843.87147  -5176667.11345  22929946.1884                   22929947.2894
  -2519639.66848  -1946178.74646  20463593.9454                   20463592.0514
 -10153784.44548  -7887161.68046  20413048.4534                   20413046.8134
  -2413997.19547  -1813671.60944  23294853.1484                   23294853.1684
  15860419.44546  12348723.87543  24145823.8204                   24145827.6914
  13229056.34447  10304436.26644  24014144.0704                   24014141.7234
  -5720141.12948  -4451972.74645  22168343.1884                   22168340.8954
 -10679494.68747  -8296567.96145  22401218.7274                   22401219.2154
  -7096660.54748  -5504007.91045  21634904.8284                   21634902.9924
 11  8 12 19 14  0.0000000  0  9G17G07G08G26G13G19G28G24G11
  -6834090.21947  -5278157.67645  22905161.4534                   22905162.2304
  -2544093.28948  -1965233.55146  20458940.5314                   20458938.6484
 -10237185.78148  -7952149.73046  20397177.5474                   20397175.8324
  -2511856.34447  -1889925.45743  23276230.2194                   23276231.4454
  15927647.05546  12401108.71543  24158616.5164                   24158620.8134
  13288649.00047  10350872.05944  24025484.7894                   24025482.4304
  -5789726.17248  -4506194.85545  22155101.4924                   22155099.6484
 -10768357.85947  -8365811.94545  22384308.3204                   22384309.2074
  -7142482.51248  -5539713.32445  21626185.5234                   21626183.4454
 11  8 12 19 14 30.0000000  0  9G17G07G08G26G13G19G28G24G11
  -6964087.51647  -5379454.18045  22880423.2344                   22880424.3834
  -2568103.40248  -1983942.75446  20454371.7114                   20454369.6374
 -10320226.68048  -8016856.91846  20381375.3754                   20381373.9144
  -2609195.21546  -1965773.89143  23257708.3834                   23257708.3204
  15994829.82847  12453458.62543  24171402.2114                   24171405.7974
  13348315.93447  10397365.71544  24036838.6414                   24036836.6954
  -5859285.70348  -4560397.09045  22141865.1024                   22141862.7704
 -10856835.99247  -8434755.92645  22367471.4774                   22367472.5234
  -7187761.64148  -5574995.75445  21617568.7974                   21617566.7934
 11  8 12 19 15  0.0000000  0  9G17G07G08G26G13G19G28G24G11
  -7093834.65647  -5480555.75445  22855733.8054                   22855734.1914
  -2591669.70348  -2002306.13346  20449887.1954                   20449885.0004
 -10402904.94148  -8081281.54346  20365642.0784                   20365640.1374
  -2706012.08247  -2041215.59044  23239284.3204                   23239284.7424
  16061964.94547  12505771.39843  24184177.6414                   24184181.0824
  13408054.52047  10443915.20744  24048206.5164                   24048204.6484
  -5928820.39848  -4614579.96545  22128632.8674                   22128630.7384
 -10944926.73447  -8503398.02345  22350708.3054                   22350709.2504
  -7232497.57448  -5609854.91045  21609055.9454                   21609054.1094
 11  8 12 19 15 30.0000000  0  9G17G07G08G26G13G19G28G24G11
  -7223331.68047  -5581462.45345  22831090.7034                   22831091.6524
  -2614793.15248  -2020324.44546  20445487.0394                   20445484.9964
 -10485220.43448  -8145423.48446  20349977.9774                   20349976.3674
  -2802307.32847  -2116250.82844  23220960.7274                   23220960.8594
  16129047.52347  12558043.24643  24196943.5234                   24196946.8094
  13467860.57447  10490517.29344  24059587.1644                   24059585.0904
  -5998332.63348  -4668745.34845  22115405.0394                   22115402.9414
 -11032629.59447  -8571737.89545  22334019.4924                   22334019.7704
  -7276691.27348  -5644291.55145  21600646.0234                   21600644.2584
 11  8 12 19 16  0.0000000  0  9G17G07G08G26G13G19G28G24G11
  -7352571.78147  -5682168.93445  22806497.3984                   22806498.2274
  -2637467.55948  -2037992.84446  20441172.1644                   20441170.3834
 -10567164.73048  -8209276.18746  20334384.4144                   20334383.0204
  -2898073.56247  -2190873.84844  23202736.7894                   23202736.6484
  16196080.48446  12610276.40243  24209699.5164                   24209703.4574
  13527736.66847  10537173.93844  24070981.2584                   24070979.2234
  -6067817.46147  -4722889.38745  22102182.7034                   22102180.3634
 -11119936.44547  -8639769.18745  22317405.2274                   22317405.6414
  -7320336.79347  -5678301.04745  21592340.5234                   21592339.1764
 11  8 12 19 16 30.0000000  0  9G17G07G08G26G13G19G28G24G11
  -7481569.18047  -5782686.30545  22781949.7974                   22781950.6764
  -2659708.01648  -2055323.10246  20436939.9144                   20436937.8914
 -10648751.26648  -8272850.10946  20318859.2114                   20318857.6174
  -2993325.09047  -2265095.77344  23184610.1564                   23184611.5514
  16263045.21946  12662456.41443  24222442.3054                   24222446.9804
  13587664.91047  10583871.21544  24082385.3594                   24082383.2194
  -6137290.98447  -4777024.59845  22088962.0474                   22088960.0084
 -11206860.50047  -8707502.19945  22300863.8984                   22300864.6054
  -7363449.25447  -5711895.16045  21584136.5784                   21584134.8404
 11  8 12 19 17  0.0000000  0  9G17G07G08G26G13G19G28G24G11
  -7610309.40647  -5883003.28945  22757451.4774                   22757451.6804
  -2681500.96148  -2072304.64846  20432793.0944                   20432791.0704
 -10729964.75448  -8336133.34846  20303404.7274                   20303402.9574
  -3088047.30547  -2338905.27344  23166585.2734                   23166586.2154
  16329951.75446  12714591.07043  24235174.1414                   24235178.8094
  13647655.90647  10630617.40644  24093801.9844                   24093799.2154
  -6206741.18448  -4831141.64146  22075746.4384                   22075743.7424
 -11293386.34047  -8774924.92245  22284398.5554                   22284399.5204
  -7406015.23048  -5745063.45746  21576036.8444                   21576034.8794
 11  8 12 19 17 30.0000000  0  9G17G07G08G26G13G19G28G24G11
  -7738783.48047  -5983112.87145  22733003.6644                   22733003.5664
  -2702838.14148  -2088931.05146  20428732.8594                   20428730.5164
 -10810794.82848  -8399117.82446  20288023.2274                   20288021.5704
  -3182230.95747  -2412295.10544  23148663.0634                   23148663.1994
  16396805.33246  12766684.44943  24247896.2814                   24247900.6684
  13707714.69547  10677416.41044  24105230.6334                   24105227.6804
  -6276160.60548  -4885234.69945  22062536.3914                   22062534.1524
 -11379503.71947  -8842029.34845  22268011.5234                   22268011.7624
  -7448026.53947  -5777799.54745  21568042.2034                   21568040.3754
 11  8 12 19 18  0.0000000  0  9G17G07G08G26G13G19G28G24G11
  -7867002.77047  -6083023.94145  22708604.3524                   22708604.5394
  -2723732.09848  -2105212.08646  20424756.7584                   20424754.7704
 -10891252.51648  -8461812.12946  20272712.8364                   20272711.3524
  -3275887.39847  -2485274.14844  23130840.6334                   23130841.0164
  16463590.46146  12818724.52743  24260605.5234                   24260609.9024
  13767825.99647  10724256.33244  24116668.8134                   24116666.6644
  -6345562.94547  -4939314.44145  22049329.5864                   22049327.2974
 -11465223.19547  -8908823.71945  22251699.1414                   22251700.0824
  -7489495.52748  -5810113.03545  21560150.5084                   21560149.4654
 11  8 12 19 18 30.0000000  0  9G17G07G08G26G13G19G28G24G11
  -7994971.52047  -6182739.78945  22684252.3754                   22684252.7114
  -2744188.04348  -2121151.81246  20420864.1334                   20420861.8284
 -10971341.07048  -8524218.79746  20257472.5634                   20257470.9964
  -3369020.71147  -2557845.50444  23113117.5784                   23113118.1564
  16530297.74646  12870703.85543  24273300.3984                   24273304.2854
  13827981.76746  10771130.89444  24128116.5554                   24128113.8714
  -6414954.39147  -4993385.69945  22036124.3204                   22036122.3984
 -11550548.22747  -8975310.73845  22235462.3674                   22235463.2384
  -7530427.50448  -5842008.07845  21552361.8054                   21552359.7194
 11  8 12 19 19  0.0000000  0  9G17G07G08G26G13G19G28G24G11
  -8122691.94947  -6282262.13745  22659948.0634                   22659948.4924
  -2764208.90248  -2136752.51246  20417054.4694                   20417051.9104
 -11051061.61748  -8586338.70746  20242302.2274                   20242301.1024
  -3461633.22347  -2630011.07444  23095494.0554                   23095494.1684
  16596921.19546  12922617.94542  24285978.3134                   24285982.3874
  13888175.88746  10818035.33644  24139570.8674                   24139568.5434
  -6484338.87948  -5047451.53945  22022921.3674                   22022919.1134
 -11635479.79747  -9041491.15645  22219300.7814                   22219301.5864
  -7570825.77748  -5873487.22345  21544674.0704                   21544672.3874
 11  8 12 19 19 30.0000000  0  9G17G07G08G26G13G19G28G24G11
  -8250154.55547  -6381583.58245  22635692.5784                   22635693.0274
  -2783785.89548  -2152007.34446  20413328.8594                   20413327.1484
 -11130403.93748  -8648163.89846  20227203.6884                   20227201.8834
  -3553715.09047  -2701763.14844  23077971.4454                   23077972.2034
  16663466.28946  12974470.98843  24298641.7424                   24298645.8754
  13948413.93846  10864974.01643  24151034.0234                   24151031.5124
  -6553708.95748  -5101506.14145  22009720.8204                   22009718.5044
 -11720007.49247  -9107356.85945  22203215.7664                   22203216.4224
  -7610681.82847  -5904543.88345  21537089.7734                   21537087.7344
 11  8 12 19 20  0.0000000  0  9G17G07G08G26G13G19G28G24G11
  -8377352.23047  -6480698.59045  22611488.0944                   22611488.0984
  -2802913.38748  -2166911.90646  20409689.2344                   20409687.0864
 -11209359.44948  -8709687.67246  20212179.2504                   20212177.5904
  -3645259.28547  -2773096.28544  23060551.3134                   23060551.3954
  16729936.03146  13026265.23842  24311290.4384                   24311293.9924
  14008698.66446  10911949.07443  24162505.6094                   24162503.8054
  -6623059.28548  -5155545.35945  21996523.6024                   21996521.3054
 -11804123.32847  -9172901.63745  22187208.1414                   22187209.1764
  -7649989.51648  -5935173.22345  21529609.8054                   21529608.1134
 11  8 12 19 20 30.0000000  0  9G17G07G08G26G13G19G28G24G11
  -8504308.93447  -6579625.82845  22587328.0704                   22587329.0394
  -2821615.72748  -2181485.19546  20406130.0084                   20406128.2734
 -11287951.48048  -8770928.23446  20197223.4614                   20197222.1884
  -3736289.60247  -2844028.99244  23043228.9614                   23043229.5044
  16796302.61746  13077979.17243  24323919.5784                   24323924.3164
  14069003.96146  10958940.13743  24173981.1954                   24173979.3794
  -6692415.79748  -5209589.39845  21983325.2424                   21983323.2624
 -11887849.95747  -9238143.13345  22171276.3754                   22171276.7504
  -7688773.70348  -5965394.65645  21522229.5704                   21522227.8094
 11  8 12 19 21  0.0000000  0  9G17G07G08G26G13G19G28G24G11
  -8631028.09847  -6678367.95745  22563214.7584                   22563214.7704
  -2839897.32048  -2195730.61746  20402651.1094                   20402649.5044
 -11366182.22348  -8831887.25046  20182336.8054                   20182335.7154
  -3826809.59047  -2914564.02044  23026003.7504                   23026003.2194
  16862558.34446  13129606.65243  24336527.7894                   24336531.8834
  14129321.86346  11005941.04743  24185459.6414                   24185457.5354
  -6761783.71948  -5263642.31645  21970125.0554                   21970122.6644
 -11971190.00447  -9303083.39545  22155416.6564                   22155417.6764
  -7727039.14148  -5995211.85945  21514947.8284                   21514945.7034
 11  8 12 19 21 30.0000000  0  9G17G07G08G26G13G19G28G24G11
  -8757492.82847  -6776911.83245  22539149.3444                   22539149.2274
  -2857742.32048  -2209635.84446  20399255.4694                   20399253.6094
 -11444034.21948  -8892551.15646  20167521.8754                   20167520.5124
  -3916802.25447  -2984688.16044  23008878.9694                   23008878.3834
  16928715.94546  13181157.75043  24349117.3134                   24349121.9454
  14189665.10546  11052961.70343  24196942.3674                   24196940.4414
  -6831147.84448  -5317692.27745  21956925.5554                   21956923.2814
 -12054125.72747  -9367708.60245  22139634.7894                   22139635.0634
  -7764769.95348  -6024612.47745  21507767.7974                   21507766.0634
 11  8 12 19 22  0.0000000  0  9G17G07G08G26G13G19G28G24G11
  -8883711.28947  -6875263.81245  22515130.6414                   22515130.7814
  -2875160.29348  -2223208.31646  20395941.0704                   20395939.5004
 -11521515.08648  -8952925.86746  20152777.9144                   20152776.2934
  -4006276.07847  -3054408.00844  22991852.2344                   22991852.3794
  16994762.60946  13232622.34443  24361686.6414                   24361690.8054
  14250021.71546  11099992.74243  24208427.8984                   24208426.1884
  -6900518.89847  -5371747.64845  21943724.5704                   21943722.8014
 -12136664.83247  -9432024.74245  22123928.0084                   22123928.6804
  -7801975.75848  -6053603.99645  21500687.6884                   21500685.7344
 11  8 12 19 22 30.0000000  0  9G17G07G08G26G13G19G28G24G11
  -9009670.98447  -6973414.16045  22491161.3364                   22491161.0434
  -2892139.25048  -2236438.70346  20392710.0234                   20392708.2544
 -11598610.76248  -9013000.42646  20138107.1174                   20138105.5314
  -4095218.28947  -3123713.59844  22974927.0004                   22974927.3714
  17060707.57446  13284007.70343  24374234.8834                   24374240.0234
  14310400.98447  11147041.46943  24219917.8284                   24219915.8484
  -6969885.70348  -5425799.71145  21930524.5394                   21930522.3094
 -12218793.44147  -9496021.02345  22108299.9454                   22108300.2154
  -7838644.55947  -6082177.08645  21493710.3054                   21493708.3014
 11  8 12 19 23  0.0000000  0  9G17G07G08G26G13G19G28G24G11
  -9135392.37547  -7071378.81645  22467237.2664                   22467237.1954
  -2908700.39148  -2249343.50846  20389558.7974                   20389556.9844
 -11675340.78548  -9072790.06246  20123505.5784                   20123504.3794
  -4183649.38747  -3192620.92244  22958099.0314                   22958100.0514
  17126526.09846  13335294.55143  24386760.4384                   24386765.2344
  14370778.73046  11194089.02744  24231407.3984                   24231405.1174
  -7039270.25848  -5479865.59445  21917321.1724                   21917319.0004
 -12300530.95747  -9559712.54745  22092745.5944                   22092745.9304
  -7874798.16848  -6110348.71945  21486830.0554                   21486828.2774
 11  8 12 19 23 30.0000000  0  9G17G07G08G26G13G19G28G24G11
  -9260885.96948  -7169165.96545  22443355.9534                   22443356.8164
  -2924855.44948  -2261931.90246  20386484.4614                   20386482.5164
 -11751714.75048  -9132302.24646  20108972.3754                   20108970.9574
  -4271579.77047  -3261138.08644  22941366.5864                   22941366.5084
  17192203.95346  13386471.73043  24399259.2584                   24399263.6054
  14431140.85246  11241124.39544  24242893.3984                   24242892.0904
  -7108685.05548  -5533955.04745  21904112.1174                   21904110.6564
 -12381886.64847  -9623106.55145  22077263.5394                   22077263.9224
  -7910448.08248  -6138127.86345  21480046.2664                   21480044.4804
 11  8 12 19 24  0.0000000  0  9G17G07G08G26G13G19G28G24G11
  -9386133.90647  -7266761.69145  22419522.9694                   22419523.1174
  -2940587.74648  -2274190.85946  20383490.5784                   20383488.9494
 -11827713.97348  -9191522.42246  20094509.9064                   20094508.6724
  -4358991.93747  -3329251.46944  22924732.7424                   22924732.7584
  17257754.30546  13437549.56643  24411733.1484                   24411737.4384
  14491501.34046  11288158.49243  24254380.0944                   24254377.7974
  -7178114.18048  -5588055.65245  21890899.8284                   21890898.0514
 -12462842.23847  -9686188.77745  22061858.4454                   22061858.9304
  -7945578.05548  -6165501.86745  21473361.1564                   21473358.8914
 11  8 12 19 24 30.0000000  0  9G17G07G08G26G13G19G28G24G11
  -9511148.78148  -7364175.81245  22395733.4064                   22395733.4144
  -2955910.41048  -2286130.63746  20380575.1254                   20380572.9844
 -11903349.92648  -9250459.54346  20080117.1174                   20080115.8634
  -4445898.22347  -3396970.64844  22908195.1484                   22908195.1684
  17323161.30946  13488515.70343  24424179.2034                   24424185.1644
  14551844.15647  11335178.81344  24265863.5234                   24265860.9804
  -7247571.62548  -5642178.33245  21877682.7584                   21877680.8204
 -12543409.09048  -9748968.09045  22046526.4694                   22046527.8794
  -7980201.42248  -6192481.11345  21466772.4224                   21466770.6954
 11  8 12 19 25  0.0000000  0  9G17G07G08G26G13G19G28G24G11
  -9635914.10548  -7461395.49245  22371990.6484                   22371990.5864
  -2970808.27348  -2297739.38746  20377739.8284                   20377738.3204
 -11978605.39148  -9309100.16846  20065796.5394                   20065794.7704
  -4532282.43747  -3464283.00444  22891755.9224                   22891756.6254
  17388437.25846  13539379.73043  24436602.0164                   24436606.7814
  14612181.75046  11382195.07843  24277344.9224                   24277342.2424
  -7317042.90648  -5696311.79746  21864462.9224                   21864460.8834
 -12623570.04347  -9811431.12145  22031272.7894                   22031273.0704
  -8014302.84048  -6219053.64545  21460283.4384                   21460281.2584
 11  8 12 19 25 30.0000000  0  9G17G07G08G26G13G19G28G24G11
  -9760436.05547  -7558425.50445  22348294.8284                   22348295.2194
  -2985288.34848  -2309022.59846  20374984.5634                   20374982.7734
 -12053485.40248  -9367448.23846  20051547.1954                   20051545.8834
  -4618150.70747  -3531193.30144  22875416.2424                   22875416.8984
  17453571.96946  13590133.65243  24448996.7114                   24449001.5164
  14672505.08247  11429200.21143  24288825.1804                   24288821.3914
  -7386535.55948  -5750461.91045  21851238.8984                   21851236.7894
 -12703330.34047  -9873581.94945  22016094.9144                   22016095.6134
  -8047889.96948  -6245225.43045  21453891.4694                   21453889.9414
 11  8 12 19 26  0.0000000  0  9G17G07G08G26G13G19G28G24G11
  -9884713.80948  -7655265.24245  22324645.8364                   22324645.7504
  -2999350.78948  -2319980.38746  20372308.3134                   20372306.9494
 -12127987.67248  -9425501.96946  20037369.8754                   20037368.5864
  -4703502.28547  -3597701.02744  22859174.3594                   22859174.6604
  17518562.40246  13640775.17243  24461363.9614                   24461369.3554
  14732811.30546  11476192.05143  24300299.6884                   24300297.9884
  -7456050.53548  -5804629.43045  21838010.9384                   21838008.6454
 -12782688.07047  -9935419.07845  22000993.5314                   22000994.1804
  -8080963.01648  -6270996.64145  21447597.9144                   21447596.3874
 11  8 12 19 26 30.0000000  0  9G17G07G08G26G13G19G28G24G11
 -10008766.59448  -7751929.69545  22301039.5394                   22301039.2774
  -3013015.90248  -2330628.55946  20369708.1724                   20369706.3794
 -12202131.10948  -9483276.07846  20023260.7664                   20023259.2274
  -4788356.84447  -3663821.44144  22843027.3524                   22843027.3594
  17583385.06346  13691285.93843  24473699.7424                   24473705.2504
  14793077.16846  11523152.44143  24311768.4614                   24311766.1294
  -7525609.23048  -5858831.01646  21824773.9694                   21824771.6524
 -12861661.91447  -9996957.09045  21985965.2194                   21985965.8404
  -8113542.74648  -6296383.44545  21441398.6334                   21441396.5634
 11  8 12 19 27  0.0000000  0  9G17G07G08G26G13G19G28G24G11
  -8557154.84547  -6620803.59145  22577271.8524                   22577271.3674
  -1450848.91248  -1113355.61446  20666978.7034                   20666976.9414
 -10700476.98848  -8313155.99946  20309016.0634                   20309015.0204
  -3297276.16547  -2501940.39844  23126770.2504   23126770.1804   19223469.80946
  14969273.64343                  24785797.4304                   24785803.5634
  16428732.88846  12797689.29243  24623023.0634                   24623020.7194
  -6019775.07048  -4685453.75445  22111324.6254                   22111322.3054
 -11364812.73947  -8830581.06645  22270806.0164                   22270807.0274
  -6570193.55248  -5093773.68945  21735087.8444                   21735086.3794
 11  8 12 19 27 30.0000000  0  9G17G07G08G26G13G19G28G24G11
  -8680723.54747  -6717090.83645  22553757.4304                   22553757.6724
  -1463688.66448  -1123360.65646  20664535.4304                   20664533.9964
 -10773865.77048  -8370342.06646  20295051.1804                   20295049.0554
  -3381102.59047  -2567259.71144  23110818.2274   23110818.8594   19287980.43046
  15019541.27342                  24798074.1564                   24798080.4024
  16488942.16846  12844605.58243  24634481.0864                   24634478.4414
  -6089390.85547  -4739699.82045  22098076.6644                   22098075.3284
 -11442981.56647  -8891491.79345  22255930.9774                   22255931.6804
  -6601755.68048  -5118367.55545  21729081.8284                   21729079.9384
 11  8 12 19 28  0.0000000  0  8G17G07G08G26G19G28G24G11
  -8804061.13347  -6813197.99245  22530286.8834                   22530286.7464
  -1476127.98848  -1133053.66446  20662168.3834                   20662166.4804
 -10846886.48448  -8427241.33646  20281155.4144                   20281153.9064
  -3464426.02747  -2632187.07844  23094962.3444   23094962.6374
  16549107.00346  12891487.19643  24645930.4694                   24645928.1764
  -6159048.84047  -4793978.76245  22084821.5164                   22084819.9924
 -11520757.71947  -8952096.54745  22241130.7894                   22241131.1954
  -6632822.11348  -5142575.14845  21723170.2504                   21723168.2664
 11  8 12 19 28 30.0000000  0  8G17G07G08G26G19G28G24G11
  -8927168.43747  -6909125.70745  22506859.9224                   22506859.9104
  -1488168.82848  -1142436.18046  20659876.8204                   20659875.2584
 -10919538.90648  -8483853.62146  20267330.3524                   20267328.6094
  -3547247.61347  -2696723.37144  23079202.4144   23079202.5084
  16609223.18046  12938330.91443  24657370.5234                   24657367.4804
  -6228751.38748  -4848292.44146  22071557.5944                   22071555.3714
 -11598140.85947  -9012395.06245  22226404.9224                   22226405.5824
  -6663394.68448  -5166397.92645  21717352.6414                   21717350.5744
 11  8 12 19 29  0.0000000  0  8G17G07G08G26G19G28G24G11
  -9050039.67247  -7004869.47345  22483478.8054                   22483479.0274
  -1499806.51648  -1151504.54346  20657662.3834                   20657661.1214
 -10991816.53148  -8540173.86346  20253576.2504                   20253574.7464
  -3629561.78547  -2760864.27744  23063538.3754   23063538.5084
  16669292.89846  12985138.42643  24668800.6724                   24668798.4304
  -6298494.02348  -4902637.35245  22058285.8984                   22058284.1374
 -11675124.40647  -9072382.19545  22211755.5554                   22211755.9304
  -6693469.12948  -5189832.55145  21711629.3204                   21711627.5944
 11  8 12 19 29 30.0000000  0  8G17G07G08G26G19G28G24G11
  -9172661.87547  -7100419.18045  22460144.6094                   22460144.2344
  -1511029.36348  -1160249.66046  20655527.0394                   20655525.3324
 -11063705.27348  -8596191.07446  20239896.5004                   20239894.7274
  -3711355.46147  -2824599.64544  23047973.5394   23047973.4774
  16729325.82846  13031917.27343  24680224.3444                   24680222.6564
  -6368265.79348  -4957004.96545  22045009.4534                   22045007.2194
 -11751694.44947  -9132047.14545  22197184.6254                   22197185.1564
  -6723033.61348  -5212869.81245  21706003.3444                   21706001.5784
 11  8 12 19 30  0.0000000  0  8G17G07G08G26G19G28G24G11
  -9295039.66847  -7195778.43445  22436856.6024                   22436856.5044
  -1521842.49248  -1168675.50846  20653469.2344                   20653467.5594
 -11135208.85548  -8651908.18046  20226289.2734                   20226288.0824
  -3792633.69547  -2887933.30544  23032506.8134   23032507.0784
  16789314.34846  13078661.49643  24691639.6254                   24691637.9104
  -6438072.33648  -5011399.66846  22031725.3984                   22031723.7854
 -11827854.75047  -9191392.81245  22182692.2034                   22182692.4494
  -6752093.82448  -5235514.12545  21700473.3674                   21700471.5664
 11  8 12 19 30 30.0000000  0  8G17G07G08G26G19G28G24G11
  -9417150.78547  -7290929.89545  22413620.0554                   22413619.3404
  -1532225.03548  -1176765.83646  20651493.6724                   20651491.9614
 -11206304.00448  -8707307.01246  20212760.5554                   20212758.9264
  -3873374.55947  -2950848.29344  23017142.5234   23017143.1604
  16849276.56646  13125385.21143  24703050.3284                   24703048.7934
  -6507893.18748  -5065805.53546  22018438.7274                   22018436.8794
 -11903582.54747  -9250401.45745  22168281.6644                   22168281.7704
  -6780629.41048  -5257749.64545  21695043.2274                   21695041.7504
 11  8 12 19 31  0.0000000  0  8G17G07G08G26G19G28G24G11
  -9539018.16847  -7385891.43445  22390428.9694                   22390428.6804
  -1542200.84848  -1184539.24246  20649595.1024                   20649593.1094
 -11277012.83648  -8762404.81646  20199305.2114                   20199303.7114
  -3953601.13347  -3013362.50044  23001875.1334   23001876.1214
  16909186.80546  13172068.40643  24714450.6484                   24714449.4144
  -6577752.67647  -5120241.49645  22005145.2274                   22005143.0434
 -11978899.93747  -9309090.30545  22153949.2034                   22153949.2274
  -6808664.41448  -5279595.10945  21689708.5474                   21689706.7544
 11  8 12 19 31 30.0000000  0  8G17G07G08G26G19G28G24G11
  -9660635.30948  -7480657.98045  22367286.1564                   22367285.4064
  -1551764.91448  -1191991.79746  20647775.3054                   20647773.6604
 -11347327.84048  -8817195.74246  20185924.5164                   20185923.1954
  -4033307.30947  -3075471.20744  22986708.2584   22986708.6564
  16969047.93446  13218713.37543  24725841.5474                   24725840.5594
  -6647645.78547  -5174703.66446  21991844.9614                   21991843.1254
 -12053799.55147  -9367453.61345  22139696.0234                   22139696.5124
  -6836193.85248  -5301046.62545  21684469.4774                   21684468.3754
 11  8 12 19 32  0.0000000  0  8G17G07G08G26G19G28G24G11
  -9782009.66048  -7575235.34045  22344188.9534                   22344188.8204
  -1560925.60248  -1199130.02346  20646032.0704                   20646030.3054
 -11417255.33648  -8871684.71946  20172618.0234                   20172616.5234
  -4112500.76647  -3137180.39144  22971638.8444   22971638.9264
  17028849.33246  13265311.80943  24737222.8204                   24737220.0944
  -6717581.38347  -5229198.93045  21978536.6094                   21978534.4804
 -12128288.11347  -9425496.62545  22125521.2894                   22125521.9384
  -6863226.41448  -5322110.96145  21679325.6564                   21679323.9734
 11  8 12 19 32 30.0000000  0  8G17G07G08G26G19G28G24G11
  -9903121.35248  -7669608.04345  22321142.8984                   22321142.3094
  -1569664.15648  -1205939.33246  20644369.0234                   20644367.5354
 -11486774.46948  -8925855.48846  20159388.8834                   20159386.9964
  -4191161.96547  -3198474.81244  22956669.4614   22956670.1484
  17088607.58646  13311876.64143  24748593.4454                   24748591.3754
  -6787541.22347  -5283713.09046  21965223.4614                   21965221.7344
 -12202344.71947  -9483203.05945  22111429.0164                   22111429.2114
  -6889743.74248  -5342773.83245  21674279.1254                   21674277.8444
 11  8 12 19 33  0.0000000  0  8G17G07G08G26G19G28G24G11
 -10023977.43048  -7763781.54345  22298144.1724                   22298144.1254
  -1577988.57048  -1212425.92646  20642785.2814                   20642783.5984
 -11555891.50448  -8979712.94546  20146236.4614                   20146234.9184
  -4269298.27047  -3259360.24644  22941800.8524   22941801.4654
  17148312.60546  13358400.00043  24759955.6644                   24759952.5594
  -6857533.62147  -5338252.61346  21951904.5164                   21951902.9454
 -12275975.71147  -9540577.82845  22097417.2584                   22097417.5354
  -6915754.23448  -5363041.76245  21669329.9694                   21669328.1214
 11  8 12 19 33 30.0000000  0  8G17G07G08G26G19G28G24G11
 -10144565.43048  -7857746.16445  22275196.7974                   22275196.8914
  -1585887.50448  -1218580.97746  20641282.3364                   20641280.6134
 -11624592.62948  -9033246.30146  20133163.0164                   20133161.8364
  -4346897.07447  -3319826.85544  22927033.9534   22927034.2664
  17207973.54746  13404889.00443  24771309.2194                   24771305.7274
  -6927547.32048  -5392808.73046  21938581.1484                   21938579.4224
 -12349167.76647  -9597610.55945  22083489.7194                   22083489.4574
  -6941246.81648  -5382906.12545  21664478.6484                   21664477.0664
 11  8 12 19 34  0.0000000  0  8G17G07G08G26G19G28G24G11
 -10264887.22748  -7951503.35545  22252300.7034                   22252300.1454
  -1593363.93748  -1224406.81246  20639859.3914                   20639857.6914
 -11692878.95748  -9086456.44146  20120168.6884                   20120167.0124
  -4423961.10247  -3379876.75044  22912369.4144   22912370.2194
  17267585.20746  13451339.60943  24782652.3054                   24782650.5044
  -6997585.58247  -5447384.01245  21925253.4304                   21925251.2274
 -12421922.11747  -9654302.23045  22069644.6954                   22069645.3204
  -6966224.58648  -5402369.34045  21659725.7034                   21659723.8794
 11  8 12 19 34 30.0000000  0  8G17G07G08G26G19G28G24G11
 -10384964.84048  -8045070.27045  22229450.1334                   22229450.0354
  -1600441.22348  -1229921.62146  20638513.0864                   20638511.2624
 -11760771.63748  -9139359.83646  20107249.1644                   20107247.4454
  -4500512.60547  -3439527.25444  22897802.1954   22897802.9534
  17327122.59047  13497732.35543  24793982.5004                   24793980.0984
  -7067672.05147  -5501996.83245  21911916.3754                   21911914.6054
 -12494259.84047  -9710669.25445  22055879.0394                   22055879.5234
  -6990711.15248  -5421449.78945  21655066.1094                   21655064.3444
 11  8 12 19 35  0.0000000  0  8G17G07G08G26G19G28G24G11
 -10504785.03548  -8138436.59845  22206649.0554                   22206649.2624
  -1607107.02348  -1235115.79746  20637244.2114                   20637242.9184
 -11828256.60948  -9191945.55146  20094407.1884                   20094405.7154
  -4576538.47347  -3498768.18044  22883334.8674   22883335.2934
  17386595.77347  13544075.03543  24805299.3674                   24805297.4454
  -7137794.56247  -5556637.75046  21898572.3444                   21898571.0394
 -12566166.91847  -9766700.73045  22042195.6254                   22042195.9494
  -7014694.99248  -5440138.50445  21650501.5944                   21650500.1564
 11  8 12 19 35 30.0000000  0  7G17G07G08G26G28G24G11
 -10624340.21148  -8231596.42645  22183898.8364                   22183898.3524
  -1613354.96148  -1239984.37146  20636055.6254                   20636053.9654
 -11895325.21148  -9244206.81646  20081644.4774                   20081642.5164
  -4652031.80147  -3557594.14844  22868968.9614   22868969.2814
  -7207947.05947  -5611302.03146  21885222.8364                   21885221.2664
 -12637635.50847  -9822390.51645  22028595.6564                   22028595.8014
  -7038169.93448  -5458430.67245  21646034.9534                   21646033.1844
 11  8 12 19 36  0.0000000  0  7G17G07G08G26G28G24G11
 -10743641.00848  -8324558.03545  22161196.2974                   22161195.9734
  -1619197.16848  -1244536.78546  20634943.6094                   20634941.9494
 -11961986.96948  -9296151.06646  20068959.2114                   20068957.8014
  -4727003.48847  -3616013.65244  22854702.5704   22854702.8914
  -7278141.12548  -5665998.69946  21871865.5394                   21871863.8054
 -12708674.97347  -9877745.91845  22015077.2894                   22015077.7464
  -7061147.71548  -5476335.43445  21641662.9774                   21641660.8874
 11  8 12 19 36 30.0000000  0  7G17G07G08G26G28G24G11
 -10862692.06648  -8417325.03545  22138541.5704                   22138541.2344
  -1624639.06648  -1248777.25846  20633907.9304                   20633906.4654
 -12028245.69148  -9347781.25046  20056350.3524                   20056348.9804
  -4801458.48847  -3674030.51244  22840533.9774   22840534.4414
  -7348382.75448  -5720732.42645  21858498.8754                   21858496.7704
 -12779289.23848  -9932769.98845  22001639.9144                   22001640.5824
  -7083634.82848  -5493857.85545  21637383.3754                   21637381.8014
 11  8 12 19 37  0.0000000  0  7G17G07G08G26G28G24G11
 -10981496.02048  -8509899.50845  22115934.1254                   22115933.4614
  -1629684.55548  -1252708.85546  20632947.9064                   20632946.5314
 -12094103.13348  -9399098.75846  20043818.2504                   20043816.7934
  -4875400.10947  -3731647.35544  22826463.1094   22826463.3984
  -7418675.75848  -5775506.19146  21845122.7974                   21845120.6844
 -12849480.50047  -9987464.44145  21988282.4534                   21988283.1764
  -7105635.41848  -5511001.17645  21633196.8054                   21633194.8204
 11  8 12 19 37 30.0000000  0  7G17G07G08G26G28G24G11
 -11100030.77048  -8602264.20745  22093377.7734                   22093377.2854
  -1634312.94148  -1256315.43446  20632067.2974                   20632065.8594
 -12159536.05548  -9450085.46146  20031366.8984                   20031365.2664
  -4948806.60246  -3788847.21944  22812494.9774   22812494.3984
  -7488999.43748  -5830303.85246  21831740.2194                   21831738.6134
 -12919225.96948 -10041811.52745  21975010.7664                   21975010.8244
  -7127128.80948  -5527749.27345  21629106.9844                   21629105.0864
 11  8 12 19 38  0.0000000  0  7G17G07G08G26G28G24G11
 -11218302.66048  -8694424.08645  22070871.0164                   22070870.7934
  -1638531.39548  -1259602.59046  20631264.7894                   20631263.0904
 -12224549.91448  -9500745.62546  20018994.9694                   20018993.6914
  -5021684.81647  -3845635.44144  22798626.6484   22798626.8594
  -7559361.64548  -5885131.53946  21818350.7504                   21818348.9414
 -12988531.11347 -10095815.51245  21961822.1644                   21961822.0744
  -7148123.10948  -5544108.45745  21625111.6884                   21625109.7464
 11  8 12 19 38 30.0000000  0  7G17G07G08G26G28G24G11
 -11336312.58648  -8786379.82845  22048414.5314                   22048414.1844
  -1642342.54348  -1262572.36746  20630539.2194                   20630537.6134
 -12289144.54348  -9551079.11346  20006703.1024                   20006701.8324
  -5094036.46947  -3902013.34044  22784857.7504   22784858.8674
  -7629764.41447  -5939990.84046  21804954.0164                   21804952.1844
 -13057396.36347 -10149476.71545  21948717.7584                   21948717.5594
  -7168620.77748  -5560080.67245  21621211.0234                   21621209.3984
 11  8 12 19 39  0.0000000  0  7G17G07G08G26G28G24G11
 -11454070.60548  -8878139.29745  22026005.9534                   22026005.8324
  -1645757.19548  -1265233.18446  20629889.7734                   20629887.9884
 -12353329.20348  -9601093.14546  19994489.1644                   19994487.6994
  -5165871.29347  -3957988.53544  22771187.9384   22771188.1914
  -7700218.20748  -5994889.89546  21791547.1094                   21791544.8524
 -13125830.82047 -10202802.24245  21935694.8054                   21935695.6094
  -7188633.10248  -5575674.69545  21617403.0704                   21617401.5274
 11  8 12 19 39 30.0000000  0  7G17G07G08G26G28G24G11
 -11571572.18748  -8969698.93046  22003646.0634                   22003645.7194
  -1648771.86348  -1267582.32846  20629316.3284                   20629314.8754
 -12417098.46948  -9650783.49246  19982354.0394                   19982352.6724
  -5237185.67247  -4013558.17644  22757617.5704   22757618.3364
  -7770720.06648  -6049826.40246  21778131.0634                   21778128.7384
 -13193829.19147 -10255787.95345  21922755.3594                   21922755.7974
  -7208157.21148  -5590888.29745  21613687.4384                   21613685.7974
 11  8 12 19 40  0.0000000  0  7G17G07G08G26G28G24G11
 -11688804.09048  -9061048.42645  21981337.7584                   21981336.9654
  -1651374.73848  -1269610.59046  20628820.5314                   20628818.9804
 -12480438.43448  -9700139.31646  19970300.8594                   19970299.5554
  -5307967.01247  -4068712.47744  22744148.3284   22744148.2624
  -7841258.18048  -6104791.15646  21764707.6884                   21764705.9304
 -13261377.82447 -10308423.22345  21909900.9454                   21909901.2734
  -7227181.70747  -5605712.58245  21610067.4694                   21610065.5124
 11  8 12 19 40 30.0000000  0  7G17G07G08G26G28G24G11
 -11805767.49248  -9152188.69546  21959080.3364                   21959079.5354
  -1653568.02348  -1271319.69146  20628403.4064                   20628401.8634
 -12543348.49248  -9749160.14846  19958329.8364                   19958328.2974
  -5378216.69147  -4123452.48844  22730780.5704   22730780.7774
  -7911834.30548  -6159785.53546  21751277.2504                   21751275.7194
 -13328477.18447 -10360708.41845  21897132.1724                   21897132.5904
  -7245709.07048  -5620149.49645  21606541.9224                   21606539.7544
 11  8 12 19 41  0.0000000  0  7G17G07G08G26G28G24G11
 -11922478.59848  -9243132.37946  21936870.9924                   21936870.3984
  -1655369.48448  -1272723.47746  20628060.4774                   20628058.9304
 -12605844.20348  -9797858.11346  19946437.0314                   19946435.8634
  -5447951.75047  -4177791.50444  22717509.7664   22717510.2734
  -7982465.89548  -6214823.13746  21737836.7584                   21737835.1644
 -13395142.93447 -10412655.72345  21884446.5704                   21884446.9574
  -7263757.35248  -5634213.09845  21603107.2894                   21603105.2384
 11  8 12 19 41 30.0000000  0  7G17G07G08G26G28G24G11
 -12038943.08248  -9333883.88746  21914708.2584                   21914707.9964
  -1656785.96548  -1273827.27746  20627791.1024                   20627789.4454
 -12667930.63348  -9846237.14846  19934622.5554                   19934621.4654
  -5517178.51647  -4231734.44144  22704336.5864   22704336.9844
  -8053159.67248  -6269909.20346  21724383.8754                   21724382.4774
 -13461379.92647 -10464268.94945  21871842.4774                   21871842.3014
  -7281333.66448  -5647908.93045  21599762.8364                   21599760.9534
 11  8 12 19 42  0.0000000  0  7G17G07G08G26G28G24G11
 -12155150.39148  -9424434.98445  21892594.9384                   21892594.6804
  -1657807.95348  -1274623.67646  20627596.6334                   20627595.1484
 -12729596.55548  -9894288.52346  19922888.0164                   19922886.3874
  -5585886.74247  -4285273.34444  22691261.8054   22691262.1374
  -8123906.14848  -6325036.32846  21710921.4304                   21710919.7194
 -13527176.77747 -10515539.19945  21859321.0474                   21859321.5124
  -7298429.01647  -5661230.00445  21596509.4774                   21596508.2504
 11  8 12 19 42 30.0000000  0  7G17G07G08G26G28G24G11
 -12271089.74648  -9514777.29746  21870531.8444                   21870531.5084
  -1658426.31248  -1275105.56246  20627478.8834                   20627477.2154
 -12790829.91848  -9942002.84046  19911235.4384                   19911233.7624
  -5654066.35946  -4338400.31644  22678288.2584   22678288.1214
  -8194695.73448  -6380197.03946  21697450.7664                   21697449.2934
 -13592522.58648 -10566458.00845  21846886.5784                   21846886.5474
  -7315034.41447  -5674169.28145  21593349.6254                   21593347.5394
 11  8 12 19 43  0.0000000  0  7G17G07G08G26G28G24G11
 -12386754.93048  -9604905.96146  21848521.6804                   21848521.2894
  -1658635.64848  -1275268.72746  20627439.4224                   20627437.7424
 -12851623.54348  -9989374.50046  19899666.7734                   19899665.8054
  -5721711.81247  -4391111.05944  22665415.5784   22665415.4924
  -8265522.89548  -6435387.04746  21683972.7664                   21683971.1604
 -13657410.37948 -10617019.91845  21834538.7504                   21834538.9654
  -7331145.40647  -5686723.31645  21590283.3054                   21590281.9264
 11  8 12 19 43 30.0000000  0  7G17G07G08G26G28G24G11
 -12502150.34048  -9694824.41046  21826562.4384                   21826562.2624
  -1658441.62948  -1275117.59046  20627476.2504                   20627474.3404
 -12911980.61348 -10036405.99646  19888181.2894                   19888179.9414
  -5788827.74647  -4443409.20344  22652643.7504   22652643.9774
  -8336392.98448  -6490610.50446  21670486.6884                   21670484.7074
 -13721843.82847 -10667227.78145  21822277.3834                   21822277.6054
  -7346767.85947  -5698896.67245  21587311.0704                   21587308.9414
 11  8 12 19 44  0.0000000  0  7G17G07G08G26G28G24G11
 -11041852.06648  -8556929.59046  22104448.1174                   22104447.9384
    -82425.51648    -47053.13346  20927382.0004                   20927380.7304
 -11396478.66848  -8855495.39846  20176571.9774                   20176570.7504
  -4279992.96547  -3267693.78144  22939765.1414   22939765.6454
  -6831884.86348  -5318266.50446  21956785.0634                   21956783.3324
 -12210400.41847  -9489479.66445  22109895.4384                   22109895.3954
  -5786483.03948  -4483090.32845  21884222.9534                   21884221.4184
 11  8 12 19 44 30.0000000  0  7G17G07G08G26G28G24G11
 -11156708.48048  -8646428.03946  22082591.7664                   22082591.3554
    -81429.29748    -46276.90246  20927571.7424                   20927570.2034
 -11455961.26248  -8901845.48846  20165252.4694                   20165251.5744
  -4346053.12947  -3319169.25444  22927195.1174   22927194.7114
  -6902844.28148  -5373559.55546  21943282.0704                   21943280.3364
 -12273924.16048  -9538978.66845  22097807.0704                   22097807.4924
  -5801134.37947  -4494506.97345  21881435.5004                   21881433.6684
 11  8 12 19 45  0.0000000  0  7G17G07G08G26G28G24G11
 -11271290.28948  -8735712.50046  22060787.4304                   22060786.9264
    -80028.99648    -45185.79746  20927838.4614                   20927836.9494
 -11514999.93748  -8947849.66446  20154018.0314                   20154016.5354
  -4411581.18747  -3370230.07844  22914725.2734   22914725.7814
  -6973844.60248  -5428884.47346  21929771.3984                   21929769.0944
 -12336986.82047  -9588118.39145  22085806.8984                   22085807.0204
  -5815297.54747  -4505543.21145  21878740.2274                   21878738.1604
 11  8 12 19 45 30.0000000  0  7G17G07G08G26G28G24G11
 -11385595.08247  -8824781.11346  22039036.0084                   22039035.4804
    -78223.44147    -43778.91846  20928181.7974                   20928180.6564
 -11573591.75448  -8993505.65646  20142868.2814                   20142867.1254
  -4476575.64847  -3420875.13344  22902356.9774   22902357.2504
  -7044884.50447  -5484240.23846  21916253.2664                   21916251.0664
 -12399585.97347  -9636896.95345  22073894.6884                   22073894.7774
  -5828971.94147  -4516198.60245  21876138.0084                   21876136.0554
 11  8 12 19 46  0.0000000  0  7G17G07G08G26G28G24G11
 -11499637.54348  -8913645.31246  22017334.3524                   22017333.7464
    -76028.50448    -42068.62146  20928599.5314                   20928598.0944
 -11631750.04748  -9038823.82846  20131800.8134                   20131799.7854
  -4541051.45747  -3471116.03144  22890087.9534   22890088.1094
  -7115979.41448  -5539638.85946  21902723.6024                   21902721.8674
 -12461735.49247  -9685325.12545  22062067.7274                   22062068.4024
  -5842173.61348  -4526485.63345  21873625.7734                   21873623.6724
 11  8 12 19 46 30.0000000  0  7G17G07G08G26G28G24G11
 -11613410.93447  -9002299.85246  21995684.0554                   21995683.3834
    -73438.35948    -40050.36746  20929092.5004                   20929090.9344
 -11689467.63348  -9083798.59046  20120818.2034                   20120816.6764
  -4605002.77747  -3520948.25444  22877918.0314   22877918.6054
  -7187123.20348  -5595075.56246  21889185.5394                   21889183.3324
 -12523428.01248  -9733397.21545  22050328.1414                   22050328.3404
  -5854897.71147  -4536400.52745  21871204.8284                   21871202.4184
 11  8 12 19 47  0.0000000  0  7G17G07G08G26G28G24G11
 -11726899.05147  -9090732.08646  21974087.6024                   21974087.4264
    -70438.73048    -37713.03946  20929663.4774                   20929661.6684
 -11746726.97348  -9128416.27046  20109922.0004                   20109920.6684
  -4668414.38347  -3570359.90644  22865851.3284   22865851.7814
  -7258300.78548  -5650538.60546  21875640.8754                   21875638.9694
 -12584647.30147  -9781100.52045  22038678.7344                   22038678.6484
  -5867129.90648  -4545932.12145  21868876.4304                   21868875.0944
 11  8 12 19 47 30.0000000  0  7G17G07G08G26G28G24G11
 -11840106.62948  -9178945.73046  21952545.0084                   21952544.2034
    -67035.46948    -35061.18446  20930311.1484                   20930309.4224
 -11803532.08648  -9172680.02046  20099111.9224                   20099110.9264
  -4731291.69147  -3619355.23444  22853886.7194   22853886.7274
  -7329517.60548  -5706032.21946  21862088.3364                   21862086.7974
 -12645397.22747  -9828438.10945  22027118.4224                   22027118.6334
  -5878876.74248  -4555085.52045  21866641.3524                   21866639.3134
 11  8 12 19 48  0.0000000  0  7G17G07G08G26G28G24G11
 -11953033.94147  -9266940.97746  21931055.6024                   21931055.3554
    -63229.82048    -32095.78546  20931035.2584                   20931033.7734
 -11859882.39848  -9216589.37546  20088389.1024                   20088388.1684
  -4793635.30147  -3667934.67644  22842022.8834   22842023.0434
  -7400774.41848  -5761556.98846  21848529.0164                   21848526.6024
 -12705677.25448  -9875409.53545  22015646.7034                   22015647.5354
  -5890140.02048  -4563862.12145  21864498.0864                   21864495.9184
 11  8 12 19 48 30.0000000  0  7G17G07G08G26G28G24G11
 -12065681.85547  -9354718.52346  21909620.0004                   21909619.3874
    -59024.41848    -28818.89546  20931835.8134                   20931834.4804
 -11915778.24248  -9260144.59846  20077752.2344                   20077750.9144
  -4855447.41847  -3716099.99244  22830260.0394   22830260.7734
  -7472073.32048  -5817114.56246  21834961.2734                   21834959.2154
 -12765488.15647  -9922015.41445  22004265.6884                   22004265.3954
  -5900922.81248  -4572264.30145  21862446.0004                   21862444.0434
 11  8 12 19 49  0.0000000  0  7G17G07G08G26G28G24G11
 -12178052.80547  -9442280.23846  21888235.8054                   21888235.5554
    -54423.01248    -25233.43046  20932710.9614                   20932710.1134
 -11971220.85248  -9303346.65246  20067202.3134                   20067200.7424
  -4916731.12547  -3763853.54344  22818598.3204   22818599.0594
  -7543417.30548  -5872707.25846  21821385.0084                   21821383.1334
 -12824831.75847  -9968257.16045  21992972.8134                   21992973.2154
  -5911229.00048  -4580295.11745  21860485.2814                   21860483.1024
 11  8 12 19 49 30.0000000  0  7G17G07G08G26G28G24G11
 -12290146.00047  -9529625.53546  21866905.0864                   21866904.4884
    -49425.79348    -21339.54346  20933661.9304                   20933661.0784
 -12026208.62548  -9346194.28546  20056738.3674                   20056736.9694
  -4977486.17647  -3811195.14844  22807037.0554   22807037.2584
  -7614805.84048  -5928334.68046  21807800.2194                   21807798.1884
 -12883706.69547 -10014133.69545  21981769.3204                   21981769.7504
  -5921059.48847  -4587955.24645  21858614.2344                   21858611.8594
 11  8 12 19 50  0.0000000  0  7G17G07G08G26G28G24G11
 -12401966.01647  -9616757.96546  21845626.6414                   21845626.1804
    -44038.57448    -17141.76246  20934687.0164                   20934685.6884
 -12080745.15248  -9388690.29746  20046360.3284                   20046359.1724
  -5037717.48847  -3858128.66444  22795575.8984   22795575.4844
  -7686244.18048  -5984000.91446  21794205.9064                   21794203.4304
 -12942117.17247 -10059648.34045  21970654.3834                   21970654.3674
  -5930420.32048  -4595249.42245  21856833.3834                   21856830.9454
 11  8 12 19 50 30.0000000  0  7G17G07G08G26G28G24G11
 -12513518.62147  -9703682.02746  21824399.0234                   21824398.2194
    -38268.86348    -12645.92246  20935785.2894                   20935783.9654
 -12134835.57848  -9430838.70346  20036067.1724                   20036066.2384
  -5097432.46947  -3904659.83644  22784212.1254   22784212.1374
  -7757739.27348  -6039711.35946  21780600.7734                   21780599.0864
 -13000068.66047 -10104805.31245  21959626.1804                   21959626.6914
  -5939319.48847  -4602183.85545  21855139.7974                   21855137.6054
 11  8 12 19 51  0.0000000  0  7G17G07G08G26G28G24G11
 -12624797.12947  -9790392.50446  21803223.0394                   21803222.4884
    -32110.83248     -7847.51246  20936956.9844                   20936955.9064
 -12188472.34848  -9472633.60946  20025860.6564                   20025859.5164
  -5156625.23047  -3950784.07044  22772948.3674   22772948.2934
  -7829284.85548  -6095461.15246  21766986.1954                   21766984.0004
 -13057554.03147 -10149599.08645  21948687.2114                   21948687.5744
  -5947752.18047  -4608754.80545  21853534.9844                   21853532.9534
 11  8 12 19 51 30.0000000  0  7G17G07G08G26G28G24G11
 -12735795.12947  -9876884.39846  21782100.6414                   21782100.1054
    -25559.98848     -2743.00846  20938204.0634                   20938202.6254
 -12241648.12548  -9514069.29346  20015741.4694                   20015740.3484
  -5215289.86347  -3996496.78144  22761784.9304   22761784.8954
  -7900874.91048  -6151245.60246  21753362.8674                   21753360.8834
 -13114566.37147 -10194024.24245  21937837.9454                   21937838.1684
  -5955713.77348  -4614958.65245  21852019.7504                   21852017.7424
 11  8 12 19 52  0.0000000  0  7G17G07G08G26G28G24G11
 -12846527.07847  -9963168.97746  21761029.6094                   21761028.6524
    -18632.27048      2655.16046  20939522.2974                   20939521.1294
 -12294376.82848  -9555156.60546  20005707.8204                   20005706.1804
  -5273442.27747  -4041810.35544  22750718.6414   22750718.8594
  -7972524.86748  -6207076.72346  21739728.7504                   21739726.5164
 -13171119.85947 -10238091.87545  21927076.7504                   21927076.2664
  -5963220.65248  -4620808.19145  21850591.1334                   21850589.1484
 11  8 12 19 52 30.0000000  0  7G17G07G08G26G28G24G11
 -12956997.93447 -10049250.11746  21740007.0944                   21740006.7384
    -11333.59048      8342.39546  20940911.1724                   20940909.6334
 -12346662.48848  -9595898.68446  19995758.1644                   19995756.8014
  -5331087.82847  -4086728.98444  22739748.9844   22739749.2934
  -8044240.23848  -6262958.82046  21726081.3524                   21726079.5944
 -13227219.07047 -10281805.52345  21916401.0004                   21916400.9574
  -5970279.71948  -4626308.77745  21849248.4454                   21849245.9844
 11  8 12 19 53  0.0000000  0  7G17G07G08G26G28G24G11
 -13067193.97747 -10135117.10946  21719037.8054                   21719036.9844
     -3651.85948     14328.09446  20942372.5234                   20942371.2704
 -12398490.61748  -9636284.25446  19985895.7734                   19985894.2774
  -5388214.21547  -4131243.06244  22728878.1564   22728878.5124
  -8116007.80948  -6318881.59446  21712424.6884                   21712422.8984
 -13282850.09447 -10325154.35545  21905814.6724                   21905815.1484
  -5976879.19948  -4631451.25045  21847992.2734                   21847990.4844
 11  8 12 19 53 30.0000000  0  7G17G07G08G26G28G24G11
 -13177131.49647 -10220782.65646  21698117.2734                   21698116.5044
      4395.85948     20598.98446  20943904.3204                   20943902.8324
 -12449876.17248  -9676324.94946  19976116.9304                   19976116.1644
  -5444837.88747  -4175365.42244  22718103.7814   22718103.4844
  -8187844.03548  -6374857.86746  21698754.4144                   21698752.5824
 -13338028.05547 -10368150.14145  21895314.6334                   21895314.6684
  -5983036.23848  -4636248.94945  21846820.6884                   21846818.4184
 11  8 12 19 54  0.0000000  0  7G17G07G08G26G28G24G11
 -13286804.13347 -10306241.79346  21677247.1254                   21677246.7154
     12814.13748     27158.63346  20945506.1724                   20945504.9924
 -12500812.38348  -9716015.51246  19966424.5784                   19966423.2624
  -5500953.75047  -4219092.07844  22707424.7894   22707424.8914
  -8259743.10248  -6430883.09846  21685072.7114                   21685070.8134
 -13392746.52747 -10410787.89545  21884902.5394                   21884902.0904
  -5988746.98048  -4640698.89845  21845734.0474                   21845731.7854
 11  8 12 19 54 30.0000000  0  7G17G07G08G26G28G24G11
 -13396210.44947 -10391493.41446  21656427.7814                   21656427.1294
     21603.03948     34007.07046  20947178.9454                   20947178.0044
 -12551297.21148  -9755354.34846  19956817.6414                   19956816.1454
  -5556561.50047  -4262422.80144  22696842.5084   22696843.2384
  -8331703.93448  -6486956.45346  21671378.9924                   21671376.7114
 -13447003.96547 -10453066.38745  21874577.0004                   21874577.6174
  -5994011.99248  -4644801.51245  21844731.8754                   21844730.0084
 11  8 12 19 55  0.0000000  0  7G17G07G08G26G28G24G11
 -13505332.95747 -10476523.88746  21635662.4304                   21635661.8794
     30778.75047     41156.91446  20948924.8444                   20948923.7664
 -12601312.05948  -9794326.96546  19947300.2894                   19947298.7074
  -5611644.31647  -4305344.47744  22686361.0864   22686361.5634
  -8403709.47748  -6543064.65646  21657676.4924                   21657674.6174
 -13500782.41447 -10494971.65245  21864343.1884                   21864343.3404
  -5998815.63748  -4648544.63745  21843817.6094                   21843815.6134
 11  8 12 19 55 30.0000000  0  7G17G07G08G26G28G24G11
 -13614169.59047 -10561331.60246  21614951.3204                   21614950.6954
     40341.52348     48608.37546  20950744.7504                   20950743.6054
 -12650854.73048  -9832931.65646  19937872.1564                   19937870.6524
  -5666201.73847  -4347856.75844  22675979.0474   22675979.1604
  -8475758.74648  -6599206.92246  21643966.2034                   21643964.2774
 -13554080.09847 -10536502.29745  21854201.3204                   21854201.4344
  -6003157.77048  -4651928.12545  21842991.7194                   21842989.9144
 11  8 12 19 56  0.0000000  0  7G17G07G08G26G28G24G11
 -13722725.44948 -10645920.54346  21594293.7344                   21594292.8594
     50285.08248     56356.55146  20952637.0784                   20952635.9614
 -12699929.06648  -9871171.41046  19928533.5084                   19928532.4454
  -5720239.27347  -4389963.93744  22665695.9224   22665696.1024
  -8547856.91048  -6655387.30146  21630246.2034                   21630244.1214
 -13606901.23047 -10577661.60945  21844150.0704                   21844150.0124
  -6007045.30948  -4654957.39845  21842251.8674                   21842250.0434
 11  8 12 19 56 30.0000000  0  7G17G07G08G26G28G24G11
 -13830995.62947 -10730286.85946  21573690.6724                   21573690.2664
     60613.50447     64404.61346  20954602.4614                   20954601.3324
 -12748528.90248  -9909041.41846  19919285.7194                   19919284.2304
  -5773753.10547  -4431663.04744  22655512.3594   22655512.8284
  -8619998.96948  -6711601.85946  21616518.1414                   21616515.9344
 -13659240.18747 -10618445.18445  21834190.0864                   21834190.3714
  -6010475.01248  -4657629.90245  21841599.4694                   21841597.2584
 11  8 12 19 57  0.0000000  0  7G17G07G08G26G28G24G11
 -13938968.44947 -10814421.47346  21553144.0004                   21553143.8834
     71336.67248     72760.28546  20956643.1174                   20956641.7544
 -12796642.47348  -9946532.52346  19910129.6884                   19910128.2464
  -5826732.48847  -4472945.69144  22645430.6884   22645431.1724
  -8692173.77748  -6767841.95746  21602783.9614                   21602781.6414
 -13711085.38747 -10658844.02745  21824324.1804                   21824324.3754
  -6013437.29747  -4659938.19145  21841035.3444                   21841033.6454
 11  8 12 19 57 30.0000000  0  7G17G07G08G26G28G24G11
 -14046656.06647 -10898333.84846  21532652.0554                   21532650.9024
     82440.73047     81412.73846  20958756.1884                   20958755.0434
 -12844281.34848  -9983653.73446  19901064.4614                   19901063.1844
  -5879191.09047  -4513822.52744  22635448.0004   22635448.7074
  -8764394.25448  -6824117.62146  21589040.7034                   21589038.5784
 -13762448.88347 -10698867.51645  21814549.7894                   21814550.0234
  -6015946.32848  -4661893.29745  21840558.0084                   21840555.8484
 11  8 12 19 58  0.0000000  0  7G17G07G08G26G28G24G11
 -14154054.79747 -10982021.12146  21512214.3204                   21512213.7274
     93928.21548     90363.97746  20960942.1174                   20960940.9574
 -12891440.55548 -10020401.18046  19892090.2504                   19892089.4344
  -5931125.80147  -4554291.16044  22625565.5004   22625566.0634
  -8836656.78948  -6880426.07446  21575289.5784                   21575287.0474
 -13813326.70347 -10738512.57445  21804868.2814                   21804868.4844
  -6018000.30948  -4663493.80545  21840167.1644                   21840165.3204
 11  8 12 19 58 30.0000000  0  7G17G07G08G26G28G24G11
 -14261148.71948 -11065470.87946  21491835.1484                   21491834.4144
    105813.49248     99625.18046  20963203.8134                   20963202.6214
 -12938103.55148 -10056761.96146  19883210.9224                   19883208.9884
  -5982522.09447  -4594340.22744  22615785.0004   22615786.0824
  -8908945.98848  -6936755.30146  21561533.3594                   21561531.2154
 -13863702.60947 -10777766.50045  21795281.7274                   21795282.2344
  -6019585.27748  -4664728.86345  21839865.9694                   21839864.0354
 11  8 12 19 59  0.0000000  0  7G17G07G08G26G28G24G11
 -14367941.99647 -11148686.36746  21471513.0634                   21471512.1954
    118091.10547    109192.10246  20965540.0314                   20965539.1254
 -12984274.03948 -10092738.97746  19874424.7974                   19874423.5004
  -6033384.98047  -4633973.65644  22606106.0864   22606106.3634
  -8981265.92648  -6993108.47346  21547771.1644                   21547769.0164
 -13913580.47747 -10816632.36345  21785790.7894                   21785790.6414
  -6020707.10548  -4665603.02745  21839652.2194                   21839650.9614
 11  8 12 19 59 30.0000000  0  7G17G07G08G26G28G24G11
 -14474445.90247 -11231676.37146  21451246.1724                   21451245.2344
    130748.34847    119054.83646  20967948.7664                   20967947.8094
 -13029962.44148 -10128340.33646  19865730.4924                   19865729.1954
  -6083726.87146  -4673201.11744  22596526.1094   22596526.9104
  -9053627.76648  -7049494.30946  21534001.5004                   21533999.2664
 -13962971.23447 -10855118.66845  21776392.0164                   21776392.1994
  -6021378.99648  -4666126.57845  21839524.5314                   21839522.6524
 11  8 12 20  0  0.0000000  0  7G17G07G08G26G28G24G11
 -13005218.85947 -10086824.06646  21730830.4694                   21730829.3554
   1719221.44147   1356826.03946  21270225.4144                   21270224.4774
 -11499728.59448  -8935950.33646  20156924.6024                   20156923.1724
  -4558109.30547  -3484408.22344  22886842.1564   22886842.3014
  -7550591.86348  -5878297.49246  21820019.5864                   21820017.1844
 -12436435.07447  -9665609.96145  22066882.1804                   22066882.0824
  -4446164.97348  -3438687.07445  22139277.7584                   22139276.1524
 11  8 12 20  0 30.0000000  0  7G17G07G08G26G28G24G11
 -13111105.21547 -10169332.86746  21710681.1414                   21710680.1844
   1732672.41848   1367307.26246  21272784.9454                   21272784.0274
 -11544412.32848  -8970768.83646  20148421.2034                   20148419.9384
  -4607374.07047  -3522796.37144  22877467.3594   22877467.2464
  -7623000.65247  -5934719.90246  21806240.1484                   21806238.7464
 -12484812.27347  -9703306.47745  22057676.5554                   22057676.0084
  -4445904.29747  -3438483.97345  22139326.9924                   22139325.5044
 11  8 12 20  1  0.0000000  0  7G17G07G08G26G28G24G11
 -13216685.03547 -10251602.80546  21690590.0084                   21690589.0984
   1746515.77747   1378094.24646  21275419.3984                   21275418.1644
 -11588594.75048  -9005196.71546  20140013.5704                   20140012.3634
  -4656103.91047  -3560767.68444  22868193.9064   22868194.3954
  -7695434.82048  -5991162.10246  21792456.7344                   21792454.9924
 -12532684.57447  -9740609.56245  22048566.2424                   22048566.5554
  -4445182.52748  -3437921.55545  22139464.4304                   22139462.9414
 11  8 12 20  1 30.0000000  0  7G17G07G08G26G28G24G11
 -13321942.87547 -10333621.84846  21670559.8594                   21670559.2034
   1760765.49247   1389197.86346  21278131.0474                   21278130.1334
 -11632260.00048  -9039221.60246  20131704.5234                   20131703.0274
  -4704284.92247  -3598311.32844  22859025.1334   22859025.5784
  -7767879.35547  -6047612.37946  21778670.5944                   21778668.8834
 -12580036.56647  -9777507.22745  22039555.4144                   22039555.7774
  -4443986.48848  -3436989.57845  22139692.1564                   22139690.4414
 11  8 12 20  2  0.0000000  0  7G17G07G08G26G28G24G11
 -13426885.28547 -10415395.10946  21650589.9224                   21650589.0984
   1775413.59847   1400611.91446  21280918.6024                   21280917.5554
 -11675413.61348  -9072847.80546  20123492.7114                   20123491.2704
  -4751924.39147  -3635433.00844  22849960.0084   22849960.2274
  -7840341.06648  -6104076.03146  21764882.1484                   21764879.9884
 -12626874.48447  -9814004.30545  22030642.7194                   22030642.8954
  -4442323.90647  -3435694.05545  22140008.5634                   22140007.0944
 11  8 12 20  2 30.0000000  0  7G17G07G08G26G28G24G11
 -13531515.87947 -10496925.39546  21630679.4144                   21630678.2234
   1790455.18847   1412332.58246  21283780.8524                   21283779.5904
 -11718058.44948  -9106077.55546  20115377.6024                   20115376.1914
  -4799027.36347  -3672136.63744  22840996.7114   22840997.2464
  -7912823.49648  -6160555.84046  21751088.9774                   21751087.1174
 -12673201.96547  -9850103.64145  22021826.8054                   22021827.1254
  -4440200.76648  -3434039.67245  22140412.8524                   22140410.7664
 11  8 12 20  3  0.0000000  0  7G17G07G08G26G28G24G11
 -13635824.34047 -10578204.67646  21610830.2664                   21610829.2194
   1805898.78547   1424366.49246  21286719.8524                   21286718.4064
 -11760184.43448  -9138903.00846  20107361.0784                   20107360.0634
  -4845585.11747  -3708415.41444  22832137.2814   22832137.4734
  -7985317.12147  -6217044.37546  21737294.0474                   21737292.0744
 -12719008.93047  -9885797.38345  22013109.9454                   22013110.0124
  -4437609.24648  -3432020.30545  22140905.7814                   22140904.0784
 11  8 12 20  3 30.0000000  0  7G17G07G08G26G28G24G11
 -13739809.75047 -10659232.23046  21591042.1174                   21591041.2704
   1821744.06648   1436713.41046  21289734.7274                   21289733.7504
 -11801789.28148  -9171322.38746  20099444.0394                   20099442.7274
  -4891597.38747  -3744269.13744  22823380.8524   22823381.5904
  -8057820.13348  -6273540.21546  21723497.2664                   21723494.9844
 -12764293.64147  -9921084.16445  22004492.5314                   22004492.5274
  -4434549.83648  -3429636.34445  22141487.7894                   22141486.0594
 11  8 12 20  4  0.0000000  0  7G17G07G08G26G28G24G11
 -13843450.54747 -10739991.25846  21571320.1094                   21571319.2894
   1838011.22748   1449389.06646  21292830.4534                   21292829.4964
 -11842850.41848  -9203318.09446  20091630.2034                   20091628.8794
  -4937043.73047  -3779681.88744  22814732.7034   22814733.4414
  -8130311.04348  -6330026.62146  21709702.3594                   21709700.4844
 -12809034.39547  -9955947.10245  21995978.6484                   21995978.6374
  -4431002.84448  -3426872.45745  22142163.0394                   22142161.3634
 11  8 12 20  4 30.0000000  0  7G17G07G08G26G28G24G11
 -13946745.30548 -10820480.64146  21551663.2664                   21551662.6804
   1854700.15248   1462393.37146  21296006.4844                   21296005.2814
 -11883366.32048  -9234888.94146  20083920.7734                   20083919.3284
  -4981924.39147  -3814653.85544  22806192.8284   22806192.9264
  -8202788.90247  -6386502.85546  21695910.5634                   21695907.8674
 -12853229.85947  -9990385.13745  21987568.7194                   21987568.8244
  -4426969.18748  -3423729.35945  22142930.5634                   22142928.8444
 11  8 12 20  5  0.0000000  0  7G17G07G08G26G28G24G11
 -14049686.81648 -10900694.76646  21532074.5164                   21532073.6994
   1871816.72348   1475730.89546  21299263.7034                   21299262.9304
 -11923328.99648  -9266028.70346  20076316.1094                   20076314.5044
  -5026233.07446  -3849180.12544  22797761.1804   22797761.3054
  -8275245.96548  -6442962.89546  21682122.3134                   21682120.5984
 -12896872.42248 -10024392.33245  21979264.3594                   21979263.8794
  -4422443.34447  -3420202.72345  22143792.0314                   22143789.9804
 11  8 12 20  5 30.0000000  0  7G17G07G08G26G28G24G11
 -14152267.91848 -10980628.05546  21512554.2114                   21512552.9614
   1889366.50448   1489406.00046  21302603.3524                   21302602.3484
 -11962731.07048  -9296731.62946  20068817.8674                   20068816.8164
  -5069963.79347  -3883256.01244  22789439.0394   22789439.5554
  -8347675.42648  -6499401.41046  21668338.8204                   21668337.5164
 -12939955.05947 -10057963.22345  21971065.6884                   21971065.5084
  -4417420.13347  -3416288.54345  22144747.6644                   22144745.6764
 11  8 12 20  6  0.0000000  0  7G17G07G08G26G28G24G11
 -14254476.33248 -11060270.93746  21493104.2034                   21493103.6484
   1907360.32848   1503427.10546  21306027.4304                   21306026.2664
 -12001559.46948  -9326987.53946  20061429.1094                   20061428.1884
  -5113106.11747  -3916873.43044  22781229.7734   22781230.2154
  -8420064.92648  -6555808.78546  21654563.8984                   21654562.0594
 -12982465.50447 -10091088.24245  21962975.8054                   21962975.8754
  -4411889.19547  -3411978.71945  22145799.9384                   22145798.0984
 11  8 12 20  6 30.0000000  0  7G17G07G08G26G28G24G11
 -14356307.64548 -11139619.96946  21473726.3594                   21473725.6564
   1925800.70348   1517796.17646  21309536.9064                   21309535.7464
 -12039809.52748  -9356792.79746  20054150.4064                   20054149.1134
  -5155656.75047  -3950029.77344  22773132.4064   22773132.9064
  -8492409.92248  -6612181.48846  21640797.5234                   21640795.2774
 -13024399.59048 -10123764.14545  21954996.4304                   21954996.5084
  -4405848.84847  -3407271.96145  22146949.4224                   22146947.3484
 11  8 12 20  7  0.0000000  0  7G17G07G08G26G28G24G11
 -14457774.31248 -11218684.85246  21454417.9844                   21454417.0204
   1944674.24248   1532502.78546  21313127.8524                   21313126.9734
 -12077492.56648  -9386156.21146  20046979.6484                   20046978.5944
  -5197628.90647  -3982735.36344  22765145.3834   22765145.8054
  -8564722.19548  -6668528.69546  21627036.7894                   21627034.5634
 -13065769.35547 -10156000.31245  21947123.7974                   21947124.1564
  -4399312.87947  -3402179.02045  22148193.2344                   22148191.5904
 11  8 12 20  7 30.0000000  0  7G17G07G08G26G28G24G11
 -14558860.81248 -11297453.51646  21435181.9144                   21435180.7304
   1963994.80947   1547557.71946  21316804.8834                   21316803.7704
 -12114592.67248  -9415065.39546  20039919.7664                   20039918.7974
  -5239008.79747  -4014979.45744  22757271.1024   22757271.5944
  -8636986.80148  -6724838.74646  21613285.0164                   21613282.7074
 -13106558.98048 -10187784.43445  21939361.9774                   21939362.1374
  -4392267.87547  -3396689.40645  22149534.6644                   22149532.0944
 11  8 12 20  8  0.0000000  0  7G17G07G08G26G28G24G11
 -14659571.46147 -11375929.29346  21416017.2814                   21416016.3134
   1983756.44147   1562956.34446  21320565.0314                   21320564.2814
 -12151113.93048  -9443523.53146  20032970.1254                   20032968.4144
  -5279802.09847  -4046766.44144  22749508.2424   22749509.3134
  -8709208.06247  -6781115.02746  21599541.8984                   21599539.8324
 -13146773.17247 -10219120.14145  21931709.1254                   21931709.5784
  -4384720.57447  -3390808.37545  22150969.6884                   22150968.5944
 11  8 12 20  8 30.0000000  0  7G17G07G08G26G28G24G11
 -14759885.21148 -11454095.80546  21396928.0864                   21396927.1684
   2003978.61748   1578713.83246  21324413.4614                   21324413.0864
 -12187034.48448  -9471513.58246  20026134.4454                   20026133.2934
  -5319989.39147  -4078081.22744  22741861.1174   22741861.3524
  -8781364.41847  -6837340.73846  21585811.0394                   21585808.9264
 -13186391.06247 -10249991.19945  21924169.9064                   21924170.1684
  -4376651.53147  -3384520.82445  22152505.0944                   22152503.7624
 11  8 12 20  9  0.0000000  0  7G17G07G08G26G28G24G11
 -14859804.20748 -11531954.69946  21377913.8674                   21377912.7504
   2024658.07848   1594827.65646  21328348.6644                   21328347.5984
 -12222355.94548  -9499036.81246  20019413.1804                   20019411.8244
  -5359573.28547  -4108925.84844  22734328.3914   22734328.6684
  -8853457.42248  -6893517.07446  21572091.6884                   21572090.1564
 -13225414.27747 -10280398.87945  21916744.7734                   21916744.4574
  -4368064.76647  -3377829.83645  22154139.4534                   22154137.3364
 11  8 12 20  9 30.0000000  0  7G17G07G08G26G28G24G11
 -14959319.88348 -11609499.33246  21358976.7194                   21358975.8204
   2045801.88348   1611303.30146  21332372.2974                   21332371.0904
 -12257069.73848  -9526086.52746  20012807.1884                   20012805.9534
  -5398547.18047  -4139295.12944  22726912.1334   22726912.4344
  -8925478.86348  -6949637.66046  21558386.9924                   21558384.8594
 -13263834.59847 -10310336.75445  21909432.9694                   21909433.5394
  -4358954.00447  -3370730.55145  22155873.1334                   22155871.3874
 11  8 12 20 10  0.0000000  0  7G17G07G08G26G28G24G11
 -15058447.23048 -11686741.36346  21340113.5554                   21340112.6644
   2067393.52048   1628127.90646  21336481.0554                   21336479.9774
 -12291189.79748  -9552673.60546  20006314.3914                   20006313.1484
  -5436927.26247  -4169201.68744  22719608.1094   22719608.8524
  -8997443.11348  -7005713.67246  21544692.3754                   21544690.4264
 -13301666.91447 -10339816.45745  21902233.9144                   21902233.5784
  -4349336.09847  -3363236.06644  22157703.6954                   22157701.7974
 11  8 12 20 10 30.0000000  0  7G17G07G08G26G28G24G11
 -15157170.84448 -11763668.79746  21321326.7664                   21321325.9344
   2089446.64548   1645312.13746  21340677.5314                   21340676.5784
 -12324700.32048  -9578785.71146  19999937.5474                   19999936.1524
  -5474699.58647  -4198634.68044  22712420.7194   22712421.3754
  -9069334.42648  -7061732.85546  21531012.1724                   21531009.9024
 -13338895.73447 -10368825.89145  21895149.3524                   21895149.2544
  -4339197.81647  -3355336.11345  22159632.8674                   22159630.8134
 11  8 12 20 11  0.0000000  0  7G17G07G08G26G28G24G11
 -15255485.80548 -11840277.80946  21302617.8914                   21302617.1724
   2111964.52348   1662858.50446  21344962.4924                   21344961.7074
 -12357596.00448  -9604418.71946  19993677.8594                   19993676.1564
  -5511860.84847  -4227591.52344  22705348.8834   22705349.8364
  -9141147.95348  -7117691.42646  21517346.1884                   21517344.3244
 -13375516.46547 -10397361.48845  21888180.7894                   21888180.5554
  -4328536.29347  -3347028.42644  22161661.7424                   22161659.3914
 11  8 12 20 11 30.0000000  0  7G17G07G08G26G28G24G11
 -15353395.58248 -11916571.09046  21283986.3364                   21283985.8484
   2134942.30948   1680763.24646  21349335.0864                   21349334.6374
 -12389880.06648  -9629575.13746  19987534.2664                   19987532.8164
  -5548415.80147  -4256075.89844  22698392.8594   22698394.1214
  -9212886.94948  -7173591.89846  21503694.8984                   21503692.8164
 -13411532.44547 -10425425.85245  21881327.2424                   21881327.1134
  -4317357.00047  -3338317.28144  22163788.9774                   22163786.9614
 11  8 12 20 12  0.0000000  0  7G17G07G08G26G28G24G11
 -15450892.63748 -11992542.77046  21265433.5704                   21265432.5634
   2158386.13348   1699031.12546  21353796.4144                   21353795.7734
 -12421544.12548  -9654248.43746  19981508.9614                   19981507.6294
  -5584358.23047  -4284083.01244  22691553.2274   22691554.0594
  -9284543.05148  -7229427.80146  21490059.0394                   21490056.7154
 -13446936.35947 -10453013.27745  21874589.8134                   21874589.6214
  -4305654.46547  -3329198.43045  22166016.0634                   22166014.3754
 11  8 12 20 12 30.0000000  0  7G17G07G08G26G28G24G11
 -15547972.58248 -12068189.42646  21246959.6644                   21246958.5474
   2182298.71548   1717664.26246  21358347.0394                   21358346.0274
 -12452583.82048  -9678435.22746  19975602.1254                   19975601.6564
  -5619685.29747  -4311610.61744  22684830.9844   22684831.8164
  -9356111.60948  -7285195.46946  21476439.8834                   21476437.9344
 -13481723.93447 -10480120.43745  21867969.6174                   21867969.7034
  -4293426.17247  -3319669.90244  22168342.5784                   22168340.8444
 11  8 12 20 13  0.0000000  0  7G17G07G08G26G28G24G11
 -15644643.60248 -12143517.44546  21228564.0314                   21228562.7384
   2206670.53948   1736655.25046  21362984.7974                   21362983.9654
 -12483006.66448  -9702141.35246  19969812.9064                   19969812.0044
  -5654406.52047  -4338666.14544  22678223.5394   22678224.5824
  -9427600.64148  -7340901.18046  21462836.0084                   21462834.0984
 -13515903.35547 -10506753.71945  21861465.7344                   21861465.7854
  -4280682.59047  -3309739.85944  22170767.9384                   22170766.1134
 11  8 12 20 13 30.0000000  0  7G17G07G08G26G28G24G11
 -15740895.83648 -12218519.15246  21210247.5084                   21210246.5634
   2231510.05148   1756010.65646  21367711.3444                   21367710.6604
 -12512802.09848  -9725358.59046  19964142.5394                   19964141.8984
  -5688513.41447  -4365242.95744  22671733.8914   22671734.0634
  -9498999.86348  -7396536.91846  21449249.1564                   21449246.6684
 -13549464.66447 -10532905.35545  21855079.5004                   21855079.4144
  -4267415.43447  -3299401.83645  22173292.9844                   22173291.0634
 11  8 12 20 14  0.0000000  0  7G17G07G08G26G28G24G11
 -15836740.72748 -12293203.44146  21192008.7814                   21192007.4534
   2256804.03948   1775720.21546  21372525.0634                   21372524.1684
 -12541981.28148  -9748095.63746  19958590.1484                   19958589.1724
  -5722019.16447  -4391351.36344  22665357.3054   22665358.3054
  -9570320.11748  -7452111.10946  21435677.6094                   21435675.3524
 -13582419.91047 -10558584.74245  21848807.9924                   21848808.1334
  -4253638.54747  -3288666.62144  22175914.2814                   22175912.2854
 11  8 12 20 14 30.0000000  0  7G17G07G08G26G28G24G11
 -15932167.52748 -12367561.95346  21173849.6954                   21173848.5984
   2282561.65248   1795791.03146  21377426.4774                   21377425.9534
 -12570533.61348  -9770344.22746  19953157.0314                   19953155.5634
  -5754914.44547  -4416984.08644  22659097.6644   22659098.3754
  -9641550.31648  -7507615.13346  21422122.4454                   21422120.7034
 -13614758.48847 -10583783.61345  21842654.5394                   21842653.8054
  -4239343.41847  -3277527.57844  22178634.8204                   22178632.7734
 11  8 12 20 15  0.0000000  0  7G17G07G08G26G28G24G11
 -16027176.71548 -12441595.04346  21155769.9844                   21155768.6994
   2308781.27748   1816221.85946  21382415.8134                   21382415.6054
 -12598458.46548  -9792103.87546  19947843.4144                   19947841.9804
  -5787200.98447  -4442142.44144  22652953.7274   22652954.5234
  -9712689.98848  -7563048.61346  21408585.4064                   21408582.9454
 -13646480.61747 -10608502.12145  21836617.5314                   21836617.5744
  -4224532.25447  -3265986.42644  22181453.1174                   22181451.1054
 11  8 12 20 15 30.0000000  0  7G17G07G08G26G28G24G11
 -14546336.96148 -11287693.89546  21437564.2584                   21437563.1294
   3910888.39147   3064616.96146  21687286.8984                   21687286.3284
 -11050327.02048  -8585767.71146  20242443.0314                   20242441.8754
  -4243451.21947  -3239220.57844  22946719.5004   22946720.4614
  -8208308.56648  -6390803.33246  21694859.5944                   21694857.6684
 -12102157.39847  -9405133.36345  22130492.7814                   22130492.1684
  -2633779.36347  -2026438.73445  22484163.2664                   22484161.1054
 11  8 12 20 16  0.0000000  0  7G17G07G08G26G28G24G11
 -14640498.03148 -11361066.12146  21419646.2344                   21419644.8984
   3938039.81348   3085773.85946  21692453.1884                   21692452.8554
 -11076983.95348  -8606539.36346  20237370.3524                   20237368.9344
  -4274512.44147  -3263424.16445  22940809.1094   22940809.7234
  -8279253.59048  -6446085.13346  21681359.1884                   21681357.0434
 -12132634.57847  -9428881.78145  22124692.8834                   22124692.7584
  -2617929.20347  -2014087.99245  22487179.2664                   22487177.8134
 11  8 12 20 16 30.0000000  0  7G17G07G08G26G28G24G11
 -14734232.82448 -11434106.18746  21401809.1024                   21401807.8164
   3965656.98048   3107293.67246  21697708.9614                   21697708.2934
 -11103003.94948  -8626814.70746  20232418.7034                   20232417.4804
  -4304961.02347  -3287150.35944  22935014.3594   22935015.7624
  -8350098.44548  -6501288.90246  21667877.7424                   21667875.5634
 -12162487.52047  -9452143.79345  22119012.3754                   22119011.9494
  -2601560.60947  -2001333.26245  22490294.4844                   22490292.3324
 11  8 12 20 17  0.0000000  0  7G17G07G08G26G28G24G11
 -14827550.56648 -11506821.27746  21384051.1564                   21384050.0944
   3993729.07048   3129167.98046  21703051.1484                   21703050.1994
 -11128395.85548  -8646600.62946  20227586.8594                   20227585.6764
  -4334807.71947  -3310407.57844  22929335.6334   22929335.6024
  -8420851.50048  -6556421.12546  21654413.9064                   21654411.7504
 -12191725.54747  -9474926.64145  22113448.3834                   22113448.3054
  -2584684.79347  -1988183.29744  22493505.6724                   22493503.9574
 11  8 12 20 17 30.0000000  0  7G17G07G08G26G28G24G11
 -14920445.38748 -11579206.83246  21366374.0634                   21366372.5274
   4022260.93047   3151400.54346  21708480.1564                   21708479.8874
 -11153153.66848  -8665892.44946  20222875.6024                   20222874.5434
  -4364048.18047  -3333192.37944  22923770.9694   22923772.0084
  -8491506.25848  -6611476.75446  21640968.6724                   21640966.5234
 -12220342.75047  -9497225.74245  22108002.5164                   22108002.2584
  -2567297.71547  -1974634.93744  22496814.4144                   22496812.4454
 11  8 12 20 18  0.0000000  0  7G17G07G08G26G28G24G11
 -15012913.97348 -11651260.24246  21348777.8054                   21348776.1644
   4051254.10947   3173992.57446  21713997.9384                   21713997.1054
 -11177273.31248  -8684687.00046  20218285.9454                   20218284.5824
  -4392680.42647  -3355503.25844  22918322.5234   22918323.5084
  -8562058.70748  -6666452.67246  21627542.9844                   21627540.7544
 -12248336.06647  -9519038.68745  22102675.8204                   22102675.5594
  -2549398.04347  -1960687.16845  22500220.5314                   22500218.8594
 11  8 12 20 18 30.0000000  0  7G17G07G08G26G28G24G11
 -15104958.15248 -11722982.94546  21331262.7424                   21331261.0704
   4080705.12947   3196941.36746  21719602.0234                   21719601.2194
 -11200757.08648  -8702986.05546  20213817.0944                   20213815.8914
  -4420708.11747  -3377343.05944  22912989.1564   22912989.8714
  -8632510.41448  -6721350.07846  21614136.5554                   21614134.3094
 -12275707.68047  -9540367.18045  22097466.8364                   22097467.0004
  -2530989.90247  -1946343.18045  22503723.5314                   22503721.6414
 11  8 12 20 19  0.0000000  0  7G17G07G08G26G28G24G11
 -15196577.44948 -11794374.57446  21313827.1564                   21313826.1174
   4110612.89147   3220246.05946  21725293.1884                   21725292.6414
 -11223604.01648  -8720788.87146  20209469.2274                   20209468.1094
  -4448132.48447  -3398712.73044  22907770.6484   22907770.9614
  -8702860.23448  -6776168.10546  21600749.0944                   21600746.7424
 -12302457.46147  -9561211.15245  22092376.4064                   22092376.7544
  -2512074.91847  -1931604.25445  22507322.8754                   22507321.2384
 11  8 12 20 19 30.0000000  0  7G17G07G08G26G28G24G11
 -15287776.94548 -11865439.07446  21296472.8524                   21296471.1374
   4140970.56348   3243901.33646  21731070.4384                   21731069.6094
 -11245818.91848  -8738099.19546  20205242.2664                   20205240.5594
  -4474960.18747  -3419617.46544  22902665.0944   22902665.9804
  -8773112.32048  -6830909.96546  21587380.5314                   21587378.6134
 -12328590.94547  -9581574.87945  22087403.3754                   22087403.6764
  -2492660.26647  -1916475.95345  22511017.7504                   22511015.7854
 11  8 12 20 20  0.0000000  0  7G17G07G08G26G28G24G11
 -15378565.20348 -11936183.13746  21279196.4384                   21279195.4574
   4171768.40248   3267899.60246  21736931.0864                   21736929.9344
 -11267409.72748  -8754923.21946  20201133.4144                   20201132.2424
  -4501201.25847  -3440065.07044  22897671.9064   22897672.2074
  -8843274.50048  -6885581.75846  21574029.3204                   21574026.5124
 -12354116.68747  -9601465.03945  22082546.1564                   22082546.2304
  -2472756.14147  -1900966.27344  22514805.2114                   22514803.7814
 11  8 12 20 20 30.0000000  0  7G17G07G08G26G28G24G11
 -15468922.45748 -12006591.33246  21262002.2114                   21262000.5394
   4203024.61748   3292255.03146  21742878.7034                   21742878.2584
 -11288356.79348  -8771245.62146  20197147.4774                   20197146.1524
  -4526837.48847  -3460041.38344  22892793.0314   22892794.3054
  -8913326.38748  -6940167.62146  21560699.1094                   21560696.8984
 -12379015.24247  -9620866.50045  22077808.4144                   22077808.1094
  -2452345.13347  -1885061.60544  22518689.3984                   22518687.2974
 11  8 12 20 21  0.0000000  0  7G17G07G08G26G28G24G11
 -15558862.60548 -12076674.52346  21244886.9304                   21244885.4064
   4234723.51648   3316955.42246  21748911.1024                   21748910.4304
 -11308673.51248  -8787076.84046  20193281.1024                   20193279.9104
  -4551884.52347  -3479558.59444  22888027.0634   22888027.3014
  -8983281.15648  -6994677.81246  21547386.7274                   21547384.7854
 -12403300.90647  -9639790.37945  22073186.9924                   22073186.6644
  -2431443.35547  -1868774.52044  22522666.3984                   22522665.0864
 11  8 12 20 21 30.0000000  0  7G17G07G08G26G28G24G11
 -15648384.53148 -12146431.81646  21227851.5634                   21227849.8554
   4266864.59048   3342000.35946  21755027.3054                   21755026.7624
 -11328359.00048  -8802416.19546  20189535.3204                   20189534.2384
  -4576342.98047  -3498617.15644  22883373.0004   22883373.4224
  -9053137.02048  -7049110.93446  21534093.6724                   21534091.4064
 -12426972.76247  -9658235.96545  22068682.3834                   22068682.4414
  -2410051.01647  -1852105.18044  22526737.6024                   22526735.9184
 11  8 12 20 22  0.0000000  0  8G17G07G08G26G04G28G24G11
 -15737505.69148 -12215876.82846  21210892.2584                   21210891.0904
   4299429.69148   3367375.70746  21761224.4224                   21761223.7814
 -11347430.25848  -8817276.92646  20185906.3674                   20185904.7384
  -4600231.37147  -3517231.53144  22878827.0554   22878827.6914
  12413957.28957   9711249.74253  24602475.5314                   24602482.8874
  -9122910.16048  -7103479.59846  21520816.2424                   21520813.8874
 -12450048.38747  -9676216.95745  22064290.9224                   22064291.0864
  -2388187.94147  -1835069.04344  22530898.1024                   22530896.2584
 11  8 12 20 22 30.0000000  0  8G17G07G08G26G04G28G24G11
 -15826212.67248 -12284999.10246  21194011.9534                   21194010.3204
   4332429.57448   3393089.83646  21767503.9694                   21767503.3484
 -11365873.66448  -8831648.43046  20182396.3444                   20182395.3054
  -4623538.67647  -3535393.10544  22874391.8524   22874392.4534
  12251226.56346   9584446.93043  24571509.9614                   24571516.0664
  -9192586.62148  -7157772.92646  21507557.3594                   21507555.1414
 -12472514.93047  -9693723.33645  22060015.6024                   22060015.7074
  -2365843.05547  -1817657.44544  22535150.1724                   22535148.3364
 11  8 12 20 23  0.0000000  0  8G17G07G08G26G04G28G24G11
 -15914514.15248 -12353805.41046  21177208.6884                   21177207.1374
   4365854.57448   3419135.23445  21773864.5394                   21773863.8714
 -11383697.69148  -8845537.29746  20179004.6174                   20179003.7424
  -4646274.77747  -3553109.59044  22870065.5394   22870066.2854
  12088471.07846   9457624.77343  24540537.3444                   24540544.4494
  -9262174.55148  -7211997.26646  21494315.4844                   21494313.0314
 -12494381.56247  -9710762.24645  22055854.7274                   22055854.1914
  -2343027.06647  -1799878.77044  22539492.2814                   22539489.8754
 11  8 12 20 23 30.0000000  0  8G17G07G08G26G04G28G24G11
 -16002413.48848 -12422298.34446  21160482.1094                   21160480.5554
   4399699.51648   3445507.86345  21780305.4774                   21780304.9884
 -11400905.91048  -8858946.30946  20175730.1024                   20175728.6844
  -4668445.13347  -3570385.22745  22865846.6174   22865847.4804
  11925690.28546   9330782.89543  24509561.3914                   24509568.3284
  -9331676.17248  -7266154.35246  21481089.6644                   21481087.3914
 -12515652.02347  -9727336.62145  22051806.5474                   22051806.8244
  -2319745.19947  -1781737.05544  22543922.5314                   22543920.5744
 11  8 12 20 24  0.0000000  0  8G17G07G08G26G04G28G24G11
 -16089927.51648 -12490491.05946  21143828.2194                   21143826.8554
   4433946.08247   3472193.43445  21786821.9614                   21786821.4844
 -11417514.88348  -8871888.39146  20172569.7274                   20172568.5824
  -4690068.16847  -3587234.39844  22861732.2114   22861732.9534
  11762870.12546   9203910.35242  24478576.8834                   24478583.9964
  -9401107.49648  -7320256.65646  21467877.2894                   21467875.3674
 -12536343.53147  -9743459.86745  22047869.5784                   22047869.5434
  -2296016.37147  -1763247.07044  22548437.6804                   22548436.1094
 11  8 12 20 24 30.0000000  0  8G17G07G08G26G04G28G24G11
 -16177051.52748 -12558379.87146  21127249.6804                   21127247.8404
   4468597.71147   3499194.64145  21793416.0234                   21793415.5314
 -11433519.09048  -8884359.22746  20169524.5084                   20169523.2034
  -4711140.43047  -3603654.38744  22857721.9454   22857722.9804
  11600018.79346   9077013.46943  24447587.2814                   24447593.5164
  -9470462.53548  -7374299.53146  21454679.3204                   21454677.1884
 -12556451.42647  -9759128.34045  22044043.0634                   22044042.9574
  -2271837.58647  -1744406.47344  22553038.9304                   22553036.8794
 11  8 12 20 25  0.0000000  0  8G17G07G08G26G04G28G24G11
 -16263777.55948 -12625958.57446  21110746.0084                   21110744.6254
   4503660.86747   3526516.53145  21800088.5234                   21800087.9264
 -11448910.84048  -8896352.82446  20166595.0864                   20166593.5984
  -4731655.98047  -3619640.57444  22853818.1414   22853818.6054
  11437146.52046   8950100.30143  24416592.7734                   24416599.8984
  -9539732.84448  -7428276.38746  21441497.7974                   21441495.3634
 -12575968.39547  -9774336.35245  22040328.7194                   22040329.0744
  -2247203.07847  -1725210.76644  22557726.4454                   22557724.7274
 11  8 12 20 25 30.0000000  0  8G17G07G08G26G04G28G24G11
 -16350119.07048 -12693237.64546  21094315.6024                   21094314.2154
   4539120.26647   3554147.15646  21806836.1724                   21806836.0434
 -11463703.54748  -8907879.63346  20163780.1884                   20163779.0784
  -4751629.89147  -3635204.69544  22850017.7814   22850018.4844
  11274243.02746   8823162.78142  24385593.7274                   24385600.3634
  -9608930.85548  -7482196.89846  21428329.4924                   21428327.4184
 -12594908.12947  -9789094.57445  22036724.8134                   22036724.9144
  -2222128.29347  -1705671.98844  22562498.4224                   22562496.1134
 11  8 12 20 26  0.0000000  0  8G17G07G08G26G04G28G24G11
 -16436068.86748 -12760211.48446  21077959.7664                   21077958.3364
   4574981.79747   3582091.13745  21813660.5394                   21813660.4304
 -11477890.42648  -8918934.37546  20161080.3914                   20161078.9264
  -4771056.77347  -3650342.55944  22846320.4774   22846321.6994
  11111318.43846   8696208.80943  24354589.8364                   24354596.7814
  -9678048.12548  -7536054.49646  21415176.9534                   21415174.7934
 -12613263.91047  -9803397.76645  22033231.8134                   22033231.3554
  -2196608.09847  -1685786.14844  22567354.8674                   22567352.6804
 11  8 12 20 26 30.0000000  0  8G17G07G08G26G04G28G24G11
 -16521636.90248 -12826887.84446  21061676.6254                   21061675.2234
   4611233.75447   3610339.34846  21820558.9144                   21820558.6724
 -11491480.60548  -8929524.15646  20158494.3914                   20158493.5044
  -4789948.06247  -3665063.07845  22842725.3754   22842727.0984
  10948365.93046   8569233.09043  24323580.4614                   24323587.6054
  -9747093.59448  -7589856.15646  21402038.3674                   21402035.8954
 -12631046.01247  -9817253.94145  22029848.0864                   22029848.2464
  -2170654.78547  -1665562.80944  22572293.6254                   22572291.3204
 11  8 12 20 27  0.0000000  0  8G17G07G08G26G04G28G24G11
 -16606829.30148 -12893271.50846  21045465.3134                   21045463.8594
   4647868.59447   3638885.89845  21827530.2344                   21827530.1524
 -11504480.24248  -8939653.76646  20156020.7894                   20156019.5354
  -4808311.90247  -3679372.60944  22839231.1724   22839232.2774
  10785382.09546   8442232.99043  24292566.3284                   24292573.2584
  -9816072.84848  -7643606.21546  21388911.7114                   21388909.7234
 -12648261.20747  -9830668.36745  22026572.1094                   22026571.7814
  -2144276.21547  -1645008.09044  22577313.0944                   22577311.4224
 11  8 12 20 27 30.0000000  0  8G17G07G08G26G04G28G24G11
 -16691649.22348 -12959364.93046  21029324.6024                   21029322.9804
   4684881.30547   3667726.89845  21834573.9844                   21834573.4924
 -11516892.90648  -8949326.00446  20153658.4454                   20153657.4024
  -4826153.26247  -3693274.99644  22835835.8754   22835836.8134
  10622366.60946   8315208.18043  24261545.2814                   24261551.9494
  -9884987.85548  -7697306.20746  21375797.6484                   21375795.4844
 -12664913.40247  -9843644.09845  22023403.4224                   22023403.2974
  -2117477.57847  -1624126.05144  22582412.4224                   22582410.9804
 11  8 12 20 28  0.0000000  0  8G17G07G08G26G04G28G24G11
 -16776105.06248 -13025174.64546  21013253.1334                   21013251.7234
   4722262.00847   3696854.64145  21841687.0554                   21841687.1764
 -11528726.72748  -8958547.18746  20151406.9694                   20151405.8914
  -4843482.11347  -3706778.04345  22832538.6564   22832539.4694
  10459314.50846   8188154.85243  24230516.9774                   24230523.6414
  -9953845.57848  -7750961.57046  21362694.6254                   21362692.2074
 -12681010.95747  -9856187.64545  22020340.3204                   22020339.8164
  -2090269.13347  -1602924.68044  22587589.9534                   22587587.9734
 11  8 12 20 28 30.0000000  0  8G17G07G08G26G04G28G24G11
 -16860205.92648 -13090707.74646  20997248.9454                   20997247.3914
   4760000.05947   3726260.83245  21848868.8134                   21848868.3244
 -11539990.87148  -8967324.46546  20149263.2274                   20149262.1174
  -4860309.49647  -3719890.31644  22829337.0164   22829337.1604
  10296219.46946   8061068.10944  24199481.3594                   24199487.8984
 -10022654.44548  -7804578.86346  21349600.6174                   21349598.2974
 -12696563.66047  -9868306.63345  22017380.7424                   22017380.5554
  -2062662.10547  -1581412.72744  22592842.9384                   22592842.1564
 11  8 12 20 29  0.0000000  0  8G17G07G08G26G04G28G24G11
 -16943952.40248 -13155964.70346  20981312.9694                   20981311.5204
   4798093.54747   3755943.99646  21856117.7274                   21856117.6484
 -11550685.46148  -8975657.93746  20147228.1024                   20147226.8594
  -4876637.59047  -3732613.54344  22826228.8594   22826229.9734
  10133084.07846   7933949.89543  24168437.4924                   24168443.2344
 -10091413.73848  -7858157.51646  21336515.8834                   21336513.4774
 -12711572.31647  -9880001.67645  22014524.4384                   22014524.4144
  -2034659.00047  -1559592.15644  22598172.3914                   22598170.5744
 11  8 12 20 29 30.0000000  0  8G17G07G08G26G04G28G24G11
 -17027352.85948 -13220952.03546  20965441.9144                   20965440.8794
   4836532.44147   3785896.30145  21863432.4924                   21863431.9384
 -11560819.30148  -8983554.46146  20145299.8444                   20145298.7424
  -4892476.61747  -3744955.67644  22823215.6884   22823216.0634
   9969903.02346   7806796.10943  24137384.9844                   24137390.8404
 -10160130.76248  -7911703.23046  21323439.8754                   21323437.7114
 -12726046.13347  -9891279.98045  22011770.1954                   22011770.0634
  -2006270.41047  -1537471.19944  22603574.7734                   22603573.0204
 11  8 12 20 30  0.0000000  0  8G17G07G08G26G04G28G24G11
 -17110425.07848 -13285683.59446  20949633.8204                   20949632.4414
   4875297.18447   3816102.51645  21870808.8284                   21870808.6294
 -11570410.30548  -8991027.98446  20143474.8204                   20143473.6914
  -4907846.08247  -3756931.91844  22820290.4694   22820291.2624
   9806661.53947   7679595.23443  24106321.3524                   24106327.0594
 -10228822.31648  -7965229.10546  21310368.2974                   21310365.4454
 -12740003.51247  -9902155.85245  22009114.5474                   22009114.0394
  -1977515.91847  -1515065.12144  22609046.7114                   22609044.7664
 11  8 12 20 30 30.0000000  0  8G17G07G08G26G04G28G24G11
 -17193159.03548 -13350151.57046  20933890.2114                   20933888.8674
   4914396.39547   3846569.34445  21878249.3674                   21878249.0944
 -11579448.19948  -8998070.52346  20141755.0554                   20141753.9304
  -4922737.79747  -3768535.89845  22817457.1174   22817457.6644
   9643372.60946   7552357.42643  24075247.5864                   24075253.2704
 -10297476.90248  -8018726.16446  21297303.6644                   21297301.1804
 -12753434.57047  -9912621.61745  22006558.6094                   22006558.4414
  -1948387.51647  -1492367.69144  22614589.8524                   22614588.0044
 11  8 12 20 31  0.0000000  0  8G17G07G08G26G04G28G24G11
 -15700135.70748 -12186756.72746  21218003.0004                   21218001.5744
   6529243.44947   5104891.64545  22185544.9844                   22185544.5664
 -10012516.54348  -7777084.84446  20439932.3054                   20439931.2234
  -3361736.93447  -2552171.61744  23114505.1954   23114506.4734
  11055461.22346   8652686.50843  24343959.1884                   24343964.4184
  -8790674.94948  -6844594.76246  21584038.4534                   21584035.8014
 -11190923.60947  -8695080.61345  22303894.5164                   22303893.6844
   -343472.06247   -241784.25444  22919995.0634                   22919993.2544
 11  8 12 20 31 30.0000000  0  8G17G07G08G26G04G28G24G11
 -15782209.67248 -12250710.41846  21202384.8204                   21202383.5004
   6568990.60947   5135863.37545  22193108.7194                   22193107.9224
 -10020464.83648  -7783278.34446  20438419.5314                   20438418.6914
  -3375695.14147  -2563048.19144  23111849.1334   23111850.5944
  10892070.66046   8525369.53143  24312865.8364                   24312872.2854
  -8859268.89148  -6898044.55946  21570985.5784                   21570983.0004
 -11203320.65647  -8704740.65245  22301535.1564                   22301535.0664
   -313618.52347   -218521.76244  22925676.2584                   22925674.1294
 11  8 12 20 32  0.0000000  0  8G17G07G08G26G04G28G24G11
 -15863955.31648 -12314408.27746  21186828.8834                   21186827.6764
   6609057.79747   5167084.48045  22200733.0864                   22200732.8674
 -10027870.57448  -7789049.07446  20437010.5164                   20437009.1564
  -3389191.05547  -2573564.51244  23109281.1804   23109281.6954
  10728632.44946   8398015.38743  24281764.1414                   24281770.8754
  -8927832.08648  -6951470.40646  21557938.6804                   21557935.8524
 -11215203.02747  -8713999.62945  22299274.1334                   22299273.5394
   -283406.91047   -194980.27744  22931424.6334                   22931422.7774
 11  8 12 20 32 30.0000000  0  8G17G07G08G26G04G28G24G11
 -15945379.77048 -12377855.85946  21171334.6024                   21171333.4694
   6649436.19547   5198548.08645  22208416.6414                   22208416.4534
 -10034740.72748  -7794402.46146  20435703.2814                   20435701.7384
  -3402233.68747  -2583727.63344  23106799.2194   23106800.2934
  10565142.12146   8270620.62943  24250653.3754                   24250659.2544
  -8996370.92648  -7004877.27046  21544895.8594                   21544893.4064
 -11226578.56647  -8722863.68445  22297109.4384                   22297109.4304
   -252846.49647   -171167.00444  22937240.4224                   22937238.7624
 11  8 12 20 33  0.0000000  0  8G17G07G08G26G04G28G24G11
 -16026492.61348 -12441060.64546  21155899.1094                   21155898.0164
   6690114.29747   5230245.21545  22216157.5394                   22216157.4454
 -10041085.25048  -7799346.27046  20434495.8594                   20434494.8554
  -3414834.53147  -2593546.53144  23104400.8984   23104402.4064
  10401593.38746   8143180.41043  24219530.7664                   24219536.4064
  -9064893.92648  -7058271.78946  21531856.1954                   21531853.7584
 -11237457.82447  -8731341.01245  22295039.3674                   22295039.0904
   -221948.93447   -147091.02044  22943120.0944                   22943117.8444
 11  8 12 20 33 30.0000000  0  8G17G07G08G26G04G28G24G11
 -16107310.03948 -12504035.23046  21140520.2664                   21140518.4964
   6731075.05147   5262162.61345  22223951.8754                   22223951.8714
 -10046919.35948  -7803892.35546  20433385.5944                   20433384.4574
  -3427011.02047  -2603034.73844  23102084.3054   23102084.9924
  10237974.18846   8015685.23842  24188395.0004                   24188401.0474
  -9133414.91448  -7111664.74246  21518817.4304                   21518814.7304
 -11247856.59447  -8739443.94145  22293060.1254                   22293059.5314
   -190731.96947   -122766.15244  22949060.0314                   22949058.8094
 11  8 12 20 34  0.0000000  0  8G17G07G08G26G04G28G24G11
 -16187823.17648 -12566772.71546  21125199.0004                   21125197.5594
   6772325.60547   5294305.81345  22231802.0704                   22231801.5634
 -10052235.39548  -7808034.74646  20432373.9224                   20432372.8014
  -3438756.66447  -2612187.24244  23099849.3524   23099850.3754
  10074295.90246   7888143.96543  24157247.6884                   24157253.4534
  -9201924.40648  -7165048.74246  21505780.5784                   21505778.0704
 -11257767.35547  -8747166.60945  22291174.4534                   22291173.8364
   -159189.06247    -98187.30544  22955062.5554                   22955061.3364
 11  8 12 20 34 30.0000000  0  8G17G07G08G26G04G28G24G11
 -16268029.13748 -12629270.84046  21109936.4224                   21109934.6994
   6813867.12147   5326675.74245  22239706.9144                   22239707.1844
 -10057030.55548  -7811771.26246  20431461.6724                   20431460.5314
  -3450070.31247  -2621003.13344  23097696.1174   23097697.4614
   9910564.59046   7760561.42243  24126090.4774                   24126096.4264
  -9270418.01648  -7218420.36746  21492746.6254                   21492743.9694
 -11267187.61347  -8754507.06645  22289381.9454                   22289380.9774
   -127319.07847    -73353.59044  22961127.3444                   22961125.7504
 11  8 12 20 35  0.0000000  0  8G17G07G08G26G04G28G24G11
 -16347941.00448 -12691539.80146  21094729.2034                   21094728.2114
   6855685.18447   5359261.16045  22247665.0474                   22247665.0904
 -10061317.50048  -7815111.76246  20430645.8134                   20430644.5274
  -3460966.83647  -2629493.97344  23095622.5234   23095623.3524
   9746770.76646   7632930.11343  24094921.3054                   24094926.5124
  -9338907.52748  -7271788.79346  21479713.4384                   21479710.7384
 -11276130.96147  -8761475.91045  22287679.8594                   22287679.5554
    -95136.92247    -48276.62944  22967251.4614                   22967249.4344
 11  8 12 20 35 30.0000000  0  8G17G07G08G26G04G28G24G11
 -16427564.12948 -12753583.77746  21079577.6564                   21079576.3634
   6897772.42247   5392056.31645  22255673.8984                   22255674.1564
 -10065101.95748  -7818060.72346  20429925.6254                   20429924.5234
  -3471453.64847  -2637665.56644  23093627.0864   23093628.2624
   9582912.06347   7505248.25843  24063740.0944                   24063745.1524
  -9407396.94148  -7325157.14846  21466680.0084                   21466677.8594
 -11284603.92247  -8768078.22745  22286067.5164                   22286067.4454
    -62650.28547    -22962.41844  22973433.4774                   22973432.2734
 11  8 12 20 36  0.0000000  0  8G17G07G08G26G04G28G24G11
 -16506911.98448 -12815413.25046  21064478.0634                   21064476.9494
   6940114.14147   5425049.77345  22263731.6724                   22263731.5634
 -10068397.78548  -7820628.92646  20429298.7274                   20429297.4344
  -3481545.84447  -2645529.68444  23091706.8914   23091707.6604
   9418978.22747   7377507.87943  24032544.5634                   24032549.4024
  -9475898.20348  -7378534.73446  21453644.7734                   21453642.4144
 -11292620.13747  -8774324.64545  22284541.9144                   22284541.4304
    -29874.53147      2577.08644  22979670.4614                   22979668.8984
 11  8 12 20 36 30.0000000  0  8G17G07G08G26G04G28G24G11
 -16585987.84048 -12877030.76646  21049430.2814                   21049429.1094
   6982705.85247   5458238.02045  22271836.7034                   22271836.1994
 -10071208.34048  -7822819.00046  20428763.3754                   20428762.5744
  -3491248.84847  -2653090.52044  23089860.6174   23089861.5394
   9254969.66447   7249709.23844  24001334.2194                   24001339.2074
  -9544413.35948  -7431923.14546  21440606.9304                   21440604.3984
 -11300183.42247  -8780218.11345  22283103.2344                   22283102.6524
      3185.61747     28338.20344  22985961.5944                   22985960.5634
 11  8 12 20 37  0.0000000  0  8G17G07G08G26G04G28G24G11
 -16664784.01648 -12938430.34446  21034436.0864                   21034434.5394
   7025552.85547   5491625.21145  22279989.8834                   22279989.8554
 -10073526.51248  -7824625.39846  20428322.4064                   20428321.6054
  -3500556.95747  -2660343.66444  23088088.7034   23088090.3794
   9090896.95747   7121860.61344  23970112.0234                   23970116.6604
  -9612933.76248  -7485315.63746  21427567.6804                   21427565.3714
 -11307287.28147  -8785753.60545  22281750.7894                   22281750.5234
     36534.94147     54324.67244  22992308.3134                   22992306.6914
 11  8 12 20 37 30.0000000  0  8G17G07G08G26G04G28G24G11
 -16743305.52348 -12999615.90646  21019493.9064                   21019492.4534
   7068649.21147   5525206.68445  22288191.0394                   22288191.1994
 -10075357.27748  -7826052.00846  20427973.9454                   20427973.0474
  -3509476.66447  -2667294.13744  23086391.4774   23086393.4884
   8926758.78146   6993960.97744  23938877.4614                   23938882.7664
  -9681462.26648  -7538714.45346  21414527.1564                   21414524.5704
 -11313936.76647  -8790935.04745  22280485.7194                   22280484.9024
     70167.57847     80531.88744  22998708.3284                   22998706.8714
 11  8 12 20 38  0.0000000  0  8G17G07G08G26G04G28G24G11
 -16821558.63348 -13060592.32446  21004602.9924                   21004601.6054
   7111987.10947   5558976.37945  22296438.2424                   22296437.7114
 -10076706.82448  -7827103.63346  20427717.2894                   20427716.1994
  -3518016.05547  -2673948.28144  23084766.7274   23084767.7074
   8762552.46147   6866008.25844  23907629.3524                   23907635.1524
  -9750003.75448  -7592123.39546  21401484.5084                   21401481.7854
 -11320139.22347  -8795768.12545  22279305.1024                   22279305.4414
    104074.89147    106953.13344  23005160.2504                   23005159.1374
 11  8 12 20 38 30.0000000  0  8G17G07G08G26G04G28G24G11
 -16899551.60548 -13121366.03146  20989761.4774                   20989759.5394
   7155556.23847   5592926.26645  22304729.2424                   22304729.3134
 -10077584.09848  -7827787.25046  20427550.3914                   20427549.3914
  -3526185.73447  -2680314.31644  23083212.4774   23083213.9384
   8598272.46146   6737998.12543  23876368.0474                   23876372.9924
  -9818565.19948  -7645547.88746  21388437.4454                   21388434.9614
 -11325903.88747  -8800260.10245  22278208.8204                   22278207.5514
    138246.16447    133580.04744  23011663.1254                   23011661.3054
 11  8 12 20 39  0.0000000  0  8G17G07G08G26G04G28G24G11
 -16977294.75848 -13181945.07046  20974967.4774                   20974965.6334
   7199345.16847   5627047.41445  22313061.9064                   22313062.2344
 -10077999.67248  -7828111.11346  20427471.3524                   20427470.5204
  -3533997.95347  -2686401.83644  23081725.6564   23081726.9694
   8433912.25846   6609925.51643  23845091.5704                   23845096.5164
  -9887155.41448  -7698994.79746  21375384.7974                   21375382.6644
 -11331241.65647  -8804419.39845  22277192.5634                   22277192.0274
    172669.63747    160403.48444  23018214.0784                   23018212.1954
 11  8 12 20 39 30.0000000  0  8G17G07G08G26G04G28G24G11
 -17054771.36348 -13242316.41446  20960223.8674                   20960222.3754
   7243368.94547   5661351.54345  22321439.4924                   22321439.5904
 -10077936.89548  -7828062.23846  20427483.1954                   20427482.4454
  -3541437.54747  -2692198.96144  23080309.9384   23080311.6684
   8269492.12146   6481806.18843  23813802.4144                   23813807.7974
  -9955755.91448  -7752449.71546  21362330.7194                   21362327.8634
 -11336136.25447  -8808233.36745  22276261.8364                   22276260.7424
    207360.48047    187435.30944  23024814.8984                   23024813.4024
 11  8 12 20 40  0.0000000  0  8G17G07G08G26G04G28G24G11
 -17132001.54348 -13302495.74246  20945527.7504                   20945525.9884
   7287606.40647   5695822.19945  22329857.3594                   22329857.6994
 -10077416.13348  -7827656.48846  20427582.5164                   20427581.4024
  -3548526.52747  -2697722.92644  23078961.0314   23078962.5044
   8104995.55946   6353627.34843  23782500.5944                   23782504.6684
 -10024385.14148  -7805927.02346  21349271.0944                   21349268.4734
 -11340608.16047  -8811717.97344  22275410.2734                   22275410.0004
    242296.62147    214658.23844  23031462.8834                   23031461.8754
 11  8 12 20 40 30.0000000  0  8G17G07G08G26G04G28G24G11
 -17208992.66448 -13362488.78546  20930876.4924                   20930874.7774
   7332048.32447   5730452.14845  22338314.5084                   22338314.9964
 -10076445.43048  -7826900.14146  20427767.4614                   20427766.4184
  -3555274.43747  -2702981.07044  23077676.9614   23077677.7234
   7940417.96546   6225385.35943  23751181.9384                   23751186.3554
 -10093049.30948  -7859431.56246  21336204.4064                   21336202.1994
 -11344665.87147  -8814879.80945  22274638.0474                   22274638.1994
    277468.35247    242064.75044  23038156.8674                   23038154.3364
 11  8 12 20 41  0.0000000  0  8G17G07G08G26G04G28G24G11
 -17285733.03548 -13422286.45746  20916273.4534                   20916271.3794
   7376704.62947   5765249.17245  22346812.2114                   22346812.9064
 -10075013.01248  -7825784.01246  20428039.6804                   20428038.8094
  -3561671.31647  -2707965.71144  23076459.9384   23076460.2584
   7775775.03146   6097092.44544  23719850.7424                   23719855.8914
 -10161734.87948  -7912952.77746  21323134.4844                   21323131.5204
 -11348298.51647  -8817710.44945  22273946.8914                   22273946.6374
    312885.67647    269662.62944  23044895.9454                   23044894.3914
 11  8 12 20 41 30.0000000  0  8G17G07G08G26G04G28G24G11
 -17362221.02348 -13481887.46546  20901717.9614                   20901716.4414
   7421575.23447   5800213.16045  22355351.1414                   22355351.1484
 -10073118.13348  -7824307.52046  20428400.4694                   20428399.7934
  -3567717.83647  -2712677.34844  23075309.1414   23075309.7734
   7611071.52747   5968752.36343  23688509.0554                   23688513.7544
 -10230438.74648  -7966488.25446  21310060.1564                   21310057.8054
 -11351505.48847  -8820209.40245  22273336.9144                   22273336.3324
    348548.01647    297451.43444  23051682.0084                   23051680.6884
 11  8 12 20 42  0.0000000  0  8G17G07G08G26G04G28G24G11
 -17438475.37548 -13541306.42246  20887207.3284                   20887205.5744
   7466640.46547   5835328.82045  22363926.9774                   22363926.9384
 -10070779.56248  -7822485.30146  20428845.5864                   20428844.3204
  -3573434.26247  -2717131.76244  23074221.3524   23074221.9264
   7446292.32847   5840353.29743  23657151.9534                   23657156.8834
 -10299177.89148  -8020051.22346  21296979.6644                   21296977.0944
 -11354305.84047  -8822391.49245  22272803.7814                   22272803.2034
    384435.20346    325415.43044  23058511.6414                   23058509.8754
 11  8 12 20 42 30.0000000  0  8G17G07G08G26G04G28G24G11
 -17514495.65248 -13600542.98046  20872741.1564                   20872739.1174
   7511898.89847   5870595.03145  22372539.7814                   22372539.7624
 -10067997.03548  -7820317.14146  20429375.3284                   20429374.0164
  -3578822.40647  -2721330.37544  23073196.6724   23073197.2774
   7281441.42247   5711898.33243  23625781.1174                   23625786.5164
 -10367950.60248  -8073640.34846  21283892.6414                   21283890.4384
 -11356700.10547  -8824257.15245  22272348.2584                   22272347.9344
    420545.81646    353553.52344  23065382.9844                   23065381.5554
 11  8 12 20 43  0.0000000  0  8G17G07G08G26G04G28G24G11
 -17590275.70748 -13659592.35946  20858320.5944                   20858319.1564
   7557355.13747   5906015.35945  22381189.7504                   22381190.1174
 -10064764.97748  -7817798.69546  20429990.0704                   20429989.1214
  -3583878.17647  -2725270.00844  23072234.1094   23072235.1294
   7116528.60947   5583395.13343  23594399.2814                   23594403.4414
 -10436748.78548  -8127249.31246  21270800.5314                   21270798.0204
 -11358682.86347  -8825802.16045  22271970.7194                   22271970.3594
    456883.75447    381868.74643  23072298.1884                   23072296.3874
 11  8 12 20 43 30.0000000  0  8G17G07G08G26G04G28G24G11
 -17665823.85548 -13718461.02046  20843944.0784                   20843942.6374
   7602999.30547   5941582.13345  22389875.6094                   22389875.9414
 -10061092.34448  -7814936.94546  20430688.8914                   20430688.3014
  -3588611.47347  -2728958.33244  23071333.1414   23071333.7504
   6951548.88347   5454839.80143  23563004.7584                   23563008.5084
 -10505579.14848  -8180883.36746  21257702.6724                   21257700.4804
 -11360263.43447  -8827033.77745  22271669.8674                   22271669.8594
    493439.12146    410353.41444  23079253.8524                   23079252.6054
 11  8 12 20 44  0.0000000  0  8G17G07G08G26G04G28G24G11
 -17741134.96948 -13777144.97746  20829613.1564                   20829611.6024
   7648835.06647   5977298.20745  22398598.0084                   22398598.0044
 -10056974.48048  -7811728.26246  20431472.7034                   20431472.1294
  -3593019.33647  -2732393.09044  23070494.9384   23070496.2034
   6786510.98047   5326239.13743  23531598.8754                   23531603.0984
 -10574434.85948  -8234537.16446  21244599.8834                   21244597.7814
 -11361437.23447  -8827948.43745  22271447.2894                   22271446.3714
    530214.81646    439009.75444  23086252.8834                   23086251.0044
 11  8 12 20 44 30.0000000  0  8G17G07G08G26G04G28G24G11
 -17816215.96548 -13835649.61346  20815325.6174                   20815323.9064
   7694853.63347   6013156.70345  22407355.0784                   22407355.6054
 -10052418.82448  -7808178.44546  20432339.4694                   20432338.7464
  -3597110.91847  -2735581.39144  23069715.6414   23069717.2114
   6621411.30947   5197590.33243  23500181.7894                   23500185.5004
 -10643321.70348  -8288215.23046  21231491.1414                   21231488.7424
 -11362212.36747  -8828552.44945  22271298.8914                   22271298.4804
    567202.08246    467830.95744  23093290.6334                   23093289.4734
 11  8 12 20 45  0.0000000  0  8G17G07G08G26G04G28G24G11
 -17891068.87548 -13893976.52046  20801081.6884                   20801080.0164
   7741052.18047   6049155.44945  22416146.5784                   22416146.8554
 -10047426.99248  -7804288.74246  20433289.5084                   20433288.6914
  -3600889.56247  -2738525.85244  23068997.0864   23068998.3284
   6456252.01247   5068895.07044  23468752.1804                   23468756.7734
 -10712238.79748  -8341916.85946  21218377.1334                   21218374.4414
 -11362591.25047  -8828847.70345  22271227.1174                   22271227.0394
    604397.86746    496814.62544  23100368.9614                   23100367.4804
 11  8 12 20 45 30.0000000  0  8G17G07G08G26G04G28G24G11
 -17965681.14148 -13952115.92246  20786883.1414                   20786881.6254
   7787441.44947   6085302.82445  22424973.9534                   22424974.4414
 -10041987.28548  -7800050.04346  20434325.0164                   20434324.1334
  -3604345.12547  -2741218.54744  23068339.6094   23068340.2934
   6291048.95747   4940165.69143  23437314.8674                   23437319.2344
 -10781172.31648  -8395631.29746  21205259.3524                   21205256.8754
 -11362562.47747  -8828825.29345  22271232.6724                   22271232.5474
    641812.36346    525968.74244  23107489.5004                   23107487.7544
 11  8 12 20 46  0.0000000  0  8G17G07G08G26G04G28G24G11
 -18040068.53948 -14010080.09446  20772727.6644                   20772726.3204
   7834004.02047   6121585.23445  22433834.4694                   22433835.0784
 -10036116.17248  -7795475.19146  20435442.1724                   20435440.9804
  -3607495.27047  -2743673.26244  23067740.5164   23067741.0044
   6125789.86347   4811392.64544  23405867.1564                   23405870.2074
 -10850136.44148  -8449369.57046  21192135.9304                   21192133.3794
 -11362142.57847  -8828498.11745  22271312.3834                   22271312.3324
    679427.96146    555279.53144  23114646.6724                   23114645.1604
 11  8 12 20 46 30.0000000  0  8G17G07G08G26G04G28G24G11
 -16538807.64148 -12840266.38746  21058408.3364                   21058406.3754
   9456157.48047   7385600.80145  22742520.3594                   22742520.8404
  -8454393.72348  -6562964.23446  20736433.9064                   20736433.1094
  -2034921.19147  -1518290.91844  23366990.7814   23366992.4844
   7535904.71546   5910183.71544  23674202.6334                   23674206.6804
  -9343706.18048  -7275527.81246  21478799.7894                   21478797.7774
  -9785911.61347  -7600266.21945  22571259.2734                   22571259.3404
   2292662.07847   1812345.03144  23421636.0474                   23421634.0634
 11  8 12 20 47  0.0000000  0  8G17G07G08G26G04G28G24G11
 -16612748.48448 -12897882.61346  21044337.6884                   21044335.8364
   9503058.87547   7422147.23045  22751445.6414                   22751445.8634
  -8447664.19948  -6557720.48046  20737714.3134                   20737713.8914
  -2037469.73047  -1520276.86344  23366506.7974   23366507.2584
   7370541.44147   5781329.47744  23642735.0554                   23642738.5664
  -9412728.96948  -7329311.80146  21465664.9064                   21465662.3874
  -9784715.07447  -7599333.86745  22571487.2814                   22571486.5514
   2330670.94947   1841962.28144  23428868.1954                   23428866.6094
 11  8 12 20 47 30.0000000  0  8G17G07G08G26G04G28G24G11
 -16686469.58648 -12955327.60946  21030309.3984                   21030307.3364
   9550123.78147   7458821.05945  22760401.8204                   22760401.9694
  -8440509.66448  -6552145.55546  20739076.0864                   20739074.8984
  -2039723.84847  -1522033.38744  23366077.4774   23366079.3134
   7205127.92647   5652436.07044  23611257.4144                   23611261.6764
  -9481782.18748  -7383119.49646  21452524.7734                   21452522.3484
  -9783134.84847  -7598102.53945  22571788.1094                   22571787.4774
   2368870.29746   1871727.95744  23436137.1094                   23436135.9494
 11  8 12 20 48  0.0000000  0  8G17G07G08G26G04G28G24G11
 -16759957.69548 -13012591.05146  21016324.6254                   21016323.0594
   9597364.57847   7495631.94145  22769391.7344                   22769392.0824
  -8432917.50448  -6546229.63346  20740520.9924                   20740520.3914
  -2041672.39147  -1523551.79744  23365706.8204   23365707.7934
   7039681.24647   5523516.84044  23579773.2974                   23579777.4774
  -9550850.38748  -7436938.87946  21439381.1254                   21439378.8794
  -9781158.74647  -7596562.74645  22572163.7344                   22572163.7034
   2407271.91047   1901651.24244  23443445.1724                   23443443.8524
 11  8 12 20 48 30.0000000  0  8G17G07G08G26G04G28G24G11
 -16833214.69148 -13069674.40246  21002384.4924                   21002382.8324
   9644776.99647   7532576.55545  22778413.8284                   22778414.6844
  -8424890.13348  -6539974.57446  20742048.2274                   20742047.4924
  -2043319.30547  -1524835.17244  23365393.4774   23365394.8874
   6874203.16846   5394573.12544  23548284.5474                   23548287.5394
  -9619933.93748  -7490770.21146  21426235.3834                   21426232.8594
  -9778789.62547  -7594716.69545  22572614.6644                   22572614.6764
   2445871.63347   1931728.89844  23450790.0784                   23450788.4884
 11  8 12 20 49  0.0000000  0  8G17G07G08G26G04G28G24G11
 -16906244.26248 -13126580.54346  20988487.4614                   20988485.6484
   9692356.16447   7569651.10245  22787468.0704                   22787468.4694
  -8416431.85248  -6533383.74646  20743657.8134                   20743656.8554
  -2044670.34847  -1525887.99644  23365136.6024   23365137.8954
   6708693.43847   5265604.74244  23516788.5864                   23516792.0664
  -9689034.57848  -7544614.85946  21413086.0474                   21413083.4264
  -9776032.19147  -7592568.05145  22573139.1954                   22573139.0864
   2484664.03547   1961956.69144  23458172.4224                   23458170.9884
 11  8 12 20 49 30.0000000  0  8G17G07G08G26G04G28G24G11
 -16979047.74648 -13183310.50446  20974633.4224                   20974631.3754
   9740099.20347   7606853.33645  22796552.9144                   22796553.9774
  -8407544.84848  -6526458.85946  20745348.9224                   20745347.9104
  -2045728.82447  -1526712.83644  23364934.9534   23364935.6914
   6543154.67247   5136613.71944  23485287.6174                   23485290.9344
  -9758151.76648  -7598472.41046  21399933.1564                   21399930.8444
  -9772888.60247  -7590118.52745  22573738.0704                   22573737.7774
   2523646.15247   1992332.32844  23465590.8674                   23465589.3284
 11  8 12 20 50  0.0000000  0  8G17G07G08G26G04G28G24G11
 -17051620.34448 -13239860.55946  20960823.4694                   20960821.4144
   9788009.50847   7644185.90645  22805670.3204                   22805670.9614
  -8398224.58648  -6519196.37146  20747122.8284                   20747121.6374
  -2046491.74647  -1527307.41044  23364789.4774   23364790.9384
   6377595.53947   5007606.80544  23453782.9144                   23453786.2854
  -9827278.65648  -7652337.51646  21386779.0084                   21386776.5004
  -9769354.93747  -7587365.03545  22574409.9534                   22574409.8874
   2562821.05147   2022858.17644  23473045.6094                   23473043.6524
 11  8 12 20 50 30.0000000  0  8G17G07G08G26G04G28G24G11
 -17123977.96948 -13296243.10246  20947054.0234                   20947052.0664
   9836069.62947   7681635.21145  22814815.6174                   22814816.3954
  -8388487.41848  -6511609.01646  20748975.4774                   20748974.7304
  -2046977.22747  -1527685.78144  23364697.7274   23364699.0354
   6212003.42647   4878574.17644  23422271.2194                   23422274.6524
  -9896429.05948  -7706220.94546  21373620.1954                   21373617.7424
  -9765448.15647  -7584320.80145  22575153.9614                   22575153.5164
   2602170.94147   2053520.40243  23480533.3754                   23480531.6604
 11  8 12 20 51  0.0000000  0  8G17G07G08G26G04G28G24G11
 -17196113.00848 -13352452.19946  20933327.1024                   20933325.5314
   9884285.98047   7719206.26645  22823991.4924                   22823991.7384
  -8378326.23848  -6503691.26246  20750909.1024                   20750908.3754
  -2047179.28547  -1527843.30944  23364658.7114   23364660.2154
   6046390.37947   4749525.23443  23390756.3444                   23390759.3874
  -9965593.56648  -7760115.35946  21360458.7424                   21360456.2544
  -9761161.12147  -7580980.27745  22575969.4224                   22575969.0474
   2641702.14147   2084323.89543  23488055.8754                   23488054.1174
 11  8 12 20 51 30.0000000  0  8G17G07G08G26G04G28G24G11
 -17268024.22347 -13408486.89146  20919642.5634                   20919641.2074
   9932657.93447   7756898.55944  22833196.5864                   22833196.6484
  -8367741.02348  -6495443.09446  20752923.5864                   20752922.9454
  -2047099.16047  -1527780.94944  23364674.5314   23364675.5864
   5880760.82047   4620463.42244  23359237.8834                   23359240.2934
 -10034768.89847  -7814018.21146  21347295.0314                   21347292.1054
  -9756494.15647  -7577343.70345  22576857.5394                   22576857.3444
   2681413.47346   2115267.76243  23495612.5704                   23495611.4064
 11  8 12 20 52  0.0000000  0  8G17G07G08G26G04G28G24G11
 -17339713.28548 -13464348.47346  20906000.6884                   20905999.0664
   9981182.23047   7794709.56345  22842430.0634                   22842430.8094
  -8356733.79348  -6486866.07846  20755018.4774                   20755017.1484
  -2046740.41047  -1527501.48844  23364742.7584   23364743.5594
   5715117.01247   4491390.49644  23327717.0084                   23327719.3554
 -10103955.14848  -7867929.55946  21334129.3204                   21334126.8014
  -9751449.71547  -7573412.98445  22577817.3524                   22577817.4964
   2721301.57847   2146349.36743  23503203.3364                   23503201.8094
 11  8 12 20 52 30.0000000  0  8G17G07G08G26G04G28G24G11
 -17411170.44148 -13520029.34846  20892402.8524                   20892401.1024
  10029867.14147   7832645.71945  22851694.8594                   22851695.8164
  -8345295.66048  -6477953.29346  20757195.1334                   20757193.9804
  -2046095.47747  -1526999.01644  23364865.9144   23364866.7304
   5549472.23447   4362316.83644  23296195.5634                   23296197.8954
 -10173140.52048  -7921840.22746  21320963.7584                   21320961.2664
  -9746019.05147  -7569181.32045  22578850.7894                   22578850.0004
   2761374.57046   2177575.04743  23510828.3754                   23510826.9574
 11  8 12 20 53  0.0000000  0  8G17G07G08G26G04G28G24G11
 -17482397.34848 -13575530.80546  20878848.7974                   20878847.1994
  10078709.75447   7870704.77045  22860989.3444                   22860990.3634
  -8333428.35248  -6468706.08246  20759453.4064                   20759452.5744
  -2045167.64547  -1526276.09044  23365041.9924   23365043.0004
   5383829.04347   4233244.42244  23264674.3134                   23264676.7664
 -10242324.56248  -7975749.85546  21307798.1174                   21307795.8054
  -9740204.48847  -7564650.51645  22579956.9614                   22579957.2934
   2801629.23446   2208942.27343  23518488.9924                   23518487.6134
 11  8 12 20 53 30.0000000  0  8G17G07G08G26G04G28G24G11
 -17553410.27748 -13630865.53146  20865335.2584                   20865333.8714
  10127692.16047   7908872.73845  22870310.4534                   22870311.3284
  -8321149.57048  -6459138.25046  20761789.8284                   20761789.0234
  -2043975.53147  -1525347.25444  23365269.2664   23365270.3984
   5218174.84447   4104163.43044  23233150.4614                   23233153.7734
 -10311521.45348  -8029669.49646  21294630.9064                   21294628.0824
  -9734023.42247  -7559834.12944  22581133.6334                   22581133.4144
   2842047.39546   2240436.93843  23526180.0554                   23526178.0784
 11  8 12 20 54  0.0000000  0  8G17G07G08G26G04G28G24G11
 -17624198.26248 -13686024.97746  20851865.0704                   20851863.1254
  10176823.93447   7947157.09045  22879659.6254                   22879661.2704
  -8308448.81648  -6449241.60246  20764206.5314                   20764205.8634
  -2042510.10547  -1524205.44944  23365548.0004   23365549.4654
   5052524.29747   3975085.30144  23201629.1484                   23201631.8594
 -10380718.02748  -8083588.89546  21281463.3134                   21281460.6884
  -9727465.83247  -7554724.33645  22582381.1414                   22582381.2854
   2882638.53946   2272066.36343  23533904.7814                   23533902.9884
 11  8 12 20 54 30.0000000  0  8G17G07G08G26G04G28G24G11
 -17694766.35548 -13741013.08246  20838436.2894                   20838434.3754
  10226098.55947   7985552.76245  22889036.9774                   22889037.6604
  -8295331.32848  -6439020.22746  20766702.7424                   20766702.1334
  -2040778.27047  -1522856.03544  23365878.1804   23365879.1174
   4886876.43847   3846009.29344  23170106.0234                   23170109.7274
 -10449917.43448  -8137510.51246  21268294.7814                   21268292.4264
  -9720537.71547  -7549325.82044  22583700.0864                   22583699.8794
   2923395.78547   2303825.24643  23541660.4144                   23541659.1254
 11  8 12 20 55  0.0000000  0  8G17G07G08G26G04G28G24G11
 -17765104.33248 -13795821.87146  20825051.6334                   20825049.5124
  10275524.68847   8024066.48045  22898442.6174                   22898443.1214
  -8281787.65248  -6428466.76646  20769280.2424                   20769279.6994
  -2038772.01647  -1521292.78944  23366259.1564   23366260.5274
   4721245.02747   3716946.09844  23138588.1724                   23138590.9734
 -10519107.36348  -8191424.73046  21255128.4924                   21255125.9184
  -9713229.85247  -7543631.40644  22585090.1094                   22585090.6094
   2964327.65646   2335720.16843  23549449.2894                   23549448.1024
 11  8 12 20 55 30.0000000  0  8G17G07G08G26G04G28G24G11
 -17835221.54348 -13850458.63746  20811708.4844                   20811706.5044
  10325091.34847   8062689.71145  22907874.7114                   22907875.7734
  -8267828.77348  -6417589.76246  20771936.7114                   20771936.1604
  -2036502.90647  -1519524.72344  23366691.3984   23366692.4694
   4555624.66447   3587891.50844  23107071.1564                   23107074.0864
 -10588295.24648  -8245337.36346  21241962.4144                   21241959.4964
  -9705552.98447  -7537649.46944  22586550.8524                   22586551.0004
   3005423.09047   2367742.52343  23557270.0314                   23557268.1884
 11  8 12 20 56  0.0000000  0  8G17G07G08G26G04G28G24G11
 -17905109.95348 -13904917.12546  20798408.9924                   20798407.3754
  10374804.97747   8101427.45745  22917335.1954                   22917336.1644
  -8253447.02748  -6406383.26646  20774673.6094                   20774672.6294
  -2033964.86347  -1517547.09444  23367174.6884   23367174.7934
   4390027.14147   3458854.73844  23075558.6804                   23075561.6724
 -10657470.74648  -8299240.35546  21228798.7664                   21228796.3244
  -9697499.88747  -7531374.34844  22588083.7034                   22588083.9534
   3046688.24247   2399897.15644  23565122.5634                   23565120.8754
 11  8 12 20 56 30.0000000  0  8G17G07G08G26G04G28G24G11
 -17974771.62548 -13959198.92646  20785153.0084                   20785151.2894
  10424662.44947   8140277.27345  22926822.7194                   22926823.8714
  -8238645.22348  -6394849.44946  20777490.0084                   20777489.6414
  -2031161.64147  -1515362.82444  23367707.6644   23367708.3284
   4224454.41447   3329837.27044  23044051.0004                   23044053.7074
 -10726634.11348  -8353133.89146  21215637.5084                   21215634.7894
  -9689073.64847  -7524808.47744  22589687.4844                   22589686.9454
   3088119.70747   2432181.37543  23573006.6954                   23573005.3594
 11  8 12 20 57  0.0000000  0  8G17G07G08G26G04G28G24G11
 -18044215.24248 -14013310.81246  20771938.3284                   20771936.5664
  10474653.07847   8179230.85245  22936335.4534                   22936336.5044
  -8223432.92648  -6382995.76646  20780384.9224                   20780384.0824
  -2028104.51247  -1512980.71144  23368289.7274   23368290.3244
   4058901.41047   3200835.17244  23012547.7034                   23012550.1174
 -10795791.94148  -8407023.10246  21202477.1024                   21202474.5554
  -9680284.08247  -7517959.47744  22591359.7894                   22591359.9024
   3129706.51247   2464586.61743  23580920.3834                   23580919.3204
 11  8 12 20 57 30.0000000  0  8G17G07G08G26G04G28G24G11
 -18113438.30948 -14067250.84046  20758765.7504                   20758763.9924
  10524778.79747   8218289.68445  22945874.6724                   22945875.5394
  -8207807.55948  -6370820.21946  20783358.3984                   20783357.3984
  -2024792.53547  -1510400.02044  23368920.0164   23368920.5744
   3893375.10547   3071853.85944  22981048.2664                   22981051.2194
 -10864939.14848  -8460904.05546  21189318.6414                   21189316.1564
  -9671128.97747  -7510825.66444  22593102.3754                   22593101.4534
   3171450.39147   2497114.28544  23588863.8284                   23588862.5234
 11  8 12 20 58  0.0000000  0  8G17G07G08G26G04G28G24G11
 -18182431.53148 -14121011.77346  20745636.7894                   20745634.8134
  10575046.60947   8257459.24244  22955440.5554                   22955441.2304
  -8191761.09448  -6358316.53946  20786411.8444                   20786411.6374
  -2021218.62147  -1507615.21144  23369600.1644   23369600.3054
   3727888.15647   2942903.23444  22949557.5314                   22949560.3404
 -10934064.43448  -8514767.91446  21176164.5634                   21176161.9574
  -9661600.89147  -7503401.19944  22594915.5314                   22594915.0204
   3213358.48847   2529769.88344  23596838.9454                   23596837.6994
 11  8 12 20 58 30.0000000  0  8G17G07G08G26G04G28G24G11
 -18251198.56648 -14174596.45346  20732550.6174                   20732548.9184
  10625451.72347   8296735.79744  22965031.9454                   22965033.6214
  -8175298.19948  -6345488.37146  20789544.8364                   20789544.1884
  -2017388.38347  -1504630.67644  23370328.6884   23370329.7234
   3562440.97747   2813983.57444  22918073.1954                   22918075.8244
 -11003169.33248  -8568615.88746  21163014.4304                   21163011.6564
  -9651704.37947  -7495689.64844  22596798.2114                   22596798.0634
   3255425.57447   2562549.39143  23604843.6094                   23604842.5274
 11  8 12 20 59  0.0000000  0  8G17G07G08G26G04G28G24G11
 -18319748.78948 -14228012.19946  20719506.2114                   20719504.2464
  10675983.09447   8336110.71544  22974647.9454                   22974649.5864
  -8158429.32448  -6332343.85246  20792754.9064                   20792754.2304
  -2013313.42247  -1501455.45744  23371104.4694   23371105.4144
   3397027.90647   2685090.48844  22886596.4064                   22886598.9924
 -11072261.39148  -8622453.86346  21149866.5944                   21149864.0784
  -9641449.88347  -7487699.16444  22598749.8914                   22598749.8014
   3297640.27047   2595443.90643  23612876.6484                   23612876.0124
 11  8 12 20 59 30.0000000  0  8G17G07G08G26G04G28G24G11
 -18388073.83648 -14281252.46946  20706504.0944                   20706502.3204
  10726647.74247   8375589.48845  22984289.2114                   22984290.7424
  -8141146.90248  -6318877.08646  20796043.5004                   20796043.0354
  -2008987.65247  -1498084.76244  23371927.8524   23371928.6884
   3231661.62947   2556233.86744  22855128.0634                   22855130.6484
 -11141329.43748  -8676273.11746  21136723.4144                   21136721.0554
  -9630829.88347  -7479423.86744  22600770.4144                   22600770.4024
   3340009.96546   2628459.20743  23620939.3134                   23620938.4144
 11  8 12 21  0  0.0000000  0  8G17G07G08G26G04G28G24G11
 -18456168.88748 -14334313.52346  20693546.0234                   20693544.1764
  10777448.94147   8415174.66045  22993956.7894                   22993957.7814
  -8123446.52748  -6305084.64546  20799411.8134                   20799411.3014
  -2004407.71147  -1494516.07044  23372799.2814   23372801.0314
   3066350.80947   2427420.44544  22823669.8524                   22823672.2234
 -11210366.69148  -8730068.39146  21123586.0554                   21123583.4884
  -9619840.52747  -7470860.73844  22602861.8364                   22602862.0314
   3382537.74647   2661597.67243  23629032.3594                   23629031.2234
 11  8 12 21  0 30.0000000  0  8G17G07G08G26G04G28G24G11
 -18524041.87548 -14387201.54346  20680630.4144                   20680628.6334
  10828377.69547   8454859.21545  23003648.2344                   23003649.8404
  -8105336.87148  -6290973.27746  20802857.7974                   20802857.5124
  -1999583.82047  -1490757.26644  23373716.7034   23373718.5474
   2901091.26647   2298646.99244  22792221.8444                   22792224.3984
 -11279378.79748  -8783844.05946  21110453.0704                   21110450.9494
  -9608491.16047  -7462017.11344  22605021.6804                   22605021.1764
   3425213.96546   2694851.81343  23637153.6954                   23637151.8134
 11  8 12 21  1  0.0000000  0  8G17G07G08G26G04G28G24G11
 -17016271.46948 -13212315.50046  20967549.6094                   20967547.3364
  12454849.21147   9722239.43844  23313155.9614                   23313157.1844
  -6511401.10248  -5048945.46546  21106174.0784                   21106173.7974
   -419099.64547   -259211.22344  23674473.3284   23674475.6024
   4311311.24647   3397519.89844  23060578.1334                   23060580.1484
  -9772942.55548  -7609997.63346  21397118.5234                   21397116.5704
  -8021364.65647  -6225295.18444  22907041.8594                   22907042.0394
   5043454.11747   3955818.11743  23945094.3524                   23945092.7194
 11  8 12 21  1 30.0000000  0  8G17G07G08G26G04G28G24G11
 -17083695.59848 -13264853.77046  20954719.1174                   20954717.0634
  12506032.46547   9762122.30544  23322895.2194                   23322897.0274
  -6492471.88348  -5034195.48446  21109776.0864                   21109775.4184
   -413789.77347   -255073.74244  23675483.7814   23675485.8164
   4146170.85247   3268839.27044  23029153.0784                   23029154.8054
  -9841893.56248  -7663725.70346  21383997.4144                   21383995.1914
  -8009294.28147  -6215889.70744  22909338.7424                   22909339.0474
   5086426.57946   3989303.10043  23953271.4844                   23953270.7774
 11  8 12 21  2  0.0000000  0  8G17G07G08G26G04G28G24G11
 -17150883.59448 -13317208.03546  20941933.5554                   20941931.4884
  12557352.85947   9802112.03944  23332661.5164                   23332663.4964
  -6473121.94948  -5019117.66446  21113458.5164                   21113457.9104
   -408228.04747   -250740.01244  23676542.1484   23676544.3444
   3981107.81647   3140218.93844  22997741.7894                   22997743.9694
  -9910798.34048  -7717417.73446  21370885.8204                   21370883.4024
  -7996853.07447  -6206195.27344  22911706.4384                   22911706.1024
   5129556.77746   4022910.99243  23961479.1724                   23961477.8674
 11  8 12 21  2 30.0000000  0  8G17G07G08G26G04G28G24G11
 -17217831.73048 -13369375.38746  20929193.5394                   20929192.0554
  12608812.56647   9842210.30944  23342454.4534                   23342455.9264
  -6453349.16448  -5003710.35546  21117221.1024                   21117220.4494
   -402412.85947   -246208.77044  23677649.3984   23677650.4184
   3816129.80147   3011664.83644  22966347.5314                   22966349.7274
  -9979651.52748  -7771069.56646  21357783.5164                   21357781.0984
  -7984038.64147  -6196210.03544  22914144.7974                   22914145.1844
   5172846.91447   4056643.50043  23969717.0554                   23969715.7234
 11  8 12 21  3  0.0000000  0  8G17G07G08G26G04G28G24G11
 -17284523.84848 -13421343.24646  20916502.4694                   20916500.9494
  12660425.89147   9882428.30944  23352276.2034                   23352277.6994
  -6433138.17648  -4987961.57846  21121066.7344                   21121066.5434
   -396330.19947   -241469.09444  23678806.6094   23678807.6564
   3651256.99647   2883192.71944  22934972.8984                   22934975.5204
 -10048434.57448  -7824666.74646  21344694.8524                   21344691.9734
  -7970835.60947  -6185921.99244  22916658.0474                   22916657.4614
   5216311.34446   4090511.84843  23977988.1024                   23977986.7664
 11  8 12 21  3 30.0000000  0  8G17G07G08G26G04G28G24G11
 -17350993.12948 -13473137.46546  20903854.0234                   20903852.0944
  12712158.79347   9922739.47344  23362120.8674                   23362122.5354
  -6412522.67248  -4971897.60246  21124990.2274                   21124989.9064
   -390015.01247   -236548.23444  23680008.3134   23680010.4734
   3486460.02347   2754779.69944  22903613.1644                   22903615.4104
 -10117177.85948  -7878232.93746  21331613.0314                   21331610.7114
  -7957278.16447  -6175357.77044  22919237.4694                   22919237.4654
   5259915.21546   4124488.84443  23986285.5634                   23986284.4144
 11  8 12 21  4  0.0000000  0  8G17G07G08G26G04G28G24G11
 -17417230.10248 -13524750.66846  20891249.4144                   20891247.7424
  12764018.74247   9963149.62144  23371989.2974                   23371991.0554
  -6391494.51248  -4955512.06646  21128991.6024                   21128991.4264
   -383460.40247   -231440.82844  23681255.8444   23681257.6484
   3321752.47747   2626436.36344  22872270.4844                   22872272.2734
 -10185870.00448  -7931759.28946  21318541.4224                   21318538.8244
  -7943358.34447  -6164511.17244  22921885.9454                   22921885.5234
   5303666.75446   4158580.91043  23994611.7584                   23994610.0474
 11  8 12 21  4 30.0000000  0  8G17G07G08G26G04G28G24G11
 -17483240.92648 -13576187.64546  20878687.8984                   20878686.0704
  12815998.22347  10003652.91844  23381881.1724                   23381882.2664
  -6370061.13348  -4938810.78946  21133070.1334                   21133070.1414
   -376674.26647   -226153.00444  23682547.3984   23682548.6054
   3157132.15647   2498160.99244  22840944.0554                   22840945.9304
 -10254515.15248  -7985249.00846  21305478.7664                   21305476.4884
  -7929083.53147  -6153387.96544  22924602.7584                   22924602.0634
   5347557.91046   4192781.79343  24002963.3754                   24002962.2704
 11  8 12 21  5  0.0000000  0  8G17G07G08G26G04G28G24G11
 -17549022.77748 -13627446.21546  20866169.8914                   20866168.6604
  12868098.87147  10044250.62944  23391795.4694                   23391797.2664
  -6348220.32848  -4921792.03146  21137226.3594                   21137226.3794
   -369655.84047   -220684.16844  23683882.9694   23683884.5044
   2992605.98847   2369958.94944  22809635.5234                   22809637.3834
 -10323107.78548  -8038697.81246  21292425.6884                   21292423.0274
  -7914451.52747  -6141986.43444  22927386.7114                   22927386.6374
   5391590.31647   4227092.68043  24011342.6644                   24011340.9184
 11  8 12 21  5 30.0000000  0  8G17G07G08G26G04G28G24G11
 -17614593.80148 -13678540.49646  20853692.4924                   20853690.5664
  12920301.13347  10084927.51644  23401729.6884                   23401731.4694
  -6325991.15648  -4904470.65246  21141456.1884                   21141456.2274
   -362425.45347   -215050.19144  23685258.6484   23685259.9614
   2828159.79347   2241819.25444  22778342.4614                   22778344.4344
 -10391663.61748  -8092117.94946  21279380.2814                   21279378.0204
  -7899481.86347  -6130321.77344  22930235.4534                   22930234.9964
   5435744.32046   4261498.38743  24019744.5164                   24019743.5004
 11  8 12 21  6  0.0000000  0  8G17G07G08G26G04G28G24G11
 -17679942.02348 -13729461.16446  20841256.8134                   20841255.2664
  12972615.37147  10125691.64544  23411684.6254                   23411686.3444
  -6303362.64548  -4886838.10246  21145762.7194                   21145762.2154
   -354973.10547   -209243.22744  23686676.9454   23686678.0434
   2663809.58247   2113754.32844  22747067.7584                   22747069.3714
 -10460168.44548  -8145498.32846  21266344.3594                   21266341.7464
  -7884163.80547  -6118385.64144  22933150.6564                   22933150.3444
   5480030.00846   4296006.65243  24028172.7584                   24028171.1134
 11  8 12 21  6 30.0000000  0  8G17G07G08G26G04G28G24G11
 -17745059.64148 -13780202.14546  20828865.3284                   20828863.5474
  13025048.19547  10166548.18444  23421662.0084                   23421664.3834
  -6280327.82048  -4868888.94546  21150146.0704                   21150145.7034
   -347292.94147   -203258.76244  23688138.4534   23688140.3054
   2499567.19547   1985773.43044  22715812.8134                   22715815.0234
 -10528611.89148  -8198830.87946  21253319.7664                   21253317.1484
  -7868490.77747  -6106172.93044  22936133.5704                   22936133.0704
   5524453.98846   4330622.67643  24036626.1804                   24036625.0984
 11  8 12 21  7  0.0000000  0  8G17G07G08G26G04G28G24G11
 -17809948.02048 -13830764.49246  20816517.6484                   20816516.1134
  13077596.55547  10207494.74644  23431662.2424                   23431664.0314
  -6256889.39547  -4850625.29346  21154606.6724                   21154606.0084
   -339388.34447   -197099.40244  23689642.8444   23689644.9144
   2335435.29747   1857878.62144  22684579.5704                   22684581.2114
 -10596993.26648  -8252115.06246  21240307.4144                   21240304.9064
  -7852465.27047  -6093685.53944  22939182.5784                   22939183.0904
   5569013.30946   4365344.16843  24045105.0864                   24045103.8984
 11  8 12 21  7 30.0000000  0  8G17G07G08G26G04G28G24G11
 -17874612.89548 -13881152.69146  20804212.2814                   20804210.6644
  13130253.26247  10248525.75444  23441682.7034                   23441684.5984
  -6233054.39148  -4832052.62946  21159142.4534                   21159141.9534
   -331267.37947   -190771.43743  23691187.7424   23691189.9734
   2171412.17247   1730068.54344  22653366.5314                   22653368.8404
 -10665315.93048  -8305353.49646  21227305.4614                   21227303.2304
  -7836094.24647  -6080928.91844  22942298.1564                   22942298.2234
   5613700.70347   4400165.48843  24053609.1724                   24053608.3164
 11  8 12 21  8  0.0000000  0  8G17G07G08G26G04G28G24G11
 -17939052.90248 -13931365.67246  20791949.9064                   20791947.8364
  13183018.60947  10289641.39844  23451724.1564                   23451725.8284
  -6208822.14548  -4813170.41446  21163753.5784                   21163753.3094
   -322930.51247   -184275.27344  23692774.4924   23692776.2544
   2007503.43447   1602347.61744  22622176.0234                   22622178.0984
 -10733576.05948  -8358543.21546  21214316.2114                   21214314.0084
  -7819377.27047  -6067902.72744  22945478.9844                   22945478.8594
   5658516.25446   4435086.66843  24062137.0164                   24062136.2464
 11  8 12 21  8 30.0000000  0  8G17G07G08G26G04G28G24G11
 -18003275.04748 -13981408.87546  20779728.5474                   20779726.5314
  13235883.52047  10330834.62544  23461783.2504                   23461785.7074
  -6184201.04747  -4793985.20345  21168438.8444                   21168438.5984
   -314387.14547   -177618.16844  23694399.9304   23694401.7074
   1843705.69947   1474713.16844  22591006.1334                   22591007.7734
 -10801778.00848  -8411687.58646  21201337.9694                   21201335.6644
  -7802322.82847  -6054613.55944  22948724.0004                   22948724.4184
   5703450.81346   4470100.53943  24070688.4924                   24070687.0234
 11  8 12 21  9  0.0000000  0  8G17G07G08G26G04G28G24G11
 -18067291.60948 -14031291.89546  20767546.6334                   20767544.5434
  13288835.11347  10372095.39544  23471859.8364                   23471862.3324
  -6159203.78948  -4774506.88346  21173195.7194                   21173195.1024
   -305651.22747   -170811.05944  23696062.7114   23696064.3284
   1680011.15247   1347159.13344  22559855.5864                   22559857.6134
 -10869931.52748  -8464794.22346  21188369.0234                   21188366.4534
  -7784944.07847  -6041071.71544  22952031.0704                   22952031.4414
   5748491.34846   4505197.02043  24079259.2504                   24079258.2234
 11  8 12 21  9 30.0000000  0  8G17G07G08G26G04G28G24G11
 -18131088.07448 -14081003.40646  20755406.2894                   20755404.5864
  13341885.93846  10413433.46144  23481955.0474                   23481957.5474
  -6133817.50848  -4754725.43046  21178026.3594                   21178026.1174
   -296710.49247   -163844.32444  23697764.3204   23697766.2894
   1516438.23847   1219699.86344  22528728.8674                   22528730.1454
 -10938020.18448  -8517850.32446  21175411.7734                   21175408.7664
  -7767228.10547  -6027267.08644  22955402.5314                   22955402.8164
   5793650.66046   4540386.06643  24087852.3364                   24087851.4884
 11  8 12 21 10  0.0000000  0  8G17G07G08G26G04G28G24G11
 -18194685.69548 -14130559.98446  20743304.3364                   20743302.6454
  13395013.48446  10454831.34044  23492065.5864                   23492067.7624
  -6108064.56248  -4734658.25846  21182926.9924                   21182926.7624
   -287588.16047   -156736.11343  23699500.4224   23699502.3984
   1352969.62547   1092321.87944  22497621.7974                   22497623.3054
 -11006062.80148  -8570870.53946  21162463.7344                   21162461.3364
  -7749197.11747  -6013216.99244  22958833.8364                   22958833.8204
   5838905.98846   4575649.93043  24096464.2424                   24096463.1414
 11  8 12 21 10 30.0000000  0  8G17G07G08G26G04G28G24G11
 -18258070.29748 -14179950.57446  20731242.4774                   20731240.6884
  13448230.41046  10496298.83244  23502192.6334                   23502194.3834
  -6081931.71148  -4714295.06245  21187900.0864                   21187900.0124
   -278272.17247   -149477.00444  23701272.9694   23701275.0044
   1189623.77747    965039.56644  22466538.4384                   22466539.7114
 -11074042.17248  -8623841.48446  21149527.6334                   21149525.2974
  -7730838.24647  -5998911.38744  22962326.8134                   22962327.5434
   5884270.21946   4610998.62943  24105097.0164                   24105095.8874
 11  8 12 21 11  0.0000000  0  8G17G07G08G26G04G28G24G11
 -18321251.98448 -14229183.05146  20719219.4694                   20719217.4494
  13501525.47747  10537827.23444  23512334.8204                   23512336.5234
  -6055430.47348  -4693644.82046  21192942.8204                   21192943.1254
   -268774.62147   -142076.39543  23703080.5084   23703082.4144
   1026394.68447    837848.21545  22435476.5864                   22435477.9384
 -11141966.09448  -8676769.21946  21136602.1414                   21136599.6484
  -7712162.62147  -5984358.98844  22965881.2814                   22965881.9494
   5929731.52346   4646422.98443  24113748.5864                   24113746.8634
 11  8 12 21 11 30.0000000  0  8G17G07G08G26G04G28G24G11
 -18384221.22348 -14278249.97746  20707236.8524                   20707234.9494
  13554906.62947  10579422.69944  23522493.0084                   23522495.1294
  -6028551.96548  -4672700.59046  21198057.6804                   21198057.7234
   -259088.11747   -134528.53943  23704924.2034   23704925.2234
    863295.96547    710758.46145  22404440.0314                   22404441.0944
 -11209822.55148  -8729644.37946  21123689.8284                   21123687.3404
  -7693162.28547  -5969553.57044  22969497.1174                   22969496.9454
   5975298.15646   4681929.43843  24122419.0234                   24122417.7704
 11  8 12 21 12  0.0000000  0  8G17G07G08G26G04G28G24G11
 -18446987.16048 -14327158.48446  20695292.4924                   20695291.2774
  13608363.37946  10621077.09444  23532665.0084                   23532667.4534
  -6001306.62548  -4651470.52746  21203242.4534                   21203242.6334
   -249223.92647   -126842.23043  23706801.0084   23706802.8634
    700322.43847    583766.27045  22373427.0944                   22373428.0704
 -11277618.67648  -8782472.53946  21110788.4614                   21110786.0394
  -7673847.38347  -5954503.04744  22973172.6414                   22973172.6214
   6020959.42247   4717509.57443  24131108.3984                   24131106.9694
 11  8 12 21 12 30.0000000  0  8G17G07G08G26G04G28G24G11
 -18509568.19948 -14375922.93046  20683383.9064                   20683382.1174
  13661875.93047  10662774.95744  23542848.7734                   23542850.6644
  -5973714.17248  -4629969.98446  21208493.3204                   21208493.5984
   -239202.39147   -119033.33244  23708708.0634   23708709.4924
    537459.69947    456860.39145  22342434.0554                   22342435.6724
 -11345370.11748  -8835265.88746  21097895.6484                   21097893.4494
  -7654237.34447  -5939222.50844  22976904.4844                   22976904.0904
   6066695.81347   4753148.28943  24139811.8914                   24139810.9494
 11  8 12 21 13  0.0000000  0  8G17G07G08G26G04G28G24G11
 -18571963.19548 -14424542.39546  20671510.6564                   20671508.6804
  13715443.91047  10704516.01244  23553042.7664                   23553045.1724
  -5945774.82048  -4608199.12945  21213809.8134                   21213809.6254
   -229024.55947   -111102.62544  23710645.5004   23710646.5944
    374713.03547    330044.97345  22311465.0944                   22311466.7584
 -11413073.07048  -8888021.43746  21085012.6564                   21085009.5744
  -7634332.52047  -5923712.29744  22980692.3984                   22980691.9494
   6112506.84447   4788845.12543  24148528.9144                   24148528.4494
 11  8 12 21 13 30.0000000  0  8G17G07G08G26G04G28G24G11
 -18634148.86348 -14472998.74246  20659676.9694                   20659675.0004
  13769089.10947  10746317.21544  23563251.1954                   23563253.0944
  -5917466.26248  -4586140.57845  21219196.9454                   21219196.4494
   -218669.10947   -103033.53143  23712615.4144   23712616.9384
    212109.93447    203341.42645  22280523.0784                   22280523.5314
 -11480701.97348  -8940719.29346  21072142.8674                   21072140.4534
  -7614110.89547  -5907955.20344  22984540.2034                   22984540.0434
   6158414.44147   4824617.23843  24157265.7734                   24157263.7424
 11  8 12 21 14  0.0000000  0  8G17G07G08G26G04G28G24G11
 -18696131.10248 -14521296.57846  20647882.3984                   20647880.5784
  13822804.40247  10788173.04744  23573473.0704                   23573475.4104
  -5888795.42648  -4563799.73845  21224653.2114                   21224652.8524
   -208143.82447    -94832.07443  23714618.6414   23714620.0864
     49648.60247     76748.34045  22249606.7584                   22249608.2114
 -11548260.02748  -8993361.94546  21059287.2814                   21059284.6764
  -7593579.77047  -5891956.91844  22988447.2114                   22988446.4924
   6204411.36746   4860458.94543  24166017.9534                   24166017.1454
 11  8 12 21 14 30.0000000  0  8G17G07G08G26G04G28G24G11
 -18757920.64848 -14569444.27046  20636124.5164                   20636122.3204
  13876577.70347  10830074.05944  23583705.9774                   23583708.5864
  -5859774.20347  -4541185.86345  21230175.5474                   21230175.5004
   -197461.48847    -86508.24644  23716651.2274   23716653.2624
   -112677.59047    -49739.44145  22218717.5554                   22218718.4184
 -11615755.35548  -9045955.72346  21046443.3834                   21046440.8324
  -7572750.53947  -5875726.39844  22992410.4064                   22992410.5474
   6250485.69946   4896360.97743  24174786.0554                   24174785.1994
 11  8 12 21 15  0.0000000  0  8G17G07G08G26G04G28G24G11
 -17244078.07448 -13389826.66446  20924198.8754                   20924196.5474
  15505843.26647  12099631.39844  23893745.1884                   23893747.3794
  -4254967.67648  -3290687.34045  21535560.2034                   21535560.1804
   1388812.61747   1149549.39844  24018509.7034   24018511.0864
   1300578.16447   1051498.97345  22487651.0084                   22487652.3284
 -10107746.05548  -7870883.55946  21333407.5314                   21333405.2234
  -5976188.18047  -4631651.85244  23296226.5004                   23296225.9104
   7872071.73846   6159934.46143  24483362.8984                   24483362.4304
 11  8 12 21 15 30.0000000  0  8G17G07G08G26G04G28G24G11
 -17305444.94548 -13437644.98446  20912521.0554                   20912518.8954
  15559765.52347  12141648.50044  23904005.8914                   23904009.0594
  -4225212.62147  -3267501.65245  21541222.6024                   21541222.1484
   1399839.75047   1158141.90644  24020607.7814   24020609.9924
   1138571.58647    925260.24645  22456822.0474                   22456822.6604
 -10175071.35248  -7923344.83646  21320595.9144                   21320593.3054
  -5954729.84447  -4614931.09444  23300309.9304                   23300309.7544
   7918333.25446   6195982.35242  24492166.4144                   24492165.8954
 11  8 12 21 16  0.0000000  0  8G17G07G08G26G04G28G24G11
 -17366587.39148 -13485288.43446  20900885.9534                   20900884.4184
  15613773.39847  12183732.30944  23914283.5864                   23914286.5124
  -4195079.76247  -3244021.57445  21546956.4534                   21546956.7274
   1411049.07047   1166876.35944  24022741.1094   24022742.9734
    976744.03947    799161.02045  22426026.9534                   22426028.0314
 -10242294.78948  -7975726.74246  21307804.1954                   21307801.3714
  -5932945.78147  -4597956.52044  23304454.8594                   23304455.0474
   7964699.81346   6232112.08642  24500990.1254                   24500989.3204
 11  8 12 21 16 30.0000000  0  8G17G07G08G26G04G28G24G11
 -17427511.14548 -13532761.47746  20889292.7504                   20889291.1374
  15667859.77347  12225877.29744  23924575.8204                   23924578.5044
  -4164575.57447  -3220252.14145  21552761.3524                   21552761.6134
   1422433.41847   1175747.19544  24024907.2274   24024909.3914
    815093.98847    673200.09445  22395266.0084                   22395266.6724
 -10309419.23448  -8028031.52046  21295030.5784                   21295028.3524
  -5910842.94147  -4580733.55544  23308660.9454                   23308661.2814
   8011164.02346   6268317.90242  24509830.7504                   24509831.0044
 11  8 12 21 17  0.0000000  0  8G17G07G08G26G04G28G24G11
 -17488203.45348 -13580054.16446  20877743.3674                   20877741.4344
  15722035.70347  12268092.02344  23934885.8674                   23934888.5274
  -4133688.42647  -3196184.30545  21558639.1804                   21558638.8914
   1434003.13747   1184762.46944  24027109.5314   24027111.6884
    653638.28548    547390.59845  22364542.0634                   22364542.5474
 -10376429.65248  -8080247.44146  21282279.0164                   21282276.6804
  -5888409.97347  -4563253.34444  23312930.5314                   23312930.1214
   8057737.56646   6304608.84442  24518694.4614                   24518694.5234
 11  8 12 21 17 30.0000000  0  9G17G07G08G26G04G20G28G24G11
 -17548656.28548 -13627160.25846  20866239.4454                   20866237.8134
  15776307.87547  12310381.76644  23945213.5394                   23945216.6254
  -4102411.69547  -3171812.90645  21564591.1414                   21564591.0354
   1445764.35947   1193926.96544  24029347.0864   24029349.6134
    492389.12147    421742.03545  22333857.1884                   22333857.8984
  18785137.55517                  24708734.156
 -10443315.44548  -8132366.25846  21269551.2584                   21269548.4144
  -5865639.96947  -4545510.50044  23317263.3914                   23317263.2704
   8104427.004 6                  24527578.961
 11  8 12 21 18  0.0000000  0  9G17G07G08G26G04G20G28G24G11
 -17608853.19948 -13674066.93446  20854784.2664                   20854782.5744
  15830691.50847  12352758.36344  23955563.0004                   23955565.7074
  -4070730.53547  -3147126.36345  21570619.5554                   21570619.7114
   1457731.28147   1203251.73044  24031624.5004   24031627.3134
    331366.80148    296270.23045  22303215.2584                   22303216.3524
  18682261.209 7                  24689157.281
 -10510057.87148  -8184373.35246  21256850.2274                   21256848.0554
  -5842518.09047  -4527493.47744  23321663.5394                   23321663.4924
   8151247.223 6                  24536488.680
 11  8 12 21 18 30.0000000  0  9G17G07G08G26G04G20G28G24G11
 -17668803.36348 -13720781.33246  20843376.1644                   20843374.0634
  15885176.57846  12395213.98844  23965931.1484                   23965933.9454
  -4038655.14547  -3122132.62945  21576723.5234                   21576723.5084
   1469892.80547   1212728.11744  24033938.7034   24033941.2424
    170566.64547    170971.52745  22272616.3754                   22272616.8364
  18579596.887 6                  24669620.523
 -10576662.86748  -8236273.36346  21244176.0944                   21244173.2814
  -5819054.44547  -4509210.14844  23326128.2504                   23326128.7934
   8198188.02346   6352813.78952  24545421.8594                   24545420.5704
 11  8 12 21 19  0.0000000  0  9G17G07G08G26G04G20G28G24G11
 -17728498.94948 -13767297.35946  20832016.6484                   20832014.7704
  15939768.76247  12437753.06344  23976319.0084                   23976323.1334
  -4006179.22747  -3096826.79345  21582903.5784                   21582903.8524
   1482254.52747   1222360.52344  24036291.1334   24036293.1214
     10000.25447     45854.98444  22242061.3834                   22242061.7194
  18477155.844 6                  24650125.961
 -10643120.32848  -8288058.41046  21231529.3134                   21231526.8554
  -5795242.77747  -4490655.62944  23330659.4534                   23330659.7664
   8245255.77346   6389489.93043  24554378.3594                   24554377.6804
 11  8 12 21 19 30.0000000  0  8G17G07G08G26G04G20G28G24
 -17787922.80548 -13813601.64146  20820708.5394                   20820706.3404
  15994484.53547  12480388.43844  23986732.6254                   23986735.5124
  -3973286.63347  -3071196.27045  21589162.4694                   21589162.9224
   1494832.30147   1232161.26244  24038684.5394   24038686.6844
   -150310.81647    -79062.60945  22211554.7584                   22211555.7894
  18374959.570 6                  24630678.938
 -10709410.14548  -8339712.82446  21218914.9844                   21218912.2814
  -5771066.69147  -4471817.16444  23335259.5944                   23335259.9144
 11  8 12 21 20  0.0000000  0  8G17G07G08G26G04G20G28G24
 -17847071.44948 -13859691.48846  20809453.0004                   20809451.1094
  16049325.68447  12523121.53144  23997168.2274                   23997171.4414
  -3939975.15247  -3045239.35245  21595501.8834                   21595501.6334
   1507626.80547   1242130.92243  24041120.0784   24041121.9844
   -310359.04747   -203775.40645  22181098.4144                   22181099.4454
  18273015.090 7                  24611279.422
 -10775526.73448  -8391232.24646  21206333.3524                   21206331.0554
  -5746524.44547  -4452693.34844  23339929.6254                   23339930.6724
 11  8 12 21 20 30.0000000  0  8G17G07G08G26G04G20G28G24
 -17905937.85248 -13905561.38346  20798251.0234                   20798249.2704
  16104297.59447  12565956.51243  24007629.2344                   24007632.9694
  -3906239.40647  -3018951.83245  21601921.6484                   21601921.5664
   1520643.22347   1252273.47743  24043596.3364   24043598.1054
   -470133.48447   -328274.85945  22150694.4224                   22150695.0164
  18171333.367 7                  24591930.195
 -10841460.25848  -8442609.01646  21193786.8204                   21193783.9184
  -5721610.27047  -4433279.73444  23344671.4614                   23344671.6994
 11  8 12 21 21  0.0000000  0  8G17G07G08G26G04G20G28G24
 -17964514.08248 -13951205.18446  20787104.3204                   20787102.2974
  16159407.00447  12608898.62144  24018116.6954                   24018120.0084
  -3872072.86347  -2992328.61345  21608423.2664                   21608423.3164
   1533887.51247   1262593.59043  24046116.9694   24046119.2274
   -629621.87547   -452551.42245  22120344.6024                   22120345.1484
  18069926.086 7                  24572633.313
 -10907200.36348  -8493835.07446  21181276.9774                   21181274.5704
  -5696317.60246  -4413571.19144  23349484.0004                   23349484.5234
 11  8 12 21 21 30.0000000  0  8G17G07G08G26G04G20G28G24
 -18022781.76248 -13996608.55946  20776016.3054                   20776014.3404
  16214670.94147  12651961.14144  24028632.8984                   24028636.8014
  -3837458.25847  -2965356.26645  21615010.2974                   21615010.0744
   1547375.77746   1273103.83244  24048683.4534   24048686.4454
   -788801.94947   -576587.73045  22090053.4614                   22090054.4184
  17968815.570 7                  24553392.055
 -10972725.74248  -8544893.81646  21168807.9224                   21168805.1094
  -5670629.38747  -4393554.43444  23354372.3204                   23354372.5904
 11  8 12 21 22  0.0000000  0  8G17G07G08G26G04G20G28G24
 -18080732.87548 -14041765.26246  20764988.5634                   20764986.5204
  16270096.14147  12695149.30143  24039180.4534                   24039183.8754
  -3802388.94547  -2938029.60945  21621684.1024                   21621683.8674
   1561114.28547   1283809.07444  24051298.1644   24051300.8404
   -947661.54747   -700374.31245  22059823.4844                   22059824.5084
  17868013.477 6                  24534210.570
 -11038025.85948  -8595777.02046  21156381.2664                   21156378.8984
  -5644538.98047  -4373224.26644  23359337.4224                   23359337.3554
 11  8 12 21 22 30.0000000  0  8G17G07G08G26G04G20G28G24
 -18138368.09448 -14086675.80546  20754021.0634                   20754018.7624
  16325680.34047  12738461.36343  24049757.9534                   24049762.0044
  -3766866.93047  -2910350.19545  21628443.5314                   21628443.1644
   1575100.40647   1294707.23444  24053960.1804   24053962.2854
  -1106197.02747   -823908.34445  22029655.5164                   22029656.1334
  17767523.285 7                  24515087.086
 -11103098.78948  -8646483.19146  21143998.7194                   21143996.3634
  -5618048.00047  -4352581.97744  23364378.4614                   23364378.6334
 11  8 12 21 23  0.0000000  0  8G17G07G08G26G04G20G28G24
 -18195704.29348 -14131353.34846  20743110.1564                   20743108.1724
  16381405.77747  12781883.49244  24060362.6174                   24060366.4964
  -3730910.69947  -2882332.42645  21635286.0634                   21635285.4024
   1589315.07447   1305783.50444  24056664.9144   24056667.4104
  -1264421.25847   -947199.84445  21999546.4614                   21999546.8404
  17667332.027 6                  24496021.648
 -11167958.66048  -8697023.35246  21131656.1804                   21131653.3324
  -5591174.85547  -4331641.91844  23369492.1174                   23369492.5944
 11  8 12 21 23 30.0000000  0  8G17G07G08G26G04G20G28G24
 -18252734.46948 -14175792.42646  20732257.6334                   20732255.5394
  16437278.15647  12825420.10943  24070994.6724                   24070998.6644
  -3694514.28147  -2853971.65645  21642211.8204                   21642212.0784
   1603763.56647   1317041.93444  24059414.8134   24059416.8634
  -1422322.89547  -1070239.96145  21969498.2894                   21969498.9064
  17567450.859 6                  24477014.211
 -11232595.64848  -8747389.82046  21119356.1884                   21119353.4964
  -5563913.55547  -4310399.36344  23374680.3364                   23374680.2034
 11  8 12 21 24  0.0000000  0  8G17G07G08G26G04G20G28G24
 -18309468.05948 -14220000.41046  20721461.6804                   20721459.5434
  16493286.34046  12869062.57843  24081652.8364                   24081657.1684
  -3657689.26647  -2825276.92245  21649219.3984                   21649219.3954
   1618433.88747   1328473.23044  24062206.1484   24062207.8524
  -1579907.87547  -1193033.35945  21939511.0634                   21939511.3554
  17467873.395 7                  24458065.961
 -11297017.07048  -8797588.33246  21107097.1024                   21107094.6024
  -5536275.50847  -4288863.25844  23379939.7194                   23379939.5314
 11  8 12 21 24 30.0000000  0  8G17G07G08G26G04G20G28G24
 -18365902.08248 -14263974.96146  20710722.6024                   20710720.7234
  16549432.02346  12912812.17243  24092336.5554                   24092341.8164
  -3620433.30547  -2796246.38345  21656308.9774                   21656309.3914
   1633327.64547   1340078.65243  24065040.2814   24065042.9144
  -1737168.54347  -1315574.03945  21909585.1024                   21909585.7814
  17368607.023 6                  24439176.063
 -11361216.87948  -8847614.15246  21094880.6484                   21094877.6454
  -5508258.47747  -4267031.82044  23385270.9144                   23385271.3204
 11  8 12 21 25  0.0000000  0  8G17G07G08G26G04G20G28G24
 -18422030.09448 -14307711.06246  20700041.6024                   20700039.5744
  16605720.34846  12956672.87943  24103049.2974                   24103053.2464
  -3582741.70348  -2766876.37145  21663482.0394                   21663481.9774
   1648448.94147   1351861.35243  24067918.7344   24067919.6604
  -1894094.44547  -1437853.85945  21879723.0234                   21879723.2894
  17269662.156 6                  24420347.211
 -11425186.03948  -8897460.25846  21082707.3134                   21082704.9924
  -5479857.28147  -4244901.05944  23390675.3914                   23390675.9454
 11  8 12 21 25 30.0000000  0  8G17G07G08G26G04G20G28G24
 -18477860.16448 -14351215.00046  20689417.7114                   20689415.8284
  16662142.03546  13000637.52043  24113785.8754                   24113789.6884
  -3544623.81648  -2737174.20345  21670735.7034                   21670735.9064
   1663787.54347   1363813.42643  24070837.5084   24070839.4384
  -2050689.85247  -1559876.16445  21849923.8834                   21849924.6254
  17171034.453 6                  24401578.883
 -11488930.05148  -8947130.92646  21070577.6334                   21070574.6524
  -5451081.84046  -4222478.67644  23396151.2504                   23396151.9384
 11  8 12 21 26  0.0000000  0  8G17G07G08G26G04G20G28G24
 -18533402.22748 -14394494.51646  20678848.0704                   20678846.4144
  16718685.48846  13044697.08643  24124545.7114                   24124550.6524
  -3506091.43748  -2707149.05145  21678067.8054                   21678068.6174
   1679331.46947   1375925.46944  24073795.4384   24073796.7774
  -2206960.58247  -1681645.46145  21820186.4064                   21820186.6054
  17072717.352 6                  24382869.117
 -11552456.30148  -8996631.89846  21058488.8674                   21058486.0274
  -5421943.51247  -4199773.53544  23401696.1094                   23401696.4024
 11  8 12 21 26 30.0000000  0  8G17G07G08G26G04G20G28G24
 -18588650.68048 -14437545.25046  20668334.9694                   20668332.6684
  16775355.33246  13088855.12143  24135329.9844                   24135334.1374
  -3467139.99248  -2676797.36745  21685480.1564                   21685480.2344
   1695084.75447   1388200.65643  24076792.6804   24076795.8324
  -2362896.69547  -1803154.02745  21790512.8204                   21790512.7584
  16974720.602 6                  24364220.742
 -11615756.11748  -9045956.44146  21046443.1174                   21046440.9304
  -5392437.69547  -4176782.02744  23407310.7504                   23407311.3284
